<?xml version="1.0" encoding="UTF-8" standalone="no" ?>
<gpx xmlns="http://www.topografix.com/GPX/1/1" xmlns:xsi="http://www.w3.org/2001/XMLSchema-instance" xsi:schemaLocation="http://www.topografix.com/GPX/1/1 http://www.topografix.com/GPX/1/1/gpx.xsd" version="1.1" creator="VisuGPX - https://www.visugpx.com">
  <metadata>
    <name>courir pour des pommes 17kms</name>
    <desc><![CDATA[trail en pleine nature avec du dénivelé]]></desc>
  </metadata>
  <trk>
    <name><![CDATA[18kms]]></name>
    <trkseg>
      <trkpt lat="45.55746" lon="4.53776">
        <ele>521</ele>
        <time>2013-09-22T07:15:40Z</time>
      </trkpt>
      <trkpt lat="45.55725" lon="4.53749">
        <ele>526</ele>
        <time>2013-09-22T07:15:54Z</time>
      </trkpt>
      <trkpt lat="45.55719" lon="4.53739">
        <ele>526</ele>
        <time>2013-09-22T07:15:58Z</time>
      </trkpt>
      <trkpt lat="45.55713" lon="4.5373">
        <ele>525</ele>
        <time>2013-09-22T07:16:01Z</time>
      </trkpt>
      <trkpt lat="45.55708" lon="4.53722">
        <ele>525</ele>
        <time>2013-09-22T07:16:04Z</time>
      </trkpt>
      <trkpt lat="45.55704" lon="4.53715">
        <ele>524</ele>
        <time>2013-09-22T07:16:07Z</time>
      </trkpt>
      <trkpt lat="45.55699" lon="4.53707">
        <ele>523</ele>
        <time>2013-09-22T07:16:10Z</time>
      </trkpt>
      <trkpt lat="45.55694" lon="4.53699">
        <ele>523</ele>
        <time>2013-09-22T07:16:13Z</time>
      </trkpt>
      <trkpt lat="45.55689" lon="4.53691">
        <ele>523</ele>
        <time>2013-09-22T07:16:16Z</time>
      </trkpt>
      <trkpt lat="45.55682" lon="4.53681">
        <ele>523</ele>
        <time>2013-09-22T07:16:20Z</time>
      </trkpt>
      <trkpt lat="45.55675" lon="4.53673">
        <ele>523</ele>
        <time>2013-09-22T07:16:24Z</time>
      </trkpt>
      <trkpt lat="45.55666" lon="4.53672">
        <ele>522</ele>
        <time>2013-09-22T07:16:28Z</time>
      </trkpt>
      <trkpt lat="45.55657" lon="4.5367">
        <ele>522</ele>
        <time>2013-09-22T07:16:31Z</time>
      </trkpt>
      <trkpt lat="45.55645" lon="4.53667">
        <ele>522</ele>
        <time>2013-09-22T07:16:35Z</time>
      </trkpt>
      <trkpt lat="45.55637" lon="4.53662">
        <ele>522</ele>
        <time>2013-09-22T07:16:38Z</time>
      </trkpt>
      <trkpt lat="45.55629" lon="4.53657">
        <ele>522</ele>
        <time>2013-09-22T07:16:41Z</time>
      </trkpt>
      <trkpt lat="45.55621" lon="4.53647">
        <ele>522</ele>
        <time>2013-09-22T07:16:45Z</time>
      </trkpt>
      <trkpt lat="45.55615" lon="4.5364">
        <ele>522</ele>
        <time>2013-09-22T07:16:48Z</time>
      </trkpt>
      <trkpt lat="45.5561" lon="4.53633">
        <ele>522</ele>
        <time>2013-09-22T07:16:51Z</time>
      </trkpt>
      <trkpt lat="45.55605" lon="4.53623">
        <ele>522</ele>
        <time>2013-09-22T07:16:54Z</time>
      </trkpt>
      <trkpt lat="45.55599" lon="4.53612">
        <ele>522</ele>
        <time>2013-09-22T07:16:58Z</time>
      </trkpt>
      <trkpt lat="45.55595" lon="4.53604">
        <ele>522</ele>
        <time>2013-09-22T07:17:01Z</time>
      </trkpt>
      <trkpt lat="45.55591" lon="4.53596">
        <ele>522</ele>
        <time>2013-09-22T07:17:04Z</time>
      </trkpt>
      <trkpt lat="45.55586" lon="4.53588">
        <ele>522</ele>
        <time>2013-09-22T07:17:07Z</time>
      </trkpt>
      <trkpt lat="45.55579" lon="4.53578">
        <ele>522</ele>
        <time>2013-09-22T07:17:11Z</time>
      </trkpt>
      <trkpt lat="45.55573" lon="4.53571">
        <ele>522</ele>
        <time>2013-09-22T07:17:14Z</time>
      </trkpt>
      <trkpt lat="45.55567" lon="4.53566">
        <ele>522</ele>
        <time>2013-09-22T07:17:17Z</time>
      </trkpt>
      <trkpt lat="45.55559" lon="4.53559">
        <ele>523</ele>
        <time>2013-09-22T07:17:21Z</time>
      </trkpt>
      <trkpt lat="45.55552" lon="4.53555">
        <ele>523</ele>
        <time>2013-09-22T07:17:24Z</time>
      </trkpt>
      <trkpt lat="45.55545" lon="4.53551">
        <ele>523</ele>
        <time>2013-09-22T07:17:27Z</time>
      </trkpt>
      <trkpt lat="45.55535" lon="4.53545">
        <ele>523</ele>
        <time>2013-09-22T07:17:31Z</time>
      </trkpt>
      <trkpt lat="45.55525" lon="4.53537">
        <ele>523</ele>
        <time>2013-09-22T07:17:35Z</time>
      </trkpt>
      <trkpt lat="45.55519" lon="4.53528">
        <ele>523</ele>
        <time>2013-09-22T07:17:38Z</time>
      </trkpt>
      <trkpt lat="45.55514" lon="4.53521">
        <ele>523</ele>
        <time>2013-09-22T07:17:41Z</time>
      </trkpt>
      <trkpt lat="45.55509" lon="4.53513">
        <ele>523</ele>
        <time>2013-09-22T07:17:44Z</time>
      </trkpt>
      <trkpt lat="45.55502" lon="4.53506">
        <ele>523</ele>
        <time>2013-09-22T07:17:47Z</time>
      </trkpt>
      <trkpt lat="45.55496" lon="4.53495">
        <ele>524</ele>
        <time>2013-09-22T07:17:51Z</time>
      </trkpt>
      <trkpt lat="45.55491" lon="4.53485">
        <ele>524</ele>
        <time>2013-09-22T07:17:54Z</time>
      </trkpt>
      <trkpt lat="45.55488" lon="4.53476">
        <ele>524</ele>
        <time>2013-09-22T07:17:57Z</time>
      </trkpt>
      <trkpt lat="45.55486" lon="4.53463">
        <ele>524</ele>
        <time>2013-09-22T07:18:01Z</time>
      </trkpt>
      <trkpt lat="45.55487" lon="4.53451">
        <ele>524</ele>
        <time>2013-09-22T07:18:04Z</time>
      </trkpt>
      <trkpt lat="45.55489" lon="4.5344">
        <ele>524</ele>
        <time>2013-09-22T07:18:07Z</time>
      </trkpt>
      <trkpt lat="45.55489" lon="4.53427">
        <ele>524</ele>
        <time>2013-09-22T07:18:11Z</time>
      </trkpt>
      <trkpt lat="45.55493" lon="4.53418">
        <ele>524</ele>
        <time>2013-09-22T07:18:14Z</time>
      </trkpt>
      <trkpt lat="45.55497" lon="4.5341">
        <ele>524</ele>
        <time>2013-09-22T07:18:17Z</time>
      </trkpt>
      <trkpt lat="45.55503" lon="4.53399">
        <ele>524</ele>
        <time>2013-09-22T07:18:21Z</time>
      </trkpt>
      <trkpt lat="45.5551" lon="4.53392">
        <ele>524</ele>
        <time>2013-09-22T07:18:24Z</time>
      </trkpt>
      <trkpt lat="45.55516" lon="4.53388">
        <ele>524</ele>
        <time>2013-09-22T07:18:27Z</time>
      </trkpt>
      <trkpt lat="45.55519" lon="4.53385">
        <ele>524</ele>
        <time>2013-09-22T07:18:31Z</time>
      </trkpt>
      <trkpt lat="45.55523" lon="4.53385">
        <ele>524</ele>
        <time>2013-09-22T07:18:35Z</time>
      </trkpt>
      <trkpt lat="45.55524" lon="4.53387">
        <ele>524</ele>
        <time>2013-09-22T07:18:38Z</time>
      </trkpt>
      <trkpt lat="45.55525" lon="4.53391">
        <ele>524</ele>
        <time>2013-09-22T07:18:41Z</time>
      </trkpt>
      <trkpt lat="45.55528" lon="4.53396">
        <ele>527</ele>
        <time>2013-09-22T07:18:44Z</time>
      </trkpt>
      <trkpt lat="45.55531" lon="4.53398">
        <ele>530</ele>
        <time>2013-09-22T07:18:47Z</time>
      </trkpt>
      <trkpt lat="45.55534" lon="4.53405">
        <ele>532</ele>
        <time>2013-09-22T07:18:50Z</time>
      </trkpt>
      <trkpt lat="45.55537" lon="4.5341">
        <ele>532</ele>
        <time>2013-09-22T07:18:53Z</time>
      </trkpt>
      <trkpt lat="45.55537" lon="4.53415">
        <ele>535</ele>
        <time>2013-09-22T07:18:56Z</time>
      </trkpt>
      <trkpt lat="45.55542" lon="4.5342">
        <ele>542</ele>
        <time>2013-09-22T07:19:00Z</time>
      </trkpt>
      <trkpt lat="45.55546" lon="4.53424">
        <ele>548</ele>
        <time>2013-09-22T07:19:03Z</time>
      </trkpt>
      <trkpt lat="45.55552" lon="4.53424">
        <ele>551</ele>
        <time>2013-09-22T07:19:06Z</time>
      </trkpt>
      <trkpt lat="45.55558" lon="4.53424">
        <ele>554</ele>
        <time>2013-09-22T07:19:09Z</time>
      </trkpt>
      <trkpt lat="45.55563" lon="4.53425">
        <ele>557</ele>
        <time>2013-09-22T07:19:12Z</time>
      </trkpt>
      <trkpt lat="45.5557" lon="4.53428">
        <ele>560</ele>
        <time>2013-09-22T07:19:15Z</time>
      </trkpt>
      <trkpt lat="45.55576" lon="4.53432">
        <ele>560</ele>
        <time>2013-09-22T07:19:18Z</time>
      </trkpt>
      <trkpt lat="45.55582" lon="4.53437">
        <ele>560</ele>
        <time>2013-09-22T07:19:21Z</time>
      </trkpt>
      <trkpt lat="45.55588" lon="4.53442">
        <ele>560</ele>
        <time>2013-09-22T07:19:24Z</time>
      </trkpt>
      <trkpt lat="45.55593" lon="4.5345">
        <ele>558</ele>
        <time>2013-09-22T07:19:27Z</time>
      </trkpt>
      <trkpt lat="45.556" lon="4.53456">
        <ele>555</ele>
        <time>2013-09-22T07:19:30Z</time>
      </trkpt>
      <trkpt lat="45.55605" lon="4.53464">
        <ele>555</ele>
        <time>2013-09-22T07:19:33Z</time>
      </trkpt>
      <trkpt lat="45.55607" lon="4.53475">
        <ele>555</ele>
        <time>2013-09-22T07:19:36Z</time>
      </trkpt>
      <trkpt lat="45.55607" lon="4.53486">
        <ele>554</ele>
        <time>2013-09-22T07:19:39Z</time>
      </trkpt>
      <trkpt lat="45.5561" lon="4.53499">
        <ele>554</ele>
        <time>2013-09-22T07:19:43Z</time>
      </trkpt>
      <trkpt lat="45.55613" lon="4.53511">
        <ele>554</ele>
        <time>2013-09-22T07:19:46Z</time>
      </trkpt>
      <trkpt lat="45.55616" lon="4.53523">
        <ele>553</ele>
        <time>2013-09-22T07:19:49Z</time>
      </trkpt>
      <trkpt lat="45.55621" lon="4.53536">
        <ele>551</ele>
        <time>2013-09-22T07:19:52Z</time>
      </trkpt>
      <trkpt lat="45.55625" lon="4.53547">
        <ele>550</ele>
        <time>2013-09-22T07:19:55Z</time>
      </trkpt>
      <trkpt lat="45.55632" lon="4.53556">
        <ele>549</ele>
        <time>2013-09-22T07:19:58Z</time>
      </trkpt>
      <trkpt lat="45.55641" lon="4.53566">
        <ele>546</ele>
        <time>2013-09-22T07:20:01Z</time>
      </trkpt>
      <trkpt lat="45.55646" lon="4.53578">
        <ele>543</ele>
        <time>2013-09-22T07:20:04Z</time>
      </trkpt>
      <trkpt lat="45.55649" lon="4.53589">
        <ele>540</ele>
        <time>2013-09-22T07:20:07Z</time>
      </trkpt>
      <trkpt lat="45.55655" lon="4.536">
        <ele>537</ele>
        <time>2013-09-22T07:20:10Z</time>
      </trkpt>
      <trkpt lat="45.55659" lon="4.5361">
        <ele>535</ele>
        <time>2013-09-22T07:20:13Z</time>
      </trkpt>
      <trkpt lat="45.55661" lon="4.53623">
        <ele>532</ele>
        <time>2013-09-22T07:20:16Z</time>
      </trkpt>
      <trkpt lat="45.55663" lon="4.53636">
        <ele>529</ele>
        <time>2013-09-22T07:20:19Z</time>
      </trkpt>
      <trkpt lat="45.55666" lon="4.5365">
        <ele>528</ele>
        <time>2013-09-22T07:20:22Z</time>
      </trkpt>
      <trkpt lat="45.55672" lon="4.5366">
        <ele>527</ele>
        <time>2013-09-22T07:20:25Z</time>
      </trkpt>
      <trkpt lat="45.55675" lon="4.53674">
        <ele>526</ele>
        <time>2013-09-22T07:20:28Z</time>
      </trkpt>
      <trkpt lat="45.55671" lon="4.53688">
        <ele>524</ele>
        <time>2013-09-22T07:20:31Z</time>
      </trkpt>
      <trkpt lat="45.55667" lon="4.53701">
        <ele>523</ele>
        <time>2013-09-22T07:20:34Z</time>
      </trkpt>
      <trkpt lat="45.55667" lon="4.53715">
        <ele>521</ele>
        <time>2013-09-22T07:20:37Z</time>
      </trkpt>
      <trkpt lat="45.55666" lon="4.53729">
        <ele>519</ele>
        <time>2013-09-22T07:20:40Z</time>
      </trkpt>
      <trkpt lat="45.55665" lon="4.53742">
        <ele>517</ele>
        <time>2013-09-22T07:20:43Z</time>
      </trkpt>
      <trkpt lat="45.55664" lon="4.53756">
        <ele>516</ele>
        <time>2013-09-22T07:20:46Z</time>
      </trkpt>
      <trkpt lat="45.55662" lon="4.53769">
        <ele>515</ele>
        <time>2013-09-22T07:20:49Z</time>
      </trkpt>
      <trkpt lat="45.55664" lon="4.53784">
        <ele>514</ele>
        <time>2013-09-22T07:20:52Z</time>
      </trkpt>
      <trkpt lat="45.55667" lon="4.53797">
        <ele>513</ele>
        <time>2013-09-22T07:20:55Z</time>
      </trkpt>
      <trkpt lat="45.55671" lon="4.5381">
        <ele>513</ele>
        <time>2013-09-22T07:20:58Z</time>
      </trkpt>
      <trkpt lat="45.55674" lon="4.53822">
        <ele>513</ele>
        <time>2013-09-22T07:21:01Z</time>
      </trkpt>
      <trkpt lat="45.55677" lon="4.53839">
        <ele>513</ele>
        <time>2013-09-22T07:21:05Z</time>
      </trkpt>
      <trkpt lat="45.5568" lon="4.53852">
        <ele>513</ele>
        <time>2013-09-22T07:21:08Z</time>
      </trkpt>
      <trkpt lat="45.55681" lon="4.53865">
        <ele>512</ele>
        <time>2013-09-22T07:21:11Z</time>
      </trkpt>
      <trkpt lat="45.55678" lon="4.53879">
        <ele>512</ele>
        <time>2013-09-22T07:21:14Z</time>
      </trkpt>
      <trkpt lat="45.55674" lon="4.53892">
        <ele>511</ele>
        <time>2013-09-22T07:21:17Z</time>
      </trkpt>
      <trkpt lat="45.5567" lon="4.53904">
        <ele>511</ele>
        <time>2013-09-22T07:21:20Z</time>
      </trkpt>
      <trkpt lat="45.55666" lon="4.53915">
        <ele>511</ele>
        <time>2013-09-22T07:21:23Z</time>
      </trkpt>
      <trkpt lat="45.55662" lon="4.53927">
        <ele>511</ele>
        <time>2013-09-22T07:21:26Z</time>
      </trkpt>
      <trkpt lat="45.55657" lon="4.53936">
        <ele>511</ele>
        <time>2013-09-22T07:21:29Z</time>
      </trkpt>
      <trkpt lat="45.55648" lon="4.53942">
        <ele>511</ele>
        <time>2013-09-22T07:21:32Z</time>
      </trkpt>
      <trkpt lat="45.55639" lon="4.53945">
        <ele>511</ele>
        <time>2013-09-22T07:21:35Z</time>
      </trkpt>
      <trkpt lat="45.55631" lon="4.53947">
        <ele>511</ele>
        <time>2013-09-22T07:21:38Z</time>
      </trkpt>
      <trkpt lat="45.55623" lon="4.53949">
        <ele>510</ele>
        <time>2013-09-22T07:21:41Z</time>
      </trkpt>
      <trkpt lat="45.55615" lon="4.53953">
        <ele>510</ele>
        <time>2013-09-22T07:21:44Z</time>
      </trkpt>
      <trkpt lat="45.55606" lon="4.53958">
        <ele>510</ele>
        <time>2013-09-22T07:21:47Z</time>
      </trkpt>
      <trkpt lat="45.55597" lon="4.53964">
        <ele>510</ele>
        <time>2013-09-22T07:21:50Z</time>
      </trkpt>
      <trkpt lat="45.5559" lon="4.53968">
        <ele>512</ele>
        <time>2013-09-22T07:21:53Z</time>
      </trkpt>
      <trkpt lat="45.55583" lon="4.5397">
        <ele>513</ele>
        <time>2013-09-22T07:21:56Z</time>
      </trkpt>
      <trkpt lat="45.55576" lon="4.53972">
        <ele>514</ele>
        <time>2013-09-22T07:21:59Z</time>
      </trkpt>
      <trkpt lat="45.55568" lon="4.53976">
        <ele>515</ele>
        <time>2013-09-22T07:22:02Z</time>
      </trkpt>
      <trkpt lat="45.55561" lon="4.53978">
        <ele>517</ele>
        <time>2013-09-22T07:22:05Z</time>
      </trkpt>
      <trkpt lat="45.55553" lon="4.5398">
        <ele>519</ele>
        <time>2013-09-22T07:22:08Z</time>
      </trkpt>
      <trkpt lat="45.55546" lon="4.53981">
        <ele>520</ele>
        <time>2013-09-22T07:22:11Z</time>
      </trkpt>
      <trkpt lat="45.55539" lon="4.53986">
        <ele>520</ele>
        <time>2013-09-22T07:22:14Z</time>
      </trkpt>
      <trkpt lat="45.55532" lon="4.53987">
        <ele>521</ele>
        <time>2013-09-22T07:22:17Z</time>
      </trkpt>
      <trkpt lat="45.55525" lon="4.53987">
        <ele>521</ele>
        <time>2013-09-22T07:22:20Z</time>
      </trkpt>
      <trkpt lat="45.55519" lon="4.53988">
        <ele>521</ele>
        <time>2013-09-22T07:22:23Z</time>
      </trkpt>
      <trkpt lat="45.55513" lon="4.53989">
        <ele>522</ele>
        <time>2013-09-22T07:22:26Z</time>
      </trkpt>
      <trkpt lat="45.55507" lon="4.53989">
        <ele>523</ele>
        <time>2013-09-22T07:22:29Z</time>
      </trkpt>
      <trkpt lat="45.55499" lon="4.53989">
        <ele>524</ele>
        <time>2013-09-22T07:22:33Z</time>
      </trkpt>
      <trkpt lat="45.55494" lon="4.53991">
        <ele>525</ele>
        <time>2013-09-22T07:22:36Z</time>
      </trkpt>
      <trkpt lat="45.55488" lon="4.53993">
        <ele>526</ele>
        <time>2013-09-22T07:22:39Z</time>
      </trkpt>
      <trkpt lat="45.55483" lon="4.53992">
        <ele>527</ele>
        <time>2013-09-22T07:22:42Z</time>
      </trkpt>
      <trkpt lat="45.55478" lon="4.53989">
        <ele>528</ele>
        <time>2013-09-22T07:22:45Z</time>
      </trkpt>
      <trkpt lat="45.55471" lon="4.53988">
        <ele>528</ele>
        <time>2013-09-22T07:22:48Z</time>
      </trkpt>
      <trkpt lat="45.55465" lon="4.53985">
        <ele>529</ele>
        <time>2013-09-22T07:22:51Z</time>
      </trkpt>
      <trkpt lat="45.55459" lon="4.53984">
        <ele>530</ele>
        <time>2013-09-22T07:22:54Z</time>
      </trkpt>
      <trkpt lat="45.55451" lon="4.53983">
        <ele>531</ele>
        <time>2013-09-22T07:22:57Z</time>
      </trkpt>
      <trkpt lat="45.55444" lon="4.53982">
        <ele>532</ele>
        <time>2013-09-22T07:23:00Z</time>
      </trkpt>
      <trkpt lat="45.55436" lon="4.53982">
        <ele>532</ele>
        <time>2013-09-22T07:23:03Z</time>
      </trkpt>
      <trkpt lat="45.55429" lon="4.53982">
        <ele>533</ele>
        <time>2013-09-22T07:23:06Z</time>
      </trkpt>
      <trkpt lat="45.55421" lon="4.53982">
        <ele>533</ele>
        <time>2013-09-22T07:23:09Z</time>
      </trkpt>
      <trkpt lat="45.55414" lon="4.53983">
        <ele>533</ele>
        <time>2013-09-22T07:23:12Z</time>
      </trkpt>
      <trkpt lat="45.55406" lon="4.53982">
        <ele>533</ele>
        <time>2013-09-22T07:23:15Z</time>
      </trkpt>
      <trkpt lat="45.55399" lon="4.53981">
        <ele>533</ele>
        <time>2013-09-22T07:23:18Z</time>
      </trkpt>
      <trkpt lat="45.55392" lon="4.53982">
        <ele>533</ele>
        <time>2013-09-22T07:23:21Z</time>
      </trkpt>
      <trkpt lat="45.55384" lon="4.53979">
        <ele>533</ele>
        <time>2013-09-22T07:23:24Z</time>
      </trkpt>
      <trkpt lat="45.55378" lon="4.53973">
        <ele>533</ele>
        <time>2013-09-22T07:23:27Z</time>
      </trkpt>
      <trkpt lat="45.55371" lon="4.53965">
        <ele>533</ele>
        <time>2013-09-22T07:23:30Z</time>
      </trkpt>
      <trkpt lat="45.55364" lon="4.53957">
        <ele>533</ele>
        <time>2013-09-22T07:23:33Z</time>
      </trkpt>
      <trkpt lat="45.55357" lon="4.53951">
        <ele>533</ele>
        <time>2013-09-22T07:23:36Z</time>
      </trkpt>
      <trkpt lat="45.5535" lon="4.53948">
        <ele>533</ele>
        <time>2013-09-22T07:23:39Z</time>
      </trkpt>
      <trkpt lat="45.55344" lon="4.53952">
        <ele>532</ele>
        <time>2013-09-22T07:23:42Z</time>
      </trkpt>
      <trkpt lat="45.55337" lon="4.53957">
        <ele>531</ele>
        <time>2013-09-22T07:23:45Z</time>
      </trkpt>
      <trkpt lat="45.5533" lon="4.53961">
        <ele>531</ele>
        <time>2013-09-22T07:23:48Z</time>
      </trkpt>
      <trkpt lat="45.55322" lon="4.53967">
        <ele>529</ele>
        <time>2013-09-22T07:23:51Z</time>
      </trkpt>
      <trkpt lat="45.55311" lon="4.53974">
        <ele>528</ele>
        <time>2013-09-22T07:23:55Z</time>
      </trkpt>
      <trkpt lat="45.55305" lon="4.53978">
        <ele>526</ele>
        <time>2013-09-22T07:23:58Z</time>
      </trkpt>
      <trkpt lat="45.553" lon="4.53982">
        <ele>525</ele>
        <time>2013-09-22T07:24:01Z</time>
      </trkpt>
      <trkpt lat="45.55291" lon="4.5398">
        <ele>523</ele>
        <time>2013-09-22T07:24:04Z</time>
      </trkpt>
      <trkpt lat="45.55282" lon="4.53978">
        <ele>521</ele>
        <time>2013-09-22T07:24:07Z</time>
      </trkpt>
      <trkpt lat="45.55273" lon="4.53976">
        <ele>519</ele>
        <time>2013-09-22T07:24:10Z</time>
      </trkpt>
      <trkpt lat="45.55263" lon="4.53973">
        <ele>517</ele>
        <time>2013-09-22T07:24:13Z</time>
      </trkpt>
      <trkpt lat="45.55253" lon="4.53969">
        <ele>515</ele>
        <time>2013-09-22T07:24:16Z</time>
      </trkpt>
      <trkpt lat="45.55244" lon="4.53964">
        <ele>513</ele>
        <time>2013-09-22T07:24:19Z</time>
      </trkpt>
      <trkpt lat="45.55236" lon="4.53959">
        <ele>510</ele>
        <time>2013-09-22T07:24:22Z</time>
      </trkpt>
      <trkpt lat="45.55228" lon="4.53953">
        <ele>507</ele>
        <time>2013-09-22T07:24:25Z</time>
      </trkpt>
      <trkpt lat="45.5522" lon="4.53948">
        <ele>504</ele>
        <time>2013-09-22T07:24:28Z</time>
      </trkpt>
      <trkpt lat="45.55214" lon="4.53944">
        <ele>502</ele>
        <time>2013-09-22T07:24:31Z</time>
      </trkpt>
      <trkpt lat="45.5521" lon="4.53939">
        <ele>499</ele>
        <time>2013-09-22T07:24:34Z</time>
      </trkpt>
      <trkpt lat="45.55207" lon="4.53939">
        <ele>497</ele>
        <time>2013-09-22T07:24:37Z</time>
      </trkpt>
      <trkpt lat="45.552" lon="4.5395">
        <ele>496</ele>
        <time>2013-09-22T07:24:40Z</time>
      </trkpt>
      <trkpt lat="45.55193" lon="4.53961">
        <ele>495</ele>
        <time>2013-09-22T07:24:43Z</time>
      </trkpt>
      <trkpt lat="45.55188" lon="4.5397">
        <ele>495</ele>
        <time>2013-09-22T07:24:46Z</time>
      </trkpt>
      <trkpt lat="45.55183" lon="4.53982">
        <ele>495</ele>
        <time>2013-09-22T07:24:49Z</time>
      </trkpt>
      <trkpt lat="45.5518" lon="4.53993">
        <ele>495</ele>
        <time>2013-09-22T07:24:52Z</time>
      </trkpt>
      <trkpt lat="45.55179" lon="4.54005">
        <ele>495</ele>
        <time>2013-09-22T07:24:55Z</time>
      </trkpt>
      <trkpt lat="45.5518" lon="4.54016">
        <ele>495</ele>
        <time>2013-09-22T07:24:58Z</time>
      </trkpt>
      <trkpt lat="45.55178" lon="4.54027">
        <ele>495</ele>
        <time>2013-09-22T07:25:01Z</time>
      </trkpt>
      <trkpt lat="45.55178" lon="4.54039">
        <ele>495</ele>
        <time>2013-09-22T07:25:04Z</time>
      </trkpt>
      <trkpt lat="45.55178" lon="4.54052">
        <ele>495</ele>
        <time>2013-09-22T07:25:07Z</time>
      </trkpt>
      <trkpt lat="45.55179" lon="4.54066">
        <ele>495</ele>
        <time>2013-09-22T07:25:10Z</time>
      </trkpt>
      <trkpt lat="45.55178" lon="4.54082">
        <ele>495</ele>
        <time>2013-09-22T07:25:13Z</time>
      </trkpt>
      <trkpt lat="45.55175" lon="4.54102">
        <ele>495</ele>
        <time>2013-09-22T07:25:17Z</time>
      </trkpt>
      <trkpt lat="45.55174" lon="4.54116">
        <ele>495</ele>
        <time>2013-09-22T07:25:20Z</time>
      </trkpt>
      <trkpt lat="45.55173" lon="4.54129">
        <ele>495</ele>
        <time>2013-09-22T07:25:23Z</time>
      </trkpt>
      <trkpt lat="45.55168" lon="4.54138">
        <ele>495</ele>
        <time>2013-09-22T07:25:26Z</time>
      </trkpt>
      <trkpt lat="45.55159" lon="4.54143">
        <ele>495</ele>
        <time>2013-09-22T07:25:29Z</time>
      </trkpt>
      <trkpt lat="45.55151" lon="4.54149">
        <ele>495</ele>
        <time>2013-09-22T07:25:32Z</time>
      </trkpt>
      <trkpt lat="45.55143" lon="4.54154">
        <ele>495</ele>
        <time>2013-09-22T07:25:35Z</time>
      </trkpt>
      <trkpt lat="45.55134" lon="4.54158">
        <ele>494</ele>
        <time>2013-09-22T07:25:38Z</time>
      </trkpt>
      <trkpt lat="45.55126" lon="4.54162">
        <ele>493</ele>
        <time>2013-09-22T07:25:41Z</time>
      </trkpt>
      <trkpt lat="45.55119" lon="4.54168">
        <ele>491</ele>
        <time>2013-09-22T07:25:44Z</time>
      </trkpt>
      <trkpt lat="45.5511" lon="4.54173">
        <ele>490</ele>
        <time>2013-09-22T07:25:47Z</time>
      </trkpt>
      <trkpt lat="45.55101" lon="4.54178">
        <ele>489</ele>
        <time>2013-09-22T07:25:50Z</time>
      </trkpt>
      <trkpt lat="45.55093" lon="4.54185">
        <ele>487</ele>
        <time>2013-09-22T07:25:53Z</time>
      </trkpt>
      <trkpt lat="45.55085" lon="4.5419">
        <ele>486</ele>
        <time>2013-09-22T07:25:56Z</time>
      </trkpt>
      <trkpt lat="45.55075" lon="4.54191">
        <ele>485</ele>
        <time>2013-09-22T07:25:59Z</time>
      </trkpt>
      <trkpt lat="45.55066" lon="4.54192">
        <ele>484</ele>
        <time>2013-09-22T07:26:02Z</time>
      </trkpt>
      <trkpt lat="45.55058" lon="4.54192">
        <ele>482</ele>
        <time>2013-09-22T07:26:05Z</time>
      </trkpt>
      <trkpt lat="45.5505" lon="4.54194">
        <ele>481</ele>
        <time>2013-09-22T07:26:08Z</time>
      </trkpt>
      <trkpt lat="45.55039" lon="4.54198">
        <ele>481</ele>
        <time>2013-09-22T07:26:11Z</time>
      </trkpt>
      <trkpt lat="45.55032" lon="4.54206">
        <ele>480</ele>
        <time>2013-09-22T07:26:14Z</time>
      </trkpt>
      <trkpt lat="45.55027" lon="4.54217">
        <ele>480</ele>
        <time>2013-09-22T07:26:17Z</time>
      </trkpt>
      <trkpt lat="45.55023" lon="4.54227">
        <ele>480</ele>
        <time>2013-09-22T07:26:20Z</time>
      </trkpt>
      <trkpt lat="45.55019" lon="4.54235">
        <ele>480</ele>
        <time>2013-09-22T07:26:23Z</time>
      </trkpt>
      <trkpt lat="45.55016" lon="4.54245">
        <ele>480</ele>
        <time>2013-09-22T07:26:26Z</time>
      </trkpt>
      <trkpt lat="45.55011" lon="4.54254">
        <ele>480</ele>
        <time>2013-09-22T07:26:29Z</time>
      </trkpt>
      <trkpt lat="45.55004" lon="4.54259">
        <ele>480</ele>
        <time>2013-09-22T07:26:32Z</time>
      </trkpt>
      <trkpt lat="45.54996" lon="4.54261">
        <ele>480</ele>
        <time>2013-09-22T07:26:35Z</time>
      </trkpt>
      <trkpt lat="45.54988" lon="4.54261">
        <ele>480</ele>
        <time>2013-09-22T07:26:38Z</time>
      </trkpt>
      <trkpt lat="45.54979" lon="4.5426">
        <ele>480</ele>
        <time>2013-09-22T07:26:42Z</time>
      </trkpt>
      <trkpt lat="45.54971" lon="4.54257">
        <ele>480</ele>
        <time>2013-09-22T07:26:45Z</time>
      </trkpt>
      <trkpt lat="45.54962" lon="4.54254">
        <ele>479</ele>
        <time>2013-09-22T07:26:48Z</time>
      </trkpt>
      <trkpt lat="45.54953" lon="4.54255">
        <ele>479</ele>
        <time>2013-09-22T07:26:51Z</time>
      </trkpt>
      <trkpt lat="45.54944" lon="4.54256">
        <ele>478</ele>
        <time>2013-09-22T07:26:54Z</time>
      </trkpt>
      <trkpt lat="45.54934" lon="4.54255">
        <ele>478</ele>
        <time>2013-09-22T07:26:57Z</time>
      </trkpt>
      <trkpt lat="45.54926" lon="4.54255">
        <ele>478</ele>
        <time>2013-09-22T07:27:00Z</time>
      </trkpt>
      <trkpt lat="45.54917" lon="4.54258">
        <ele>478</ele>
        <time>2013-09-22T07:27:03Z</time>
      </trkpt>
      <trkpt lat="45.54907" lon="4.5426">
        <ele>478</ele>
        <time>2013-09-22T07:27:06Z</time>
      </trkpt>
      <trkpt lat="45.54898" lon="4.54262">
        <ele>478</ele>
        <time>2013-09-22T07:27:09Z</time>
      </trkpt>
      <trkpt lat="45.5489" lon="4.54264">
        <ele>478</ele>
        <time>2013-09-22T07:27:12Z</time>
      </trkpt>
      <trkpt lat="45.54881" lon="4.54265">
        <ele>478</ele>
        <time>2013-09-22T07:27:15Z</time>
      </trkpt>
      <trkpt lat="45.54872" lon="4.54268">
        <ele>478</ele>
        <time>2013-09-22T07:27:18Z</time>
      </trkpt>
      <trkpt lat="45.54863" lon="4.5427">
        <ele>478</ele>
        <time>2013-09-22T07:27:21Z</time>
      </trkpt>
      <trkpt lat="45.54855" lon="4.54273">
        <ele>478</ele>
        <time>2013-09-22T07:27:24Z</time>
      </trkpt>
      <trkpt lat="45.54846" lon="4.54276">
        <ele>478</ele>
        <time>2013-09-22T07:27:27Z</time>
      </trkpt>
      <trkpt lat="45.54836" lon="4.54277">
        <ele>477</ele>
        <time>2013-09-22T07:27:30Z</time>
      </trkpt>
      <trkpt lat="45.54826" lon="4.54275">
        <ele>476</ele>
        <time>2013-09-22T07:27:33Z</time>
      </trkpt>
      <trkpt lat="45.54818" lon="4.54273">
        <ele>476</ele>
        <time>2013-09-22T07:27:36Z</time>
      </trkpt>
      <trkpt lat="45.54808" lon="4.5427">
        <ele>476</ele>
        <time>2013-09-22T07:27:39Z</time>
      </trkpt>
      <trkpt lat="45.54799" lon="4.54267">
        <ele>475</ele>
        <time>2013-09-22T07:27:42Z</time>
      </trkpt>
      <trkpt lat="45.54789" lon="4.54264">
        <ele>475</ele>
        <time>2013-09-22T07:27:45Z</time>
      </trkpt>
      <trkpt lat="45.54779" lon="4.54261">
        <ele>475</ele>
        <time>2013-09-22T07:27:48Z</time>
      </trkpt>
      <trkpt lat="45.5477" lon="4.54259">
        <ele>475</ele>
        <time>2013-09-22T07:27:51Z</time>
      </trkpt>
      <trkpt lat="45.5476" lon="4.54257">
        <ele>475</ele>
        <time>2013-09-22T07:27:54Z</time>
      </trkpt>
      <trkpt lat="45.5475" lon="4.54255">
        <ele>474</ele>
        <time>2013-09-22T07:27:57Z</time>
      </trkpt>
      <trkpt lat="45.5474" lon="4.54253">
        <ele>473</ele>
        <time>2013-09-22T07:28:00Z</time>
      </trkpt>
      <trkpt lat="45.54732" lon="4.54252">
        <ele>472</ele>
        <time>2013-09-22T07:28:03Z</time>
      </trkpt>
      <trkpt lat="45.5472" lon="4.54252">
        <ele>470</ele>
        <time>2013-09-22T07:28:07Z</time>
      </trkpt>
      <trkpt lat="45.54711" lon="4.54255">
        <ele>470</ele>
        <time>2013-09-22T07:28:10Z</time>
      </trkpt>
      <trkpt lat="45.54702" lon="4.54259">
        <ele>470</ele>
        <time>2013-09-22T07:28:13Z</time>
      </trkpt>
      <trkpt lat="45.54692" lon="4.54264">
        <ele>470</ele>
        <time>2013-09-22T07:28:16Z</time>
      </trkpt>
      <trkpt lat="45.54684" lon="4.54269">
        <ele>469</ele>
        <time>2013-09-22T07:28:19Z</time>
      </trkpt>
      <trkpt lat="45.54675" lon="4.54276">
        <ele>468</ele>
        <time>2013-09-22T07:28:22Z</time>
      </trkpt>
      <trkpt lat="45.54664" lon="4.54278">
        <ele>468</ele>
        <time>2013-09-22T07:28:25Z</time>
      </trkpt>
      <trkpt lat="45.54655" lon="4.54282">
        <ele>467</ele>
        <time>2013-09-22T07:28:28Z</time>
      </trkpt>
      <trkpt lat="45.54646" lon="4.54284">
        <ele>465</ele>
        <time>2013-09-22T07:28:31Z</time>
      </trkpt>
      <trkpt lat="45.54638" lon="4.54288">
        <ele>464</ele>
        <time>2013-09-22T07:28:34Z</time>
      </trkpt>
      <trkpt lat="45.5463" lon="4.54291">
        <ele>463</ele>
        <time>2013-09-22T07:28:37Z</time>
      </trkpt>
      <trkpt lat="45.54622" lon="4.54297">
        <ele>462</ele>
        <time>2013-09-22T07:28:40Z</time>
      </trkpt>
      <trkpt lat="45.54614" lon="4.54303">
        <ele>461</ele>
        <time>2013-09-22T07:28:43Z</time>
      </trkpt>
      <trkpt lat="45.54607" lon="4.54308">
        <ele>459</ele>
        <time>2013-09-22T07:28:46Z</time>
      </trkpt>
      <trkpt lat="45.54599" lon="4.54315">
        <ele>457</ele>
        <time>2013-09-22T07:28:49Z</time>
      </trkpt>
      <trkpt lat="45.54591" lon="4.54319">
        <ele>456</ele>
        <time>2013-09-22T07:28:52Z</time>
      </trkpt>
      <trkpt lat="45.54581" lon="4.54323">
        <ele>454</ele>
        <time>2013-09-22T07:28:55Z</time>
      </trkpt>
      <trkpt lat="45.54573" lon="4.54327">
        <ele>452</ele>
        <time>2013-09-22T07:28:58Z</time>
      </trkpt>
      <trkpt lat="45.54565" lon="4.54332">
        <ele>450</ele>
        <time>2013-09-22T07:29:01Z</time>
      </trkpt>
      <trkpt lat="45.54555" lon="4.54336">
        <ele>448</ele>
        <time>2013-09-22T07:29:04Z</time>
      </trkpt>
      <trkpt lat="45.54546" lon="4.5434">
        <ele>446</ele>
        <time>2013-09-22T07:29:07Z</time>
      </trkpt>
      <trkpt lat="45.54536" lon="4.54344">
        <ele>444</ele>
        <time>2013-09-22T07:29:10Z</time>
      </trkpt>
      <trkpt lat="45.54527" lon="4.54346">
        <ele>442</ele>
        <time>2013-09-22T07:29:13Z</time>
      </trkpt>
      <trkpt lat="45.54518" lon="4.5435">
        <ele>440</ele>
        <time>2013-09-22T07:29:16Z</time>
      </trkpt>
      <trkpt lat="45.54506" lon="4.54354">
        <ele>438</ele>
        <time>2013-09-22T07:29:19Z</time>
      </trkpt>
      <trkpt lat="45.54496" lon="4.54356">
        <ele>435</ele>
        <time>2013-09-22T07:29:22Z</time>
      </trkpt>
      <trkpt lat="45.54485" lon="4.5436">
        <ele>433</ele>
        <time>2013-09-22T07:29:25Z</time>
      </trkpt>
      <trkpt lat="45.54473" lon="4.54367">
        <ele>431</ele>
        <time>2013-09-22T07:29:29Z</time>
      </trkpt>
      <trkpt lat="45.54464" lon="4.54375">
        <ele>429</ele>
        <time>2013-09-22T07:29:32Z</time>
      </trkpt>
      <trkpt lat="45.54457" lon="4.54386">
        <ele>429</ele>
        <time>2013-09-22T07:29:35Z</time>
      </trkpt>
      <trkpt lat="45.54451" lon="4.54399">
        <ele>429</ele>
        <time>2013-09-22T07:29:38Z</time>
      </trkpt>
      <trkpt lat="45.54448" lon="4.54413">
        <ele>429</ele>
        <time>2013-09-22T07:29:41Z</time>
      </trkpt>
      <trkpt lat="45.54445" lon="4.54427">
        <ele>429</ele>
        <time>2013-09-22T07:29:44Z</time>
      </trkpt>
      <trkpt lat="45.54436" lon="4.54428">
        <ele>428</ele>
        <time>2013-09-22T07:29:47Z</time>
      </trkpt>
      <trkpt lat="45.54426" lon="4.54425">
        <ele>427</ele>
        <time>2013-09-22T07:29:50Z</time>
      </trkpt>
      <trkpt lat="45.54418" lon="4.54416">
        <ele>426</ele>
        <time>2013-09-22T07:29:53Z</time>
      </trkpt>
      <trkpt lat="45.54417" lon="4.54401">
        <ele>425</ele>
        <time>2013-09-22T07:29:56Z</time>
      </trkpt>
      <trkpt lat="45.54415" lon="4.54387">
        <ele>423</ele>
        <time>2013-09-22T07:29:59Z</time>
      </trkpt>
      <trkpt lat="45.54412" lon="4.54373">
        <ele>422</ele>
        <time>2013-09-22T07:30:02Z</time>
      </trkpt>
      <trkpt lat="45.54409" lon="4.54358">
        <ele>421</ele>
        <time>2013-09-22T07:30:05Z</time>
      </trkpt>
      <trkpt lat="45.54409" lon="4.54345">
        <ele>421</ele>
        <time>2013-09-22T07:30:08Z</time>
      </trkpt>
      <trkpt lat="45.54409" lon="4.54331">
        <ele>420</ele>
        <time>2013-09-22T07:30:11Z</time>
      </trkpt>
      <trkpt lat="45.54409" lon="4.54318">
        <ele>419</ele>
        <time>2013-09-22T07:30:14Z</time>
      </trkpt>
      <trkpt lat="45.54409" lon="4.54305">
        <ele>418</ele>
        <time>2013-09-22T07:30:17Z</time>
      </trkpt>
      <trkpt lat="45.54406" lon="4.54293">
        <ele>417</ele>
        <time>2013-09-22T07:30:20Z</time>
      </trkpt>
      <trkpt lat="45.54403" lon="4.54282">
        <ele>417</ele>
        <time>2013-09-22T07:30:23Z</time>
      </trkpt>
      <trkpt lat="45.54399" lon="4.5427">
        <ele>417</ele>
        <time>2013-09-22T07:30:26Z</time>
      </trkpt>
      <trkpt lat="45.54396" lon="4.54259">
        <ele>417</ele>
        <time>2013-09-22T07:30:29Z</time>
      </trkpt>
      <trkpt lat="45.54395" lon="4.54247">
        <ele>417</ele>
        <time>2013-09-22T07:30:32Z</time>
      </trkpt>
      <trkpt lat="45.54396" lon="4.54235">
        <ele>417</ele>
        <time>2013-09-22T07:30:35Z</time>
      </trkpt>
      <trkpt lat="45.54396" lon="4.54223">
        <ele>417</ele>
        <time>2013-09-22T07:30:38Z</time>
      </trkpt>
      <trkpt lat="45.54397" lon="4.54212">
        <ele>417</ele>
        <time>2013-09-22T07:30:41Z</time>
      </trkpt>
      <trkpt lat="45.54398" lon="4.54202">
        <ele>418</ele>
        <time>2013-09-22T07:30:44Z</time>
      </trkpt>
      <trkpt lat="45.544" lon="4.54192">
        <ele>420</ele>
        <time>2013-09-22T07:30:47Z</time>
      </trkpt>
      <trkpt lat="45.54402" lon="4.54181">
        <ele>421</ele>
        <time>2013-09-22T07:30:51Z</time>
      </trkpt>
      <trkpt lat="45.54403" lon="4.54173">
        <ele>421</ele>
        <time>2013-09-22T07:30:54Z</time>
      </trkpt>
      <trkpt lat="45.54408" lon="4.54167">
        <ele>421</ele>
        <time>2013-09-22T07:30:57Z</time>
      </trkpt>
      <trkpt lat="45.54415" lon="4.54165">
        <ele>422</ele>
        <time>2013-09-22T07:31:00Z</time>
      </trkpt>
      <trkpt lat="45.54421" lon="4.54165">
        <ele>423</ele>
        <time>2013-09-22T07:31:03Z</time>
      </trkpt>
      <trkpt lat="45.5443" lon="4.54165">
        <ele>423</ele>
        <time>2013-09-22T07:31:06Z</time>
      </trkpt>
      <trkpt lat="45.54439" lon="4.54166">
        <ele>423</ele>
        <time>2013-09-22T07:31:09Z</time>
      </trkpt>
      <trkpt lat="45.54447" lon="4.54165">
        <ele>424</ele>
        <time>2013-09-22T07:31:12Z</time>
      </trkpt>
      <trkpt lat="45.54455" lon="4.54163">
        <ele>424</ele>
        <time>2013-09-22T07:31:15Z</time>
      </trkpt>
      <trkpt lat="45.54463" lon="4.54159">
        <ele>425</ele>
        <time>2013-09-22T07:31:18Z</time>
      </trkpt>
      <trkpt lat="45.54472" lon="4.54154">
        <ele>425</ele>
        <time>2013-09-22T07:31:21Z</time>
      </trkpt>
      <trkpt lat="45.54481" lon="4.5415">
        <ele>425</ele>
        <time>2013-09-22T07:31:24Z</time>
      </trkpt>
      <trkpt lat="45.54491" lon="4.54148">
        <ele>425</ele>
        <time>2013-09-22T07:31:27Z</time>
      </trkpt>
      <trkpt lat="45.54499" lon="4.54144">
        <ele>425</ele>
        <time>2013-09-22T07:31:30Z</time>
      </trkpt>
      <trkpt lat="45.54508" lon="4.5414">
        <ele>425</ele>
        <time>2013-09-22T07:31:33Z</time>
      </trkpt>
      <trkpt lat="45.54513" lon="4.54136">
        <ele>423</ele>
        <time>2013-09-22T07:31:36Z</time>
      </trkpt>
      <trkpt lat="45.5452" lon="4.5413">
        <ele>420</ele>
        <time>2013-09-22T07:31:39Z</time>
      </trkpt>
      <trkpt lat="45.54528" lon="4.54123">
        <ele>419</ele>
        <time>2013-09-22T07:31:42Z</time>
      </trkpt>
      <trkpt lat="45.54533" lon="4.54114">
        <ele>416</ele>
        <time>2013-09-22T07:31:45Z</time>
      </trkpt>
      <trkpt lat="45.54539" lon="4.54105">
        <ele>413</ele>
        <time>2013-09-22T07:31:48Z</time>
      </trkpt>
      <trkpt lat="45.54546" lon="4.54095">
        <ele>410</ele>
        <time>2013-09-22T07:31:51Z</time>
      </trkpt>
      <trkpt lat="45.54553" lon="4.54086">
        <ele>407</ele>
        <time>2013-09-22T07:31:54Z</time>
      </trkpt>
      <trkpt lat="45.54558" lon="4.54074">
        <ele>405</ele>
        <time>2013-09-22T07:31:57Z</time>
      </trkpt>
      <trkpt lat="45.5456" lon="4.54061">
        <ele>405</ele>
        <time>2013-09-22T07:32:00Z</time>
      </trkpt>
      <trkpt lat="45.54563" lon="4.54048">
        <ele>405</ele>
        <time>2013-09-22T07:32:03Z</time>
      </trkpt>
      <trkpt lat="45.54566" lon="4.54036">
        <ele>404</ele>
        <time>2013-09-22T07:32:06Z</time>
      </trkpt>
      <trkpt lat="45.54568" lon="4.54024">
        <ele>403</ele>
        <time>2013-09-22T07:32:09Z</time>
      </trkpt>
      <trkpt lat="45.54571" lon="4.54011">
        <ele>403</ele>
        <time>2013-09-22T07:32:12Z</time>
      </trkpt>
      <trkpt lat="45.54574" lon="4.54">
        <ele>403</ele>
        <time>2013-09-22T07:32:15Z</time>
      </trkpt>
      <trkpt lat="45.54578" lon="4.53993">
        <ele>402</ele>
        <time>2013-09-22T07:32:18Z</time>
      </trkpt>
      <trkpt lat="45.54585" lon="4.53987">
        <ele>400</ele>
        <time>2013-09-22T07:32:21Z</time>
      </trkpt>
      <trkpt lat="45.54591" lon="4.53979">
        <ele>398</ele>
        <time>2013-09-22T07:32:24Z</time>
      </trkpt>
      <trkpt lat="45.546" lon="4.53972">
        <ele>396</ele>
        <time>2013-09-22T07:32:27Z</time>
      </trkpt>
      <trkpt lat="45.54609" lon="4.53965">
        <ele>393</ele>
        <time>2013-09-22T07:32:30Z</time>
      </trkpt>
      <trkpt lat="45.54615" lon="4.53957">
        <ele>393</ele>
        <time>2013-09-22T07:32:33Z</time>
      </trkpt>
      <trkpt lat="45.54622" lon="4.53949">
        <ele>393</ele>
        <time>2013-09-22T07:32:36Z</time>
      </trkpt>
      <trkpt lat="45.54627" lon="4.5394">
        <ele>393</ele>
        <time>2013-09-22T07:32:39Z</time>
      </trkpt>
      <trkpt lat="45.54634" lon="4.53933">
        <ele>393</ele>
        <time>2013-09-22T07:32:42Z</time>
      </trkpt>
      <trkpt lat="45.54641" lon="4.53924">
        <ele>393</ele>
        <time>2013-09-22T07:32:45Z</time>
      </trkpt>
      <trkpt lat="45.54647" lon="4.53917">
        <ele>393</ele>
        <time>2013-09-22T07:32:48Z</time>
      </trkpt>
      <trkpt lat="45.54651" lon="4.53909">
        <ele>393</ele>
        <time>2013-09-22T07:32:51Z</time>
      </trkpt>
      <trkpt lat="45.54654" lon="4.539">
        <ele>393</ele>
        <time>2013-09-22T07:32:54Z</time>
      </trkpt>
      <trkpt lat="45.54654" lon="4.53896">
        <ele>392</ele>
        <time>2013-09-22T07:32:58Z</time>
      </trkpt>
      <trkpt lat="45.54654" lon="4.5389">
        <ele>390</ele>
        <time>2013-09-22T07:33:01Z</time>
      </trkpt>
      <trkpt lat="45.54651" lon="4.53884">
        <ele>388</ele>
        <time>2013-09-22T07:33:04Z</time>
      </trkpt>
      <trkpt lat="45.54645" lon="4.53878">
        <ele>388</ele>
        <time>2013-09-22T07:33:07Z</time>
      </trkpt>
      <trkpt lat="45.5464" lon="4.53875">
        <ele>388</ele>
        <time>2013-09-22T07:33:10Z</time>
      </trkpt>
      <trkpt lat="45.54635" lon="4.53872">
        <ele>388</ele>
        <time>2013-09-22T07:33:13Z</time>
      </trkpt>
      <trkpt lat="45.54628" lon="4.5387">
        <ele>388</ele>
        <time>2013-09-22T07:33:16Z</time>
      </trkpt>
      <trkpt lat="45.54622" lon="4.53865">
        <ele>389</ele>
        <time>2013-09-22T07:33:19Z</time>
      </trkpt>
      <trkpt lat="45.54616" lon="4.53864">
        <ele>390</ele>
        <time>2013-09-22T07:33:22Z</time>
      </trkpt>
      <trkpt lat="45.5461" lon="4.53865">
        <ele>393</ele>
        <time>2013-09-22T07:33:25Z</time>
      </trkpt>
      <trkpt lat="45.54602" lon="4.53866">
        <ele>394</ele>
        <time>2013-09-22T07:33:28Z</time>
      </trkpt>
      <trkpt lat="45.54595" lon="4.53864">
        <ele>395</ele>
        <time>2013-09-22T07:33:31Z</time>
      </trkpt>
      <trkpt lat="45.54595" lon="4.53855">
        <ele>395</ele>
        <time>2013-09-22T07:33:34Z</time>
      </trkpt>
      <trkpt lat="45.54594" lon="4.53846">
        <ele>395</ele>
        <time>2013-09-22T07:33:37Z</time>
      </trkpt>
      <trkpt lat="45.54592" lon="4.53839">
        <ele>395</ele>
        <time>2013-09-22T07:33:40Z</time>
      </trkpt>
      <trkpt lat="45.5459" lon="4.53835">
        <ele>397</ele>
        <time>2013-09-22T07:33:44Z</time>
      </trkpt>
      <trkpt lat="45.54588" lon="4.5383">
        <ele>397</ele>
        <time>2013-09-22T07:33:47Z</time>
      </trkpt>
      <trkpt lat="45.54586" lon="4.53825">
        <ele>398</ele>
        <time>2013-09-22T07:33:50Z</time>
      </trkpt>
      <trkpt lat="45.54583" lon="4.53818">
        <ele>399</ele>
        <time>2013-09-22T07:33:53Z</time>
      </trkpt>
      <trkpt lat="45.5458" lon="4.53807">
        <ele>402</ele>
        <time>2013-09-22T07:33:56Z</time>
      </trkpt>
      <trkpt lat="45.54576" lon="4.53798">
        <ele>405</ele>
        <time>2013-09-22T07:33:59Z</time>
      </trkpt>
      <trkpt lat="45.54573" lon="4.53788">
        <ele>408</ele>
        <time>2013-09-22T07:34:02Z</time>
      </trkpt>
      <trkpt lat="45.54571" lon="4.53781">
        <ele>411</ele>
        <time>2013-09-22T07:34:05Z</time>
      </trkpt>
      <trkpt lat="45.5457" lon="4.53775">
        <ele>413</ele>
        <time>2013-09-22T07:34:08Z</time>
      </trkpt>
      <trkpt lat="45.5457" lon="4.53769">
        <ele>413</ele>
        <time>2013-09-22T07:34:11Z</time>
      </trkpt>
      <trkpt lat="45.54569" lon="4.53763">
        <ele>414</ele>
        <time>2013-09-22T07:34:14Z</time>
      </trkpt>
      <trkpt lat="45.54568" lon="4.53756">
        <ele>414</ele>
        <time>2013-09-22T07:34:17Z</time>
      </trkpt>
      <trkpt lat="45.54567" lon="4.53745">
        <ele>415</ele>
        <time>2013-09-22T07:34:20Z</time>
      </trkpt>
      <trkpt lat="45.54566" lon="4.53734">
        <ele>415</ele>
        <time>2013-09-22T07:34:23Z</time>
      </trkpt>
      <trkpt lat="45.54565" lon="4.53724">
        <ele>417</ele>
        <time>2013-09-22T07:34:26Z</time>
      </trkpt>
      <trkpt lat="45.54565" lon="4.53713">
        <ele>418</ele>
        <time>2013-09-22T07:34:29Z</time>
      </trkpt>
      <trkpt lat="45.54564" lon="4.53702">
        <ele>419</ele>
        <time>2013-09-22T07:34:32Z</time>
      </trkpt>
      <trkpt lat="45.54564" lon="4.53691">
        <ele>419</ele>
        <time>2013-09-22T07:34:35Z</time>
      </trkpt>
      <trkpt lat="45.54562" lon="4.53683">
        <ele>420</ele>
        <time>2013-09-22T07:34:38Z</time>
      </trkpt>
      <trkpt lat="45.54562" lon="4.53677">
        <ele>420</ele>
        <time>2013-09-22T07:34:41Z</time>
      </trkpt>
      <trkpt lat="45.54561" lon="4.53668">
        <ele>420</ele>
        <time>2013-09-22T07:34:44Z</time>
      </trkpt>
      <trkpt lat="45.54557" lon="4.53658">
        <ele>421</ele>
        <time>2013-09-22T07:34:47Z</time>
      </trkpt>
      <trkpt lat="45.54553" lon="4.53648">
        <ele>422</ele>
        <time>2013-09-22T07:34:50Z</time>
      </trkpt>
      <trkpt lat="45.54547" lon="4.53638">
        <ele>423</ele>
        <time>2013-09-22T07:34:53Z</time>
      </trkpt>
      <trkpt lat="45.54542" lon="4.53627">
        <ele>425</ele>
        <time>2013-09-22T07:34:56Z</time>
      </trkpt>
      <trkpt lat="45.54536" lon="4.53613">
        <ele>428</ele>
        <time>2013-09-22T07:35:00Z</time>
      </trkpt>
      <trkpt lat="45.54533" lon="4.53604">
        <ele>429</ele>
        <time>2013-09-22T07:35:03Z</time>
      </trkpt>
      <trkpt lat="45.54529" lon="4.53595">
        <ele>429</ele>
        <time>2013-09-22T07:35:06Z</time>
      </trkpt>
      <trkpt lat="45.54525" lon="4.53586">
        <ele>430</ele>
        <time>2013-09-22T07:35:09Z</time>
      </trkpt>
      <trkpt lat="45.54523" lon="4.53578">
        <ele>432</ele>
        <time>2013-09-22T07:35:12Z</time>
      </trkpt>
      <trkpt lat="45.54521" lon="4.53569">
        <ele>433</ele>
        <time>2013-09-22T07:35:15Z</time>
      </trkpt>
      <trkpt lat="45.54518" lon="4.53559">
        <ele>434</ele>
        <time>2013-09-22T07:35:18Z</time>
      </trkpt>
      <trkpt lat="45.54515" lon="4.5355">
        <ele>435</ele>
        <time>2013-09-22T07:35:21Z</time>
      </trkpt>
      <trkpt lat="45.54513" lon="4.53541">
        <ele>436</ele>
        <time>2013-09-22T07:35:24Z</time>
      </trkpt>
      <trkpt lat="45.5451" lon="4.53532">
        <ele>437</ele>
        <time>2013-09-22T07:35:27Z</time>
      </trkpt>
      <trkpt lat="45.54506" lon="4.53522">
        <ele>438</ele>
        <time>2013-09-22T07:35:30Z</time>
      </trkpt>
      <trkpt lat="45.54502" lon="4.53514">
        <ele>438</ele>
        <time>2013-09-22T07:35:33Z</time>
      </trkpt>
      <trkpt lat="45.545" lon="4.53505">
        <ele>439</ele>
        <time>2013-09-22T07:35:36Z</time>
      </trkpt>
      <trkpt lat="45.54497" lon="4.53495">
        <ele>440</ele>
        <time>2013-09-22T07:35:39Z</time>
      </trkpt>
      <trkpt lat="45.54494" lon="4.53485">
        <ele>441</ele>
        <time>2013-09-22T07:35:42Z</time>
      </trkpt>
      <trkpt lat="45.54491" lon="4.53477">
        <ele>441</ele>
        <time>2013-09-22T07:35:45Z</time>
      </trkpt>
      <trkpt lat="45.5449" lon="4.53467">
        <ele>441</ele>
        <time>2013-09-22T07:35:48Z</time>
      </trkpt>
      <trkpt lat="45.54487" lon="4.53457">
        <ele>441</ele>
        <time>2013-09-22T07:35:51Z</time>
      </trkpt>
      <trkpt lat="45.54483" lon="4.53447">
        <ele>441</ele>
        <time>2013-09-22T07:35:54Z</time>
      </trkpt>
      <trkpt lat="45.54481" lon="4.53436">
        <ele>441</ele>
        <time>2013-09-22T07:35:57Z</time>
      </trkpt>
      <trkpt lat="45.54477" lon="4.53426">
        <ele>441</ele>
        <time>2013-09-22T07:36:00Z</time>
      </trkpt>
      <trkpt lat="45.54471" lon="4.53426">
        <ele>441</ele>
        <time>2013-09-22T07:36:03Z</time>
      </trkpt>
      <trkpt lat="45.54463" lon="4.53429">
        <ele>441</ele>
        <time>2013-09-22T07:36:06Z</time>
      </trkpt>
      <trkpt lat="45.54455" lon="4.53431">
        <ele>441</ele>
        <time>2013-09-22T07:36:09Z</time>
      </trkpt>
      <trkpt lat="45.54446" lon="4.53434">
        <ele>441</ele>
        <time>2013-09-22T07:36:12Z</time>
      </trkpt>
      <trkpt lat="45.54438" lon="4.53437">
        <ele>441</ele>
        <time>2013-09-22T07:36:15Z</time>
      </trkpt>
      <trkpt lat="45.54429" lon="4.5344">
        <ele>440</ele>
        <time>2013-09-22T07:36:18Z</time>
      </trkpt>
      <trkpt lat="45.54417" lon="4.53443">
        <ele>440</ele>
        <time>2013-09-22T07:36:22Z</time>
      </trkpt>
      <trkpt lat="45.54409" lon="4.53446">
        <ele>439</ele>
        <time>2013-09-22T07:36:25Z</time>
      </trkpt>
      <trkpt lat="45.54401" lon="4.53448">
        <ele>438</ele>
        <time>2013-09-22T07:36:28Z</time>
      </trkpt>
      <trkpt lat="45.54392" lon="4.53446">
        <ele>437</ele>
        <time>2013-09-22T07:36:31Z</time>
      </trkpt>
      <trkpt lat="45.54384" lon="4.53442">
        <ele>436</ele>
        <time>2013-09-22T07:36:34Z</time>
      </trkpt>
      <trkpt lat="45.54375" lon="4.53438">
        <ele>435</ele>
        <time>2013-09-22T07:36:37Z</time>
      </trkpt>
      <trkpt lat="45.54366" lon="4.53434">
        <ele>433</ele>
        <time>2013-09-22T07:36:40Z</time>
      </trkpt>
      <trkpt lat="45.54357" lon="4.53431">
        <ele>430</ele>
        <time>2013-09-22T07:36:43Z</time>
      </trkpt>
      <trkpt lat="45.54348" lon="4.53428">
        <ele>428</ele>
        <time>2013-09-22T07:36:46Z</time>
      </trkpt>
      <trkpt lat="45.5434" lon="4.53425">
        <ele>426</ele>
        <time>2013-09-22T07:36:49Z</time>
      </trkpt>
      <trkpt lat="45.54333" lon="4.53421">
        <ele>425</ele>
        <time>2013-09-22T07:36:52Z</time>
      </trkpt>
      <trkpt lat="45.54325" lon="4.53418">
        <ele>425</ele>
        <time>2013-09-22T07:36:55Z</time>
      </trkpt>
      <trkpt lat="45.54318" lon="4.53416">
        <ele>425</ele>
        <time>2013-09-22T07:36:58Z</time>
      </trkpt>
      <trkpt lat="45.54311" lon="4.53413">
        <ele>423</ele>
        <time>2013-09-22T07:37:01Z</time>
      </trkpt>
      <trkpt lat="45.54304" lon="4.5341">
        <ele>422</ele>
        <time>2013-09-22T07:37:04Z</time>
      </trkpt>
      <trkpt lat="45.54298" lon="4.53408">
        <ele>420</ele>
        <time>2013-09-22T07:37:07Z</time>
      </trkpt>
      <trkpt lat="45.5429" lon="4.53407">
        <ele>419</ele>
        <time>2013-09-22T07:37:10Z</time>
      </trkpt>
      <trkpt lat="45.54282" lon="4.53405">
        <ele>418</ele>
        <time>2013-09-22T07:37:13Z</time>
      </trkpt>
      <trkpt lat="45.54275" lon="4.53405">
        <ele>417</ele>
        <time>2013-09-22T07:37:16Z</time>
      </trkpt>
      <trkpt lat="45.54269" lon="4.53408">
        <ele>416</ele>
        <time>2013-09-22T07:37:19Z</time>
      </trkpt>
      <trkpt lat="45.54261" lon="4.53413">
        <ele>415</ele>
        <time>2013-09-22T07:37:22Z</time>
      </trkpt>
      <trkpt lat="45.54253" lon="4.53416">
        <ele>414</ele>
        <time>2013-09-22T07:37:25Z</time>
      </trkpt>
      <trkpt lat="45.54246" lon="4.53416">
        <ele>413</ele>
        <time>2013-09-22T07:37:28Z</time>
      </trkpt>
      <trkpt lat="45.54239" lon="4.53416">
        <ele>411</ele>
        <time>2013-09-22T07:37:31Z</time>
      </trkpt>
      <trkpt lat="45.54231" lon="4.53416">
        <ele>409</ele>
        <time>2013-09-22T07:37:34Z</time>
      </trkpt>
      <trkpt lat="45.54222" lon="4.53416">
        <ele>408</ele>
        <time>2013-09-22T07:37:37Z</time>
      </trkpt>
      <trkpt lat="45.54216" lon="4.53416">
        <ele>407</ele>
        <time>2013-09-22T07:37:40Z</time>
      </trkpt>
      <trkpt lat="45.54209" lon="4.53417">
        <ele>406</ele>
        <time>2013-09-22T07:37:43Z</time>
      </trkpt>
      <trkpt lat="45.54202" lon="4.53419">
        <ele>405</ele>
        <time>2013-09-22T07:37:46Z</time>
      </trkpt>
      <trkpt lat="45.54194" lon="4.53419">
        <ele>403</ele>
        <time>2013-09-22T07:37:49Z</time>
      </trkpt>
      <trkpt lat="45.54187" lon="4.53417">
        <ele>401</ele>
        <time>2013-09-22T07:37:52Z</time>
      </trkpt>
      <trkpt lat="45.54179" lon="4.53413">
        <ele>398</ele>
        <time>2013-09-22T07:37:55Z</time>
      </trkpt>
      <trkpt lat="45.54171" lon="4.53409">
        <ele>397</ele>
        <time>2013-09-22T07:37:58Z</time>
      </trkpt>
      <trkpt lat="45.54165" lon="4.53408">
        <ele>397</ele>
        <time>2013-09-22T07:38:01Z</time>
      </trkpt>
      <trkpt lat="45.54157" lon="4.53408">
        <ele>396</ele>
        <time>2013-09-22T07:38:04Z</time>
      </trkpt>
      <trkpt lat="45.54147" lon="4.53406">
        <ele>395</ele>
        <time>2013-09-22T07:38:07Z</time>
      </trkpt>
      <trkpt lat="45.5414" lon="4.53402">
        <ele>394</ele>
        <time>2013-09-22T07:38:10Z</time>
      </trkpt>
      <trkpt lat="45.54133" lon="4.53397">
        <ele>394</ele>
        <time>2013-09-22T07:38:13Z</time>
      </trkpt>
      <trkpt lat="45.54124" lon="4.53393">
        <ele>394</ele>
        <time>2013-09-22T07:38:16Z</time>
      </trkpt>
      <trkpt lat="45.54116" lon="4.5339">
        <ele>394</ele>
        <time>2013-09-22T07:38:19Z</time>
      </trkpt>
      <trkpt lat="45.54108" lon="4.53391">
        <ele>392</ele>
        <time>2013-09-22T07:38:22Z</time>
      </trkpt>
      <trkpt lat="45.54098" lon="4.53388">
        <ele>389</ele>
        <time>2013-09-22T07:38:25Z</time>
      </trkpt>
      <trkpt lat="45.54091" lon="4.53384">
        <ele>387</ele>
        <time>2013-09-22T07:38:28Z</time>
      </trkpt>
      <trkpt lat="45.54081" lon="4.53381">
        <ele>385</ele>
        <time>2013-09-22T07:38:31Z</time>
      </trkpt>
      <trkpt lat="45.54073" lon="4.5338">
        <ele>385</ele>
        <time>2013-09-22T07:38:34Z</time>
      </trkpt>
      <trkpt lat="45.54065" lon="4.53383">
        <ele>385</ele>
        <time>2013-09-22T07:38:37Z</time>
      </trkpt>
      <trkpt lat="45.54057" lon="4.53393">
        <ele>385</ele>
        <time>2013-09-22T07:38:40Z</time>
      </trkpt>
      <trkpt lat="45.54047" lon="4.53403">
        <ele>387</ele>
        <time>2013-09-22T07:38:43Z</time>
      </trkpt>
      <trkpt lat="45.54037" lon="4.53411">
        <ele>390</ele>
        <time>2013-09-22T07:38:46Z</time>
      </trkpt>
      <trkpt lat="45.54029" lon="4.53418">
        <ele>393</ele>
        <time>2013-09-22T07:38:49Z</time>
      </trkpt>
      <trkpt lat="45.5402" lon="4.53424">
        <ele>396</ele>
        <time>2013-09-22T07:38:52Z</time>
      </trkpt>
      <trkpt lat="45.54013" lon="4.53435">
        <ele>399</ele>
        <time>2013-09-22T07:38:55Z</time>
      </trkpt>
      <trkpt lat="45.54009" lon="4.53441">
        <ele>402</ele>
        <time>2013-09-22T07:38:58Z</time>
      </trkpt>
      <trkpt lat="45.54004" lon="4.53449">
        <ele>402</ele>
        <time>2013-09-22T07:39:01Z</time>
      </trkpt>
      <trkpt lat="45.53996" lon="4.53454">
        <ele>402</ele>
        <time>2013-09-22T07:39:04Z</time>
      </trkpt>
      <trkpt lat="45.53989" lon="4.53459">
        <ele>402</ele>
        <time>2013-09-22T07:39:07Z</time>
      </trkpt>
      <trkpt lat="45.53981" lon="4.53466">
        <ele>402</ele>
        <time>2013-09-22T07:39:10Z</time>
      </trkpt>
      <trkpt lat="45.53972" lon="4.53472">
        <ele>402</ele>
        <time>2013-09-22T07:39:13Z</time>
      </trkpt>
      <trkpt lat="45.53964" lon="4.53479">
        <ele>402</ele>
        <time>2013-09-22T07:39:16Z</time>
      </trkpt>
      <trkpt lat="45.53954" lon="4.53492">
        <ele>402</ele>
        <time>2013-09-22T07:39:19Z</time>
      </trkpt>
      <trkpt lat="45.53947" lon="4.53505">
        <ele>402</ele>
        <time>2013-09-22T07:39:22Z</time>
      </trkpt>
      <trkpt lat="45.5394" lon="4.53515">
        <ele>401</ele>
        <time>2013-09-22T07:39:25Z</time>
      </trkpt>
      <trkpt lat="45.53931" lon="4.53526">
        <ele>400</ele>
        <time>2013-09-22T07:39:28Z</time>
      </trkpt>
      <trkpt lat="45.53925" lon="4.53534">
        <ele>399</ele>
        <time>2013-09-22T07:39:31Z</time>
      </trkpt>
      <trkpt lat="45.53919" lon="4.53544">
        <ele>397</ele>
        <time>2013-09-22T07:39:34Z</time>
      </trkpt>
      <trkpt lat="45.53914" lon="4.53558">
        <ele>396</ele>
        <time>2013-09-22T07:39:37Z</time>
      </trkpt>
      <trkpt lat="45.5391" lon="4.53567">
        <ele>395</ele>
        <time>2013-09-22T07:39:40Z</time>
      </trkpt>
      <trkpt lat="45.5391" lon="4.53577">
        <ele>392</ele>
        <time>2013-09-22T07:39:43Z</time>
      </trkpt>
      <trkpt lat="45.5391" lon="4.53589">
        <ele>389</ele>
        <time>2013-09-22T07:39:46Z</time>
      </trkpt>
      <trkpt lat="45.5391" lon="4.53605">
        <ele>387</ele>
        <time>2013-09-22T07:39:49Z</time>
      </trkpt>
      <trkpt lat="45.53911" lon="4.53618">
        <ele>385</ele>
        <time>2013-09-22T07:39:52Z</time>
      </trkpt>
      <trkpt lat="45.53911" lon="4.53631">
        <ele>383</ele>
        <time>2013-09-22T07:39:55Z</time>
      </trkpt>
      <trkpt lat="45.53912" lon="4.53645">
        <ele>380</ele>
        <time>2013-09-22T07:39:58Z</time>
      </trkpt>
      <trkpt lat="45.53912" lon="4.5366">
        <ele>378</ele>
        <time>2013-09-22T07:40:01Z</time>
      </trkpt>
      <trkpt lat="45.53913" lon="4.53674">
        <ele>376</ele>
        <time>2013-09-22T07:40:04Z</time>
      </trkpt>
      <trkpt lat="45.53913" lon="4.53688">
        <ele>375</ele>
        <time>2013-09-22T07:40:07Z</time>
      </trkpt>
      <trkpt lat="45.53911" lon="4.53702">
        <ele>373</ele>
        <time>2013-09-22T07:40:10Z</time>
      </trkpt>
      <trkpt lat="45.53911" lon="4.53714">
        <ele>371</ele>
        <time>2013-09-22T07:40:13Z</time>
      </trkpt>
      <trkpt lat="45.53911" lon="4.53726">
        <ele>369</ele>
        <time>2013-09-22T07:40:16Z</time>
      </trkpt>
      <trkpt lat="45.5391" lon="4.53736">
        <ele>367</ele>
        <time>2013-09-22T07:40:19Z</time>
      </trkpt>
      <trkpt lat="45.5391" lon="4.53747">
        <ele>365</ele>
        <time>2013-09-22T07:40:22Z</time>
      </trkpt>
      <trkpt lat="45.53909" lon="4.53758">
        <ele>364</ele>
        <time>2013-09-22T07:40:25Z</time>
      </trkpt>
      <trkpt lat="45.53906" lon="4.53769">
        <ele>364</ele>
        <time>2013-09-22T07:40:28Z</time>
      </trkpt>
      <trkpt lat="45.53902" lon="4.53779">
        <ele>364</ele>
        <time>2013-09-22T07:40:31Z</time>
      </trkpt>
      <trkpt lat="45.539" lon="4.53791">
        <ele>364</ele>
        <time>2013-09-22T07:40:34Z</time>
      </trkpt>
      <trkpt lat="45.53899" lon="4.53805">
        <ele>364</ele>
        <time>2013-09-22T07:40:37Z</time>
      </trkpt>
      <trkpt lat="45.53897" lon="4.53817">
        <ele>364</ele>
        <time>2013-09-22T07:40:40Z</time>
      </trkpt>
      <trkpt lat="45.53894" lon="4.53827">
        <ele>364</ele>
        <time>2013-09-22T07:40:43Z</time>
      </trkpt>
      <trkpt lat="45.53891" lon="4.53838">
        <ele>364</ele>
        <time>2013-09-22T07:40:46Z</time>
      </trkpt>
      <trkpt lat="45.53888" lon="4.5385">
        <ele>364</ele>
        <time>2013-09-22T07:40:49Z</time>
      </trkpt>
      <trkpt lat="45.53884" lon="4.53863">
        <ele>364</ele>
        <time>2013-09-22T07:40:52Z</time>
      </trkpt>
      <trkpt lat="45.53881" lon="4.53875">
        <ele>364</ele>
        <time>2013-09-22T07:40:55Z</time>
      </trkpt>
      <trkpt lat="45.5388" lon="4.53886">
        <ele>364</ele>
        <time>2013-09-22T07:40:58Z</time>
      </trkpt>
      <trkpt lat="45.53879" lon="4.53896">
        <ele>364</ele>
        <time>2013-09-22T07:41:01Z</time>
      </trkpt>
      <trkpt lat="45.53875" lon="4.53905">
        <ele>364</ele>
        <time>2013-09-22T07:41:04Z</time>
      </trkpt>
      <trkpt lat="45.53872" lon="4.53916">
        <ele>364</ele>
        <time>2013-09-22T07:41:07Z</time>
      </trkpt>
      <trkpt lat="45.53865" lon="4.53927">
        <ele>364</ele>
        <time>2013-09-22T07:41:10Z</time>
      </trkpt>
      <trkpt lat="45.53855" lon="4.53935">
        <ele>365</ele>
        <time>2013-09-22T07:41:13Z</time>
      </trkpt>
      <trkpt lat="45.53846" lon="4.53938">
        <ele>368</ele>
        <time>2013-09-22T07:41:16Z</time>
      </trkpt>
      <trkpt lat="45.5384" lon="4.53941">
        <ele>371</ele>
        <time>2013-09-22T07:41:19Z</time>
      </trkpt>
      <trkpt lat="45.53836" lon="4.5395">
        <ele>372</ele>
        <time>2013-09-22T07:41:22Z</time>
      </trkpt>
      <trkpt lat="45.53835" lon="4.53958">
        <ele>372</ele>
        <time>2013-09-22T07:41:25Z</time>
      </trkpt>
      <trkpt lat="45.53836" lon="4.53964">
        <ele>372</ele>
        <time>2013-09-22T07:41:28Z</time>
      </trkpt>
      <trkpt lat="45.53835" lon="4.53971">
        <ele>372</ele>
        <time>2013-09-22T07:41:31Z</time>
      </trkpt>
      <trkpt lat="45.53833" lon="4.5398">
        <ele>372</ele>
        <time>2013-09-22T07:41:34Z</time>
      </trkpt>
      <trkpt lat="45.53831" lon="4.53993">
        <ele>372</ele>
        <time>2013-09-22T07:41:37Z</time>
      </trkpt>
      <trkpt lat="45.53828" lon="4.54003">
        <ele>372</ele>
        <time>2013-09-22T07:41:40Z</time>
      </trkpt>
      <trkpt lat="45.53823" lon="4.54013">
        <ele>372</ele>
        <time>2013-09-22T07:41:43Z</time>
      </trkpt>
      <trkpt lat="45.5382" lon="4.54023">
        <ele>372</ele>
        <time>2013-09-22T07:41:46Z</time>
      </trkpt>
      <trkpt lat="45.53819" lon="4.54033">
        <ele>372</ele>
        <time>2013-09-22T07:41:49Z</time>
      </trkpt>
      <trkpt lat="45.53817" lon="4.54046">
        <ele>372</ele>
        <time>2013-09-22T07:41:52Z</time>
      </trkpt>
      <trkpt lat="45.53815" lon="4.54056">
        <ele>372</ele>
        <time>2013-09-22T07:41:55Z</time>
      </trkpt>
      <trkpt lat="45.53814" lon="4.54066">
        <ele>372</ele>
        <time>2013-09-22T07:41:58Z</time>
      </trkpt>
      <trkpt lat="45.53809" lon="4.5408">
        <ele>372</ele>
        <time>2013-09-22T07:42:01Z</time>
      </trkpt>
      <trkpt lat="45.53803" lon="4.54093">
        <ele>372</ele>
        <time>2013-09-22T07:42:04Z</time>
      </trkpt>
      <trkpt lat="45.53798" lon="4.54104">
        <ele>372</ele>
        <time>2013-09-22T07:42:07Z</time>
      </trkpt>
      <trkpt lat="45.53792" lon="4.54111">
        <ele>372</ele>
        <time>2013-09-22T07:42:10Z</time>
      </trkpt>
      <trkpt lat="45.53788" lon="4.5412">
        <ele>371</ele>
        <time>2013-09-22T07:42:13Z</time>
      </trkpt>
      <trkpt lat="45.53783" lon="4.54129">
        <ele>370</ele>
        <time>2013-09-22T07:42:16Z</time>
      </trkpt>
      <trkpt lat="45.53778" lon="4.54137">
        <ele>369</ele>
        <time>2013-09-22T07:42:19Z</time>
      </trkpt>
      <trkpt lat="45.53774" lon="4.54144">
        <ele>367</ele>
        <time>2013-09-22T07:42:22Z</time>
      </trkpt>
      <trkpt lat="45.53771" lon="4.54153">
        <ele>364</ele>
        <time>2013-09-22T07:42:25Z</time>
      </trkpt>
      <trkpt lat="45.53767" lon="4.5416">
        <ele>363</ele>
        <time>2013-09-22T07:42:28Z</time>
      </trkpt>
      <trkpt lat="45.53763" lon="4.54165">
        <ele>362</ele>
        <time>2013-09-22T07:42:31Z</time>
      </trkpt>
      <trkpt lat="45.5376" lon="4.5417">
        <ele>361</ele>
        <time>2013-09-22T07:42:34Z</time>
      </trkpt>
      <trkpt lat="45.53757" lon="4.5418">
        <ele>361</ele>
        <time>2013-09-22T07:42:37Z</time>
      </trkpt>
      <trkpt lat="45.53753" lon="4.54188">
        <ele>361</ele>
        <time>2013-09-22T07:42:40Z</time>
      </trkpt>
      <trkpt lat="45.53747" lon="4.54195">
        <ele>361</ele>
        <time>2013-09-22T07:42:43Z</time>
      </trkpt>
      <trkpt lat="45.53741" lon="4.54204">
        <ele>361</ele>
        <time>2013-09-22T07:42:46Z</time>
      </trkpt>
      <trkpt lat="45.5374" lon="4.54212">
        <ele>362</ele>
        <time>2013-09-22T07:42:49Z</time>
      </trkpt>
      <trkpt lat="45.53738" lon="4.54222">
        <ele>365</ele>
        <time>2013-09-22T07:42:52Z</time>
      </trkpt>
      <trkpt lat="45.53735" lon="4.5423">
        <ele>367</ele>
        <time>2013-09-22T07:42:55Z</time>
      </trkpt>
      <trkpt lat="45.53733" lon="4.54239">
        <ele>367</ele>
        <time>2013-09-22T07:42:58Z</time>
      </trkpt>
      <trkpt lat="45.53731" lon="4.54246">
        <ele>367</ele>
        <time>2013-09-22T07:43:01Z</time>
      </trkpt>
      <trkpt lat="45.5373" lon="4.54255">
        <ele>368</ele>
        <time>2013-09-22T07:43:04Z</time>
      </trkpt>
      <trkpt lat="45.53728" lon="4.54264">
        <ele>370</ele>
        <time>2013-09-22T07:43:07Z</time>
      </trkpt>
      <trkpt lat="45.53723" lon="4.54271">
        <ele>373</ele>
        <time>2013-09-22T07:43:10Z</time>
      </trkpt>
      <trkpt lat="45.53721" lon="4.54277">
        <ele>373</ele>
        <time>2013-09-22T07:43:13Z</time>
      </trkpt>
      <trkpt lat="45.53717" lon="4.54282">
        <ele>374</ele>
        <time>2013-09-22T07:43:16Z</time>
      </trkpt>
      <trkpt lat="45.53714" lon="4.54291">
        <ele>376</ele>
        <time>2013-09-22T07:43:19Z</time>
      </trkpt>
      <trkpt lat="45.5371" lon="4.54301">
        <ele>378</ele>
        <time>2013-09-22T07:43:22Z</time>
      </trkpt>
      <trkpt lat="45.53707" lon="4.54307">
        <ele>379</ele>
        <time>2013-09-22T07:43:25Z</time>
      </trkpt>
      <trkpt lat="45.53704" lon="4.54313">
        <ele>380</ele>
        <time>2013-09-22T07:43:29Z</time>
      </trkpt>
      <trkpt lat="45.537" lon="4.54319">
        <ele>380</ele>
        <time>2013-09-22T07:43:32Z</time>
      </trkpt>
      <trkpt lat="45.53697" lon="4.54326">
        <ele>380</ele>
        <time>2013-09-22T07:43:35Z</time>
      </trkpt>
      <trkpt lat="45.53693" lon="4.54332">
        <ele>380</ele>
        <time>2013-09-22T07:43:39Z</time>
      </trkpt>
      <trkpt lat="45.53692" lon="4.54341">
        <ele>380</ele>
        <time>2013-09-22T07:43:42Z</time>
      </trkpt>
      <trkpt lat="45.53693" lon="4.54351">
        <ele>380</ele>
        <time>2013-09-22T07:43:45Z</time>
      </trkpt>
      <trkpt lat="45.53692" lon="4.54364">
        <ele>380</ele>
        <time>2013-09-22T07:43:48Z</time>
      </trkpt>
      <trkpt lat="45.53682" lon="4.54372">
        <ele>380</ele>
        <time>2013-09-22T07:43:51Z</time>
      </trkpt>
      <trkpt lat="45.53672" lon="4.5438">
        <ele>379</ele>
        <time>2013-09-22T07:43:54Z</time>
      </trkpt>
      <trkpt lat="45.53667" lon="4.54391">
        <ele>377</ele>
        <time>2013-09-22T07:43:57Z</time>
      </trkpt>
      <trkpt lat="45.53671" lon="4.54404">
        <ele>374</ele>
        <time>2013-09-22T07:44:00Z</time>
      </trkpt>
      <trkpt lat="45.53679" lon="4.54416">
        <ele>371</ele>
        <time>2013-09-22T07:44:03Z</time>
      </trkpt>
      <trkpt lat="45.53683" lon="4.54428">
        <ele>368</ele>
        <time>2013-09-22T07:44:06Z</time>
      </trkpt>
      <trkpt lat="45.53677" lon="4.54441">
        <ele>365</ele>
        <time>2013-09-22T07:44:09Z</time>
      </trkpt>
      <trkpt lat="45.53669" lon="4.54449">
        <ele>362</ele>
        <time>2013-09-22T07:44:12Z</time>
      </trkpt>
      <trkpt lat="45.53664" lon="4.54454">
        <ele>359</ele>
        <time>2013-09-22T07:44:15Z</time>
      </trkpt>
      <trkpt lat="45.53658" lon="4.54464">
        <ele>356</ele>
        <time>2013-09-22T07:44:18Z</time>
      </trkpt>
      <trkpt lat="45.53659" lon="4.54477">
        <ele>354</ele>
        <time>2013-09-22T07:44:21Z</time>
      </trkpt>
      <trkpt lat="45.53664" lon="4.54491">
        <ele>354</ele>
        <time>2013-09-22T07:44:24Z</time>
      </trkpt>
      <trkpt lat="45.53668" lon="4.54506">
        <ele>354</ele>
        <time>2013-09-22T07:44:27Z</time>
      </trkpt>
      <trkpt lat="45.53673" lon="4.5452">
        <ele>353</ele>
        <time>2013-09-22T07:44:30Z</time>
      </trkpt>
      <trkpt lat="45.53666" lon="4.54529">
        <ele>351</ele>
        <time>2013-09-22T07:44:33Z</time>
      </trkpt>
      <trkpt lat="45.53657" lon="4.5453">
        <ele>349</ele>
        <time>2013-09-22T07:44:36Z</time>
      </trkpt>
      <trkpt lat="45.53646" lon="4.54529">
        <ele>346</ele>
        <time>2013-09-22T07:44:39Z</time>
      </trkpt>
      <trkpt lat="45.53635" lon="4.54531">
        <ele>344</ele>
        <time>2013-09-22T07:44:42Z</time>
      </trkpt>
      <trkpt lat="45.53625" lon="4.54536">
        <ele>344</ele>
        <time>2013-09-22T07:44:45Z</time>
      </trkpt>
      <trkpt lat="45.53615" lon="4.54539">
        <ele>344</ele>
        <time>2013-09-22T07:44:48Z</time>
      </trkpt>
      <trkpt lat="45.53606" lon="4.54545">
        <ele>344</ele>
        <time>2013-09-22T07:44:51Z</time>
      </trkpt>
      <trkpt lat="45.53598" lon="4.54554">
        <ele>344</ele>
        <time>2013-09-22T07:44:54Z</time>
      </trkpt>
      <trkpt lat="45.53592" lon="4.54565">
        <ele>344</ele>
        <time>2013-09-22T07:44:57Z</time>
      </trkpt>
      <trkpt lat="45.53589" lon="4.54577">
        <ele>344</ele>
        <time>2013-09-22T07:45:00Z</time>
      </trkpt>
      <trkpt lat="45.53592" lon="4.54588">
        <ele>344</ele>
        <time>2013-09-22T07:45:03Z</time>
      </trkpt>
      <trkpt lat="45.53594" lon="4.54602">
        <ele>344</ele>
        <time>2013-09-22T07:45:06Z</time>
      </trkpt>
      <trkpt lat="45.5359" lon="4.54614">
        <ele>344</ele>
        <time>2013-09-22T07:45:09Z</time>
      </trkpt>
      <trkpt lat="45.53582" lon="4.54624">
        <ele>344</ele>
        <time>2013-09-22T07:45:12Z</time>
      </trkpt>
      <trkpt lat="45.53578" lon="4.54635">
        <ele>344</ele>
        <time>2013-09-22T07:45:15Z</time>
      </trkpt>
      <trkpt lat="45.5357" lon="4.54646">
        <ele>344</ele>
        <time>2013-09-22T07:45:18Z</time>
      </trkpt>
      <trkpt lat="45.53564" lon="4.54657">
        <ele>344</ele>
        <time>2013-09-22T07:45:21Z</time>
      </trkpt>
      <trkpt lat="45.53561" lon="4.54669">
        <ele>344</ele>
        <time>2013-09-22T07:45:24Z</time>
      </trkpt>
      <trkpt lat="45.53559" lon="4.54683">
        <ele>344</ele>
        <time>2013-09-22T07:45:27Z</time>
      </trkpt>
      <trkpt lat="45.53557" lon="4.54695">
        <ele>344</ele>
        <time>2013-09-22T07:45:30Z</time>
      </trkpt>
      <trkpt lat="45.53556" lon="4.54709">
        <ele>344</ele>
        <time>2013-09-22T07:45:33Z</time>
      </trkpt>
      <trkpt lat="45.53558" lon="4.54722">
        <ele>344</ele>
        <time>2013-09-22T07:45:36Z</time>
      </trkpt>
      <trkpt lat="45.53562" lon="4.54735">
        <ele>344</ele>
        <time>2013-09-22T07:45:39Z</time>
      </trkpt>
      <trkpt lat="45.53566" lon="4.54746">
        <ele>344</ele>
        <time>2013-09-22T07:45:42Z</time>
      </trkpt>
      <trkpt lat="45.53572" lon="4.54755">
        <ele>344</ele>
        <time>2013-09-22T07:45:45Z</time>
      </trkpt>
      <trkpt lat="45.53578" lon="4.54765">
        <ele>344</ele>
        <time>2013-09-22T07:45:48Z</time>
      </trkpt>
      <trkpt lat="45.53585" lon="4.54775">
        <ele>344</ele>
        <time>2013-09-22T07:45:51Z</time>
      </trkpt>
      <trkpt lat="45.53593" lon="4.54784">
        <ele>344</ele>
        <time>2013-09-22T07:45:54Z</time>
      </trkpt>
      <trkpt lat="45.536" lon="4.54794">
        <ele>344</ele>
        <time>2013-09-22T07:45:57Z</time>
      </trkpt>
      <trkpt lat="45.53606" lon="4.54804">
        <ele>344</ele>
        <time>2013-09-22T07:46:00Z</time>
      </trkpt>
      <trkpt lat="45.53613" lon="4.54813">
        <ele>344</ele>
        <time>2013-09-22T07:46:03Z</time>
      </trkpt>
      <trkpt lat="45.53617" lon="4.54823">
        <ele>344</ele>
        <time>2013-09-22T07:46:06Z</time>
      </trkpt>
      <trkpt lat="45.53622" lon="4.54833">
        <ele>344</ele>
        <time>2013-09-22T07:46:09Z</time>
      </trkpt>
      <trkpt lat="45.53626" lon="4.54845">
        <ele>344</ele>
        <time>2013-09-22T07:46:12Z</time>
      </trkpt>
      <trkpt lat="45.5363" lon="4.54858">
        <ele>344</ele>
        <time>2013-09-22T07:46:15Z</time>
      </trkpt>
      <trkpt lat="45.53634" lon="4.54871">
        <ele>344</ele>
        <time>2013-09-22T07:46:18Z</time>
      </trkpt>
      <trkpt lat="45.53638" lon="4.54884">
        <ele>344</ele>
        <time>2013-09-22T07:46:21Z</time>
      </trkpt>
      <trkpt lat="45.5364" lon="4.54897">
        <ele>344</ele>
        <time>2013-09-22T07:46:24Z</time>
      </trkpt>
      <trkpt lat="45.53643" lon="4.54911">
        <ele>344</ele>
        <time>2013-09-22T07:46:27Z</time>
      </trkpt>
      <trkpt lat="45.53647" lon="4.54922">
        <ele>344</ele>
        <time>2013-09-22T07:46:30Z</time>
      </trkpt>
      <trkpt lat="45.53651" lon="4.5493">
        <ele>344</ele>
        <time>2013-09-22T07:46:34Z</time>
      </trkpt>
      <trkpt lat="45.53657" lon="4.54924">
        <ele>343</ele>
        <time>2013-09-22T07:46:37Z</time>
      </trkpt>
      <trkpt lat="45.53661" lon="4.54918">
        <ele>341</ele>
        <time>2013-09-22T07:46:40Z</time>
      </trkpt>
      <trkpt lat="45.53663" lon="4.5491">
        <ele>339</ele>
        <time>2013-09-22T07:46:43Z</time>
      </trkpt>
      <trkpt lat="45.53667" lon="4.54901">
        <ele>339</ele>
        <time>2013-09-22T07:46:46Z</time>
      </trkpt>
      <trkpt lat="45.53672" lon="4.54894">
        <ele>339</ele>
        <time>2013-09-22T07:46:49Z</time>
      </trkpt>
      <trkpt lat="45.53676" lon="4.54883">
        <ele>339</ele>
        <time>2013-09-22T07:46:52Z</time>
      </trkpt>
      <trkpt lat="45.5368" lon="4.54873">
        <ele>339</ele>
        <time>2013-09-22T07:46:55Z</time>
      </trkpt>
      <trkpt lat="45.53683" lon="4.54864">
        <ele>341</ele>
        <time>2013-09-22T07:46:58Z</time>
      </trkpt>
      <trkpt lat="45.53688" lon="4.54857">
        <ele>344</ele>
        <time>2013-09-22T07:47:01Z</time>
      </trkpt>
      <trkpt lat="45.53694" lon="4.54858">
        <ele>347</ele>
        <time>2013-09-22T07:47:04Z</time>
      </trkpt>
      <trkpt lat="45.53699" lon="4.5486">
        <ele>350</ele>
        <time>2013-09-22T07:47:07Z</time>
      </trkpt>
      <trkpt lat="45.53704" lon="4.54862">
        <ele>353</ele>
        <time>2013-09-22T07:47:10Z</time>
      </trkpt>
      <trkpt lat="45.53707" lon="4.54856">
        <ele>355</ele>
        <time>2013-09-22T07:47:14Z</time>
      </trkpt>
      <trkpt lat="45.53709" lon="4.5485">
        <ele>356</ele>
        <time>2013-09-22T07:47:17Z</time>
      </trkpt>
      <trkpt lat="45.53714" lon="4.54845">
        <ele>356</ele>
        <time>2013-09-22T07:47:20Z</time>
      </trkpt>
      <trkpt lat="45.53719" lon="4.5484">
        <ele>356</ele>
        <time>2013-09-22T07:47:23Z</time>
      </trkpt>
      <trkpt lat="45.53722" lon="4.54831">
        <ele>356</ele>
        <time>2013-09-22T07:47:26Z</time>
      </trkpt>
      <trkpt lat="45.53726" lon="4.54824">
        <ele>356</ele>
        <time>2013-09-22T07:47:29Z</time>
      </trkpt>
      <trkpt lat="45.5373" lon="4.54818">
        <ele>356</ele>
        <time>2013-09-22T07:47:32Z</time>
      </trkpt>
      <trkpt lat="45.53734" lon="4.54812">
        <ele>356</ele>
        <time>2013-09-22T07:47:35Z</time>
      </trkpt>
      <trkpt lat="45.53739" lon="4.54808">
        <ele>355</ele>
        <time>2013-09-22T07:47:38Z</time>
      </trkpt>
      <trkpt lat="45.53743" lon="4.54802">
        <ele>352</ele>
        <time>2013-09-22T07:47:41Z</time>
      </trkpt>
      <trkpt lat="45.53747" lon="4.54798">
        <ele>351</ele>
        <time>2013-09-22T07:47:45Z</time>
      </trkpt>
      <trkpt lat="45.5375" lon="4.54791">
        <ele>351</ele>
        <time>2013-09-22T07:47:48Z</time>
      </trkpt>
      <trkpt lat="45.53754" lon="4.54787">
        <ele>351</ele>
        <time>2013-09-22T07:47:51Z</time>
      </trkpt>
      <trkpt lat="45.53757" lon="4.54783">
        <ele>352</ele>
        <time>2013-09-22T07:47:54Z</time>
      </trkpt>
      <trkpt lat="45.53763" lon="4.54778">
        <ele>352</ele>
        <time>2013-09-22T07:47:57Z</time>
      </trkpt>
      <trkpt lat="45.53769" lon="4.54777">
        <ele>352</ele>
        <time>2013-09-22T07:48:00Z</time>
      </trkpt>
      <trkpt lat="45.53774" lon="4.54778">
        <ele>352</ele>
        <time>2013-09-22T07:48:03Z</time>
      </trkpt>
      <trkpt lat="45.53777" lon="4.54776">
        <ele>354</ele>
        <time>2013-09-22T07:48:07Z</time>
      </trkpt>
      <trkpt lat="45.53779" lon="4.54777">
        <ele>357</ele>
        <time>2013-09-22T07:48:10Z</time>
      </trkpt>
      <trkpt lat="45.53783" lon="4.54776">
        <ele>361</ele>
        <time>2013-09-22T07:48:14Z</time>
      </trkpt>
      <trkpt lat="45.53786" lon="4.54777">
        <ele>364</ele>
        <time>2013-09-22T07:48:18Z</time>
      </trkpt>
      <trkpt lat="45.53788" lon="4.54778">
        <ele>366</ele>
        <time>2013-09-22T07:48:21Z</time>
      </trkpt>
      <trkpt lat="45.5379" lon="4.54781">
        <ele>367</ele>
        <time>2013-09-22T07:48:26Z</time>
      </trkpt>
      <trkpt lat="45.5379" lon="4.54783">
        <ele>368</ele>
        <time>2013-09-22T07:48:30Z</time>
      </trkpt>
      <trkpt lat="45.53789" lon="4.54784">
        <ele>369</ele>
        <time>2013-09-22T07:48:37Z</time>
      </trkpt>
      <trkpt lat="45.5379" lon="4.54786">
        <ele>371</ele>
        <time>2013-09-22T07:48:40Z</time>
      </trkpt>
      <trkpt lat="45.53789" lon="4.5479">
        <ele>371</ele>
        <time>2013-09-22T07:48:45Z</time>
      </trkpt>
      <trkpt lat="45.53792" lon="4.54794">
        <ele>371</ele>
        <time>2013-09-22T07:48:49Z</time>
      </trkpt>
      <trkpt lat="45.53791" lon="4.54798">
        <ele>371</ele>
        <time>2013-09-22T07:48:52Z</time>
      </trkpt>
      <trkpt lat="45.53791" lon="4.548">
        <ele>371</ele>
        <time>2013-09-22T07:48:55Z</time>
      </trkpt>
      <trkpt lat="45.53793" lon="4.54806">
        <ele>371</ele>
        <time>2013-09-22T07:48:59Z</time>
      </trkpt>
      <trkpt lat="45.53795" lon="4.5481">
        <ele>371</ele>
        <time>2013-09-22T07:49:02Z</time>
      </trkpt>
      <trkpt lat="45.53796" lon="4.54813">
        <ele>371</ele>
        <time>2013-09-22T07:49:05Z</time>
      </trkpt>
      <trkpt lat="45.53799" lon="4.54817">
        <ele>371</ele>
        <time>2013-09-22T07:49:09Z</time>
      </trkpt>
      <trkpt lat="45.53803" lon="4.5482">
        <ele>371</ele>
        <time>2013-09-22T07:49:13Z</time>
      </trkpt>
      <trkpt lat="45.53805" lon="4.5482">
        <ele>371</ele>
        <time>2013-09-22T07:49:16Z</time>
      </trkpt>
      <trkpt lat="45.53807" lon="4.54823">
        <ele>371</ele>
        <time>2013-09-22T07:49:19Z</time>
      </trkpt>
      <trkpt lat="45.53803" lon="4.54827">
        <ele>371</ele>
        <time>2013-09-22T07:49:23Z</time>
      </trkpt>
      <trkpt lat="45.53801" lon="4.54828">
        <ele>373</ele>
        <time>2013-09-22T07:49:27Z</time>
      </trkpt>
      <trkpt lat="45.53798" lon="4.54832">
        <ele>375</ele>
        <time>2013-09-22T07:49:31Z</time>
      </trkpt>
      <trkpt lat="45.53794" lon="4.54834">
        <ele>375</ele>
        <time>2013-09-22T07:49:35Z</time>
      </trkpt>
      <trkpt lat="45.53791" lon="4.54833">
        <ele>376</ele>
        <time>2013-09-22T07:49:38Z</time>
      </trkpt>
      <trkpt lat="45.53789" lon="4.54837">
        <ele>376</ele>
        <time>2013-09-22T07:49:41Z</time>
      </trkpt>
      <trkpt lat="45.53785" lon="4.54843">
        <ele>376</ele>
        <time>2013-09-22T07:49:44Z</time>
      </trkpt>
      <trkpt lat="45.5378" lon="4.54843">
        <ele>377</ele>
        <time>2013-09-22T07:49:47Z</time>
      </trkpt>
      <trkpt lat="45.53775" lon="4.54849">
        <ele>377</ele>
        <time>2013-09-22T07:49:50Z</time>
      </trkpt>
      <trkpt lat="45.53773" lon="4.54856">
        <ele>378</ele>
        <time>2013-09-22T07:49:53Z</time>
      </trkpt>
      <trkpt lat="45.53771" lon="4.54866">
        <ele>378</ele>
        <time>2013-09-22T07:49:56Z</time>
      </trkpt>
      <trkpt lat="45.53769" lon="4.54875">
        <ele>379</ele>
        <time>2013-09-22T07:49:59Z</time>
      </trkpt>
      <trkpt lat="45.53766" lon="4.54883">
        <ele>379</ele>
        <time>2013-09-22T07:50:02Z</time>
      </trkpt>
      <trkpt lat="45.53763" lon="4.54893">
        <ele>379</ele>
        <time>2013-09-22T07:50:05Z</time>
      </trkpt>
      <trkpt lat="45.53759" lon="4.54902">
        <ele>379</ele>
        <time>2013-09-22T07:50:08Z</time>
      </trkpt>
      <trkpt lat="45.53754" lon="4.54912">
        <ele>380</ele>
        <time>2013-09-22T07:50:11Z</time>
      </trkpt>
      <trkpt lat="45.53748" lon="4.54919">
        <ele>381</ele>
        <time>2013-09-22T07:50:14Z</time>
      </trkpt>
      <trkpt lat="45.53742" lon="4.54925">
        <ele>381</ele>
        <time>2013-09-22T07:50:17Z</time>
      </trkpt>
      <trkpt lat="45.53737" lon="4.54931">
        <ele>381</ele>
        <time>2013-09-22T07:50:20Z</time>
      </trkpt>
      <trkpt lat="45.53732" lon="4.54937">
        <ele>381</ele>
        <time>2013-09-22T07:50:23Z</time>
      </trkpt>
      <trkpt lat="45.53728" lon="4.54945">
        <ele>381</ele>
        <time>2013-09-22T07:50:26Z</time>
      </trkpt>
      <trkpt lat="45.53725" lon="4.54954">
        <ele>381</ele>
        <time>2013-09-22T07:50:29Z</time>
      </trkpt>
      <trkpt lat="45.53722" lon="4.54964">
        <ele>381</ele>
        <time>2013-09-22T07:50:32Z</time>
      </trkpt>
      <trkpt lat="45.53721" lon="4.54974">
        <ele>381</ele>
        <time>2013-09-22T07:50:35Z</time>
      </trkpt>
      <trkpt lat="45.53722" lon="4.54983">
        <ele>381</ele>
        <time>2013-09-22T07:50:38Z</time>
      </trkpt>
      <trkpt lat="45.53725" lon="4.5499">
        <ele>381</ele>
        <time>2013-09-22T07:50:41Z</time>
      </trkpt>
      <trkpt lat="45.53725" lon="4.55">
        <ele>381</ele>
        <time>2013-09-22T07:50:44Z</time>
      </trkpt>
      <trkpt lat="45.53725" lon="4.55012">
        <ele>381</ele>
        <time>2013-09-22T07:50:47Z</time>
      </trkpt>
      <trkpt lat="45.53727" lon="4.55026">
        <ele>381</ele>
        <time>2013-09-22T07:50:50Z</time>
      </trkpt>
      <trkpt lat="45.53728" lon="4.55037">
        <ele>381</ele>
        <time>2013-09-22T07:50:53Z</time>
      </trkpt>
      <trkpt lat="45.5373" lon="4.55044">
        <ele>381</ele>
        <time>2013-09-22T07:50:56Z</time>
      </trkpt>
      <trkpt lat="45.53732" lon="4.55053">
        <ele>381</ele>
        <time>2013-09-22T07:50:59Z</time>
      </trkpt>
      <trkpt lat="45.53733" lon="4.55064">
        <ele>381</ele>
        <time>2013-09-22T07:51:02Z</time>
      </trkpt>
      <trkpt lat="45.53732" lon="4.55075">
        <ele>381</ele>
        <time>2013-09-22T07:51:05Z</time>
      </trkpt>
      <trkpt lat="45.53732" lon="4.55086">
        <ele>381</ele>
        <time>2013-09-22T07:51:08Z</time>
      </trkpt>
      <trkpt lat="45.53728" lon="4.55095">
        <ele>382</ele>
        <time>2013-09-22T07:51:11Z</time>
      </trkpt>
      <trkpt lat="45.53726" lon="4.55105">
        <ele>383</ele>
        <time>2013-09-22T07:51:14Z</time>
      </trkpt>
      <trkpt lat="45.53725" lon="4.55114">
        <ele>384</ele>
        <time>2013-09-22T07:51:17Z</time>
      </trkpt>
      <trkpt lat="45.53721" lon="4.55123">
        <ele>384</ele>
        <time>2013-09-22T07:51:20Z</time>
      </trkpt>
      <trkpt lat="45.53716" lon="4.55131">
        <ele>384</ele>
        <time>2013-09-22T07:51:23Z</time>
      </trkpt>
      <trkpt lat="45.53707" lon="4.55143">
        <ele>384</ele>
        <time>2013-09-22T07:51:27Z</time>
      </trkpt>
      <trkpt lat="45.53702" lon="4.5515">
        <ele>384</ele>
        <time>2013-09-22T07:51:30Z</time>
      </trkpt>
      <trkpt lat="45.53697" lon="4.55159">
        <ele>384</ele>
        <time>2013-09-22T07:51:33Z</time>
      </trkpt>
      <trkpt lat="45.53692" lon="4.55166">
        <ele>384</ele>
        <time>2013-09-22T07:51:36Z</time>
      </trkpt>
      <trkpt lat="45.53685" lon="4.55171">
        <ele>384</ele>
        <time>2013-09-22T07:51:39Z</time>
      </trkpt>
      <trkpt lat="45.53678" lon="4.5517">
        <ele>384</ele>
        <time>2013-09-22T07:51:42Z</time>
      </trkpt>
      <trkpt lat="45.53673" lon="4.55168">
        <ele>384</ele>
        <time>2013-09-22T07:51:45Z</time>
      </trkpt>
      <trkpt lat="45.53667" lon="4.55164">
        <ele>384</ele>
        <time>2013-09-22T07:51:48Z</time>
      </trkpt>
      <trkpt lat="45.53663" lon="4.55166">
        <ele>384</ele>
        <time>2013-09-22T07:51:51Z</time>
      </trkpt>
      <trkpt lat="45.53656" lon="4.55167">
        <ele>383</ele>
        <time>2013-09-22T07:51:54Z</time>
      </trkpt>
      <trkpt lat="45.53648" lon="4.55165">
        <ele>380</ele>
        <time>2013-09-22T07:51:58Z</time>
      </trkpt>
      <trkpt lat="45.53643" lon="4.55167">
        <ele>377</ele>
        <time>2013-09-22T07:52:01Z</time>
      </trkpt>
      <trkpt lat="45.53637" lon="4.55168">
        <ele>374</ele>
        <time>2013-09-22T07:52:04Z</time>
      </trkpt>
      <trkpt lat="45.53631" lon="4.55169">
        <ele>371</ele>
        <time>2013-09-22T07:52:07Z</time>
      </trkpt>
      <trkpt lat="45.53624" lon="4.5517">
        <ele>368</ele>
        <time>2013-09-22T07:52:10Z</time>
      </trkpt>
      <trkpt lat="45.53619" lon="4.55171">
        <ele>365</ele>
        <time>2013-09-22T07:52:13Z</time>
      </trkpt>
      <trkpt lat="45.53614" lon="4.55169">
        <ele>362</ele>
        <time>2013-09-22T07:52:16Z</time>
      </trkpt>
      <trkpt lat="45.53608" lon="4.55167">
        <ele>360</ele>
        <time>2013-09-22T07:52:19Z</time>
      </trkpt>
      <trkpt lat="45.53603" lon="4.55167">
        <ele>359</ele>
        <time>2013-09-22T07:52:22Z</time>
      </trkpt>
      <trkpt lat="45.53598" lon="4.55166">
        <ele>357</ele>
        <time>2013-09-22T07:52:25Z</time>
      </trkpt>
      <trkpt lat="45.53593" lon="4.55163">
        <ele>356</ele>
        <time>2013-09-22T07:52:28Z</time>
      </trkpt>
      <trkpt lat="45.53587" lon="4.55165">
        <ele>355</ele>
        <time>2013-09-22T07:52:31Z</time>
      </trkpt>
      <trkpt lat="45.53585" lon="4.55173">
        <ele>354</ele>
        <time>2013-09-22T07:52:34Z</time>
      </trkpt>
      <trkpt lat="45.53582" lon="4.55177">
        <ele>354</ele>
        <time>2013-09-22T07:52:37Z</time>
      </trkpt>
      <trkpt lat="45.53575" lon="4.55174">
        <ele>352</ele>
        <time>2013-09-22T07:52:40Z</time>
      </trkpt>
      <trkpt lat="45.53568" lon="4.55169">
        <ele>350</ele>
        <time>2013-09-22T07:52:43Z</time>
      </trkpt>
      <trkpt lat="45.53562" lon="4.55171">
        <ele>348</ele>
        <time>2013-09-22T07:52:46Z</time>
      </trkpt>
      <trkpt lat="45.53556" lon="4.55173">
        <ele>347</ele>
        <time>2013-09-22T07:52:49Z</time>
      </trkpt>
      <trkpt lat="45.53549" lon="4.55172">
        <ele>347</ele>
        <time>2013-09-22T07:52:52Z</time>
      </trkpt>
      <trkpt lat="45.53545" lon="4.55169">
        <ele>347</ele>
        <time>2013-09-22T07:52:55Z</time>
      </trkpt>
      <trkpt lat="45.53543" lon="4.55163">
        <ele>345</ele>
        <time>2013-09-22T07:52:58Z</time>
      </trkpt>
      <trkpt lat="45.53545" lon="4.55158">
        <ele>342</ele>
        <time>2013-09-22T07:53:01Z</time>
      </trkpt>
      <trkpt lat="45.53547" lon="4.55154">
        <ele>339</ele>
        <time>2013-09-22T07:53:05Z</time>
      </trkpt>
      <trkpt lat="45.53544" lon="4.55153">
        <ele>337</ele>
        <time>2013-09-22T07:53:08Z</time>
      </trkpt>
      <trkpt lat="45.53535" lon="4.55158">
        <ele>337</ele>
        <time>2013-09-22T07:53:11Z</time>
      </trkpt>
      <trkpt lat="45.53535" lon="4.55169">
        <ele>336</ele>
        <time>2013-09-22T07:53:15Z</time>
      </trkpt>
      <trkpt lat="45.53533" lon="4.55186">
        <ele>334</ele>
        <time>2013-09-22T07:53:18Z</time>
      </trkpt>
      <trkpt lat="45.53537" lon="4.55197">
        <ele>332</ele>
        <time>2013-09-22T07:53:21Z</time>
      </trkpt>
      <trkpt lat="45.53543" lon="4.55208">
        <ele>330</ele>
        <time>2013-09-22T07:53:24Z</time>
      </trkpt>
      <trkpt lat="45.53549" lon="4.55224">
        <ele>328</ele>
        <time>2013-09-22T07:53:28Z</time>
      </trkpt>
      <trkpt lat="45.53547" lon="4.55237">
        <ele>328</ele>
        <time>2013-09-22T07:53:31Z</time>
      </trkpt>
      <trkpt lat="45.53542" lon="4.55251">
        <ele>327</ele>
        <time>2013-09-22T07:53:34Z</time>
      </trkpt>
      <trkpt lat="45.53538" lon="4.55261">
        <ele>327</ele>
        <time>2013-09-22T07:53:37Z</time>
      </trkpt>
      <trkpt lat="45.5354" lon="4.55269">
        <ele>327</ele>
        <time>2013-09-22T07:53:40Z</time>
      </trkpt>
      <trkpt lat="45.53545" lon="4.55277">
        <ele>327</ele>
        <time>2013-09-22T07:53:43Z</time>
      </trkpt>
      <trkpt lat="45.53553" lon="4.55284">
        <ele>327</ele>
        <time>2013-09-22T07:53:46Z</time>
      </trkpt>
      <trkpt lat="45.53558" lon="4.55287">
        <ele>329</ele>
        <time>2013-09-22T07:53:50Z</time>
      </trkpt>
      <trkpt lat="45.53564" lon="4.55288">
        <ele>330</ele>
        <time>2013-09-22T07:53:54Z</time>
      </trkpt>
      <trkpt lat="45.53569" lon="4.55283">
        <ele>330</ele>
        <time>2013-09-22T07:53:57Z</time>
      </trkpt>
      <trkpt lat="45.53578" lon="4.55272">
        <ele>330</ele>
        <time>2013-09-22T07:54:01Z</time>
      </trkpt>
      <trkpt lat="45.53584" lon="4.55265">
        <ele>330</ele>
        <time>2013-09-22T07:54:04Z</time>
      </trkpt>
      <trkpt lat="45.53591" lon="4.55257">
        <ele>330</ele>
        <time>2013-09-22T07:54:07Z</time>
      </trkpt>
      <trkpt lat="45.53592" lon="4.55253">
        <ele>330</ele>
        <time>2013-09-22T07:54:10Z</time>
      </trkpt>
      <trkpt lat="45.53583" lon="4.55245">
        <ele>329</ele>
        <time>2013-09-22T07:54:13Z</time>
      </trkpt>
      <trkpt lat="45.53579" lon="4.55238">
        <ele>328</ele>
        <time>2013-09-22T07:54:16Z</time>
      </trkpt>
      <trkpt lat="45.53581" lon="4.55245">
        <ele>327</ele>
        <time>2013-09-22T07:54:20Z</time>
      </trkpt>
      <trkpt lat="45.53589" lon="4.55261">
        <ele>326</ele>
        <time>2013-09-22T07:54:23Z</time>
      </trkpt>
      <trkpt lat="45.53594" lon="4.55275">
        <ele>326</ele>
        <time>2013-09-22T07:54:27Z</time>
      </trkpt>
      <trkpt lat="45.53598" lon="4.55289">
        <ele>326</ele>
        <time>2013-09-22T07:54:30Z</time>
      </trkpt>
      <trkpt lat="45.53603" lon="4.55305">
        <ele>326</ele>
        <time>2013-09-22T07:54:33Z</time>
      </trkpt>
      <trkpt lat="45.53603" lon="4.5532">
        <ele>326</ele>
        <time>2013-09-22T07:54:37Z</time>
      </trkpt>
      <trkpt lat="45.53599" lon="4.5534">
        <ele>326</ele>
        <time>2013-09-22T07:54:40Z</time>
      </trkpt>
      <trkpt lat="45.53594" lon="4.55352">
        <ele>326</ele>
        <time>2013-09-22T07:54:44Z</time>
      </trkpt>
      <trkpt lat="45.5359" lon="4.55363">
        <ele>327</ele>
        <time>2013-09-22T07:54:47Z</time>
      </trkpt>
      <trkpt lat="45.53585" lon="4.55375">
        <ele>327</ele>
        <time>2013-09-22T07:54:50Z</time>
      </trkpt>
      <trkpt lat="45.53581" lon="4.55386">
        <ele>328</ele>
        <time>2013-09-22T07:54:53Z</time>
      </trkpt>
      <trkpt lat="45.53577" lon="4.55399">
        <ele>329</ele>
        <time>2013-09-22T07:54:57Z</time>
      </trkpt>
      <trkpt lat="45.53574" lon="4.5541">
        <ele>329</ele>
        <time>2013-09-22T07:55:00Z</time>
      </trkpt>
      <trkpt lat="45.53569" lon="4.55426">
        <ele>330</ele>
        <time>2013-09-22T07:55:04Z</time>
      </trkpt>
      <trkpt lat="45.53561" lon="4.55444">
        <ele>330</ele>
        <time>2013-09-22T07:55:08Z</time>
      </trkpt>
      <trkpt lat="45.53561" lon="4.55461">
        <ele>330</ele>
        <time>2013-09-22T07:55:12Z</time>
      </trkpt>
      <trkpt lat="45.53563" lon="4.55478">
        <ele>330</ele>
        <time>2013-09-22T07:55:15Z</time>
      </trkpt>
      <trkpt lat="45.53568" lon="4.5549">
        <ele>331</ele>
        <time>2013-09-22T07:55:18Z</time>
      </trkpt>
      <trkpt lat="45.53566" lon="4.55501">
        <ele>331</ele>
        <time>2013-09-22T07:55:21Z</time>
      </trkpt>
      <trkpt lat="45.53563" lon="4.55514">
        <ele>331</ele>
        <time>2013-09-22T07:55:25Z</time>
      </trkpt>
      <trkpt lat="45.53561" lon="4.55526">
        <ele>331</ele>
        <time>2013-09-22T07:55:28Z</time>
      </trkpt>
      <trkpt lat="45.53558" lon="4.55538">
        <ele>331</ele>
        <time>2013-09-22T07:55:31Z</time>
      </trkpt>
      <trkpt lat="45.53553" lon="4.55548">
        <ele>331</ele>
        <time>2013-09-22T07:55:34Z</time>
      </trkpt>
      <trkpt lat="45.53547" lon="4.55561">
        <ele>331</ele>
        <time>2013-09-22T07:55:37Z</time>
      </trkpt>
      <trkpt lat="45.53541" lon="4.55569">
        <ele>331</ele>
        <time>2013-09-22T07:55:40Z</time>
      </trkpt>
      <trkpt lat="45.53536" lon="4.55579">
        <ele>331</ele>
        <time>2013-09-22T07:55:44Z</time>
      </trkpt>
      <trkpt lat="45.53529" lon="4.5559">
        <ele>331</ele>
        <time>2013-09-22T07:55:47Z</time>
      </trkpt>
      <trkpt lat="45.53522" lon="4.556">
        <ele>331</ele>
        <time>2013-09-22T07:55:50Z</time>
      </trkpt>
      <trkpt lat="45.53515" lon="4.55612">
        <ele>331</ele>
        <time>2013-09-22T07:55:54Z</time>
      </trkpt>
      <trkpt lat="45.5351" lon="4.55629">
        <ele>330</ele>
        <time>2013-09-22T07:55:58Z</time>
      </trkpt>
      <trkpt lat="45.53506" lon="4.55646">
        <ele>329</ele>
        <time>2013-09-22T07:56:02Z</time>
      </trkpt>
      <trkpt lat="45.53503" lon="4.55656">
        <ele>329</ele>
        <time>2013-09-22T07:56:05Z</time>
      </trkpt>
      <trkpt lat="45.53496" lon="4.55669">
        <ele>328</ele>
        <time>2013-09-22T07:56:08Z</time>
      </trkpt>
      <trkpt lat="45.53493" lon="4.55682">
        <ele>327</ele>
        <time>2013-09-22T07:56:11Z</time>
      </trkpt>
      <trkpt lat="45.53489" lon="4.55695">
        <ele>325</ele>
        <time>2013-09-22T07:56:14Z</time>
      </trkpt>
      <trkpt lat="45.53486" lon="4.55708">
        <ele>323</ele>
        <time>2013-09-22T07:56:18Z</time>
      </trkpt>
      <trkpt lat="45.53482" lon="4.55719">
        <ele>322</ele>
        <time>2013-09-22T07:56:21Z</time>
      </trkpt>
      <trkpt lat="45.53479" lon="4.55728">
        <ele>320</ele>
        <time>2013-09-22T07:56:24Z</time>
      </trkpt>
      <trkpt lat="45.53474" lon="4.55736">
        <ele>319</ele>
        <time>2013-09-22T07:56:27Z</time>
      </trkpt>
      <trkpt lat="45.53464" lon="4.5575">
        <ele>319</ele>
        <time>2013-09-22T07:56:30Z</time>
      </trkpt>
      <trkpt lat="45.53457" lon="4.55759">
        <ele>319</ele>
        <time>2013-09-22T07:56:33Z</time>
      </trkpt>
      <trkpt lat="45.53453" lon="4.55768">
        <ele>319</ele>
        <time>2013-09-22T07:56:37Z</time>
      </trkpt>
      <trkpt lat="45.53446" lon="4.5578">
        <ele>319</ele>
        <time>2013-09-22T07:56:40Z</time>
      </trkpt>
      <trkpt lat="45.5344" lon="4.55792">
        <ele>319</ele>
        <time>2013-09-22T07:56:43Z</time>
      </trkpt>
      <trkpt lat="45.53436" lon="4.55805">
        <ele>321</ele>
        <time>2013-09-22T07:56:47Z</time>
      </trkpt>
      <trkpt lat="45.53432" lon="4.55822">
        <ele>323</ele>
        <time>2013-09-22T07:56:50Z</time>
      </trkpt>
      <trkpt lat="45.53434" lon="4.55833">
        <ele>326</ele>
        <time>2013-09-22T07:56:53Z</time>
      </trkpt>
      <trkpt lat="45.5344" lon="4.55845">
        <ele>328</ele>
        <time>2013-09-22T07:56:57Z</time>
      </trkpt>
      <trkpt lat="45.53447" lon="4.5586">
        <ele>329</ele>
        <time>2013-09-22T07:57:00Z</time>
      </trkpt>
      <trkpt lat="45.53456" lon="4.55871">
        <ele>329</ele>
        <time>2013-09-22T07:57:03Z</time>
      </trkpt>
      <trkpt lat="45.53462" lon="4.55881">
        <ele>329</ele>
        <time>2013-09-22T07:57:07Z</time>
      </trkpt>
      <trkpt lat="45.53468" lon="4.55893">
        <ele>329</ele>
        <time>2013-09-22T07:57:10Z</time>
      </trkpt>
      <trkpt lat="45.53474" lon="4.55902">
        <ele>329</ele>
        <time>2013-09-22T07:57:13Z</time>
      </trkpt>
      <trkpt lat="45.53478" lon="4.55911">
        <ele>329</ele>
        <time>2013-09-22T07:57:16Z</time>
      </trkpt>
      <trkpt lat="45.53485" lon="4.55923">
        <ele>328</ele>
        <time>2013-09-22T07:57:19Z</time>
      </trkpt>
      <trkpt lat="45.53493" lon="4.55935">
        <ele>327</ele>
        <time>2013-09-22T07:57:22Z</time>
      </trkpt>
      <trkpt lat="45.53496" lon="4.55949">
        <ele>326</ele>
        <time>2013-09-22T07:57:26Z</time>
      </trkpt>
      <trkpt lat="45.53496" lon="4.55968">
        <ele>323</ele>
        <time>2013-09-22T07:57:29Z</time>
      </trkpt>
      <trkpt lat="45.53495" lon="4.5598">
        <ele>322</ele>
        <time>2013-09-22T07:57:32Z</time>
      </trkpt>
      <trkpt lat="45.53495" lon="4.55992">
        <ele>321</ele>
        <time>2013-09-22T07:57:36Z</time>
      </trkpt>
      <trkpt lat="45.53495" lon="4.56006">
        <ele>320</ele>
        <time>2013-09-22T07:57:39Z</time>
      </trkpt>
      <trkpt lat="45.53491" lon="4.56024">
        <ele>319</ele>
        <time>2013-09-22T07:57:43Z</time>
      </trkpt>
      <trkpt lat="45.53491" lon="4.5604">
        <ele>319</ele>
        <time>2013-09-22T07:57:46Z</time>
      </trkpt>
      <trkpt lat="45.53489" lon="4.56061">
        <ele>319</ele>
        <time>2013-09-22T07:57:49Z</time>
      </trkpt>
      <trkpt lat="45.53485" lon="4.56073">
        <ele>319</ele>
        <time>2013-09-22T07:57:53Z</time>
      </trkpt>
      <trkpt lat="45.53476" lon="4.56086">
        <ele>321</ele>
        <time>2013-09-22T07:57:56Z</time>
      </trkpt>
      <trkpt lat="45.53468" lon="4.56093">
        <ele>321</ele>
        <time>2013-09-22T07:57:59Z</time>
      </trkpt>
      <trkpt lat="45.5346" lon="4.56097">
        <ele>321</ele>
        <time>2013-09-22T07:58:03Z</time>
      </trkpt>
      <trkpt lat="45.53454" lon="4.56106">
        <ele>321</ele>
        <time>2013-09-22T07:58:06Z</time>
      </trkpt>
      <trkpt lat="45.5345" lon="4.56114">
        <ele>321</ele>
        <time>2013-09-22T07:58:09Z</time>
      </trkpt>
      <trkpt lat="45.53447" lon="4.56125">
        <ele>321</ele>
        <time>2013-09-22T07:58:13Z</time>
      </trkpt>
      <trkpt lat="45.53446" lon="4.56138">
        <ele>321</ele>
        <time>2013-09-22T07:58:16Z</time>
      </trkpt>
      <trkpt lat="45.53445" lon="4.56149">
        <ele>321</ele>
        <time>2013-09-22T07:58:19Z</time>
      </trkpt>
      <trkpt lat="45.53446" lon="4.5616">
        <ele>321</ele>
        <time>2013-09-22T07:58:23Z</time>
      </trkpt>
      <trkpt lat="45.5345" lon="4.56175">
        <ele>321</ele>
        <time>2013-09-22T07:58:26Z</time>
      </trkpt>
      <trkpt lat="45.53454" lon="4.56184">
        <ele>321</ele>
        <time>2013-09-22T07:58:29Z</time>
      </trkpt>
      <trkpt lat="45.53456" lon="4.56193">
        <ele>320</ele>
        <time>2013-09-22T07:58:32Z</time>
      </trkpt>
      <trkpt lat="45.53456" lon="4.56202">
        <ele>320</ele>
        <time>2013-09-22T07:58:35Z</time>
      </trkpt>
      <trkpt lat="45.53457" lon="4.56212">
        <ele>320</ele>
        <time>2013-09-22T07:58:38Z</time>
      </trkpt>
      <trkpt lat="45.53457" lon="4.5622">
        <ele>320</ele>
        <time>2013-09-22T07:58:41Z</time>
      </trkpt>
      <trkpt lat="45.53456" lon="4.56232">
        <ele>320</ele>
        <time>2013-09-22T07:58:44Z</time>
      </trkpt>
      <trkpt lat="45.53451" lon="4.56243">
        <ele>320</ele>
        <time>2013-09-22T07:58:48Z</time>
      </trkpt>
      <trkpt lat="45.53442" lon="4.56255">
        <ele>320</ele>
        <time>2013-09-22T07:58:51Z</time>
      </trkpt>
      <trkpt lat="45.53436" lon="4.56262">
        <ele>320</ele>
        <time>2013-09-22T07:58:54Z</time>
      </trkpt>
      <trkpt lat="45.53429" lon="4.56268">
        <ele>322</ele>
        <time>2013-09-22T07:58:58Z</time>
      </trkpt>
      <trkpt lat="45.53424" lon="4.56274">
        <ele>322</ele>
        <time>2013-09-22T07:59:01Z</time>
      </trkpt>
      <trkpt lat="45.53418" lon="4.56279">
        <ele>323</ele>
        <time>2013-09-22T07:59:04Z</time>
      </trkpt>
      <trkpt lat="45.53411" lon="4.56285">
        <ele>324</ele>
        <time>2013-09-22T07:59:07Z</time>
      </trkpt>
      <trkpt lat="45.53408" lon="4.56289">
        <ele>326</ele>
        <time>2013-09-22T07:59:10Z</time>
      </trkpt>
      <trkpt lat="45.53405" lon="4.56294">
        <ele>328</ele>
        <time>2013-09-22T07:59:14Z</time>
      </trkpt>
      <trkpt lat="45.53402" lon="4.56299">
        <ele>329</ele>
        <time>2013-09-22T07:59:17Z</time>
      </trkpt>
      <trkpt lat="45.53399" lon="4.56302">
        <ele>330</ele>
        <time>2013-09-22T07:59:20Z</time>
      </trkpt>
      <trkpt lat="45.53396" lon="4.56307">
        <ele>331</ele>
        <time>2013-09-22T07:59:24Z</time>
      </trkpt>
      <trkpt lat="45.53392" lon="4.56312">
        <ele>331</ele>
        <time>2013-09-22T07:59:28Z</time>
      </trkpt>
      <trkpt lat="45.53388" lon="4.56317">
        <ele>331</ele>
        <time>2013-09-22T07:59:32Z</time>
      </trkpt>
      <trkpt lat="45.53384" lon="4.5632">
        <ele>331</ele>
        <time>2013-09-22T07:59:35Z</time>
      </trkpt>
      <trkpt lat="45.53381" lon="4.56323">
        <ele>331</ele>
        <time>2013-09-22T07:59:38Z</time>
      </trkpt>
      <trkpt lat="45.53376" lon="4.56329">
        <ele>331</ele>
        <time>2013-09-22T07:59:41Z</time>
      </trkpt>
      <trkpt lat="45.53372" lon="4.56334">
        <ele>333</ele>
        <time>2013-09-22T07:59:44Z</time>
      </trkpt>
      <trkpt lat="45.53368" lon="4.56338">
        <ele>335</ele>
        <time>2013-09-22T07:59:48Z</time>
      </trkpt>
      <trkpt lat="45.53364" lon="4.56341">
        <ele>335</ele>
        <time>2013-09-22T07:59:51Z</time>
      </trkpt>
      <trkpt lat="45.5336" lon="4.56345">
        <ele>335</ele>
        <time>2013-09-22T07:59:54Z</time>
      </trkpt>
      <trkpt lat="45.53355" lon="4.5635">
        <ele>338</ele>
        <time>2013-09-22T07:59:57Z</time>
      </trkpt>
      <trkpt lat="45.5335" lon="4.56352">
        <ele>339</ele>
        <time>2013-09-22T08:00:00Z</time>
      </trkpt>
      <trkpt lat="45.53346" lon="4.56353">
        <ele>340</ele>
        <time>2013-09-22T08:00:04Z</time>
      </trkpt>
      <trkpt lat="45.5334" lon="4.56355">
        <ele>340</ele>
        <time>2013-09-22T08:00:07Z</time>
      </trkpt>
      <trkpt lat="45.53336" lon="4.56357">
        <ele>341</ele>
        <time>2013-09-22T08:00:10Z</time>
      </trkpt>
      <trkpt lat="45.53331" lon="4.56359">
        <ele>342</ele>
        <time>2013-09-22T08:00:14Z</time>
      </trkpt>
      <trkpt lat="45.53323" lon="4.5636">
        <ele>343</ele>
        <time>2013-09-22T08:00:17Z</time>
      </trkpt>
      <trkpt lat="45.53317" lon="4.56361">
        <ele>343</ele>
        <time>2013-09-22T08:00:21Z</time>
      </trkpt>
      <trkpt lat="45.53313" lon="4.56366">
        <ele>343</ele>
        <time>2013-09-22T08:00:24Z</time>
      </trkpt>
      <trkpt lat="45.5331" lon="4.5638">
        <ele>343</ele>
        <time>2013-09-22T08:00:27Z</time>
      </trkpt>
      <trkpt lat="45.5331" lon="4.56391">
        <ele>343</ele>
        <time>2013-09-22T08:00:30Z</time>
      </trkpt>
      <trkpt lat="45.53309" lon="4.56402">
        <ele>343</ele>
        <time>2013-09-22T08:00:33Z</time>
      </trkpt>
      <trkpt lat="45.53308" lon="4.56414">
        <ele>343</ele>
        <time>2013-09-22T08:00:36Z</time>
      </trkpt>
      <trkpt lat="45.53306" lon="4.56426">
        <ele>343</ele>
        <time>2013-09-22T08:00:39Z</time>
      </trkpt>
      <trkpt lat="45.53302" lon="4.56437">
        <ele>343</ele>
        <time>2013-09-22T08:00:42Z</time>
      </trkpt>
      <trkpt lat="45.53296" lon="4.56447">
        <ele>343</ele>
        <time>2013-09-22T08:00:45Z</time>
      </trkpt>
      <trkpt lat="45.53288" lon="4.56454">
        <ele>343</ele>
        <time>2013-09-22T08:00:48Z</time>
      </trkpt>
      <trkpt lat="45.5328" lon="4.56461">
        <ele>343</ele>
        <time>2013-09-22T08:00:51Z</time>
      </trkpt>
      <trkpt lat="45.53272" lon="4.56467">
        <ele>343</ele>
        <time>2013-09-22T08:00:55Z</time>
      </trkpt>
      <trkpt lat="45.53263" lon="4.56477">
        <ele>341</ele>
        <time>2013-09-22T08:00:58Z</time>
      </trkpt>
      <trkpt lat="45.5326" lon="4.56487">
        <ele>340</ele>
        <time>2013-09-22T08:01:01Z</time>
      </trkpt>
      <trkpt lat="45.53259" lon="4.56499">
        <ele>339</ele>
        <time>2013-09-22T08:01:04Z</time>
      </trkpt>
      <trkpt lat="45.53262" lon="4.56512">
        <ele>339</ele>
        <time>2013-09-22T08:01:07Z</time>
      </trkpt>
      <trkpt lat="45.53264" lon="4.56526">
        <ele>339</ele>
        <time>2013-09-22T08:01:10Z</time>
      </trkpt>
      <trkpt lat="45.53266" lon="4.56539">
        <ele>339</ele>
        <time>2013-09-22T08:01:13Z</time>
      </trkpt>
      <trkpt lat="45.53267" lon="4.56551">
        <ele>339</ele>
        <time>2013-09-22T08:01:16Z</time>
      </trkpt>
      <trkpt lat="45.53271" lon="4.56549">
        <ele>338</ele>
        <time>2013-09-22T08:01:19Z</time>
      </trkpt>
      <trkpt lat="45.53274" lon="4.56536">
        <ele>337</ele>
        <time>2013-09-22T08:01:22Z</time>
      </trkpt>
      <trkpt lat="45.53277" lon="4.56528">
        <ele>335</ele>
        <time>2013-09-22T08:01:29Z</time>
      </trkpt>
      <trkpt lat="45.53279" lon="4.56528">
        <ele>335</ele>
        <time>2013-09-22T08:01:33Z</time>
      </trkpt>
      <trkpt lat="45.53286" lon="4.56539">
        <ele>335</ele>
        <time>2013-09-22T08:01:36Z</time>
      </trkpt>
      <trkpt lat="45.53293" lon="4.56548">
        <ele>335</ele>
        <time>2013-09-22T08:01:39Z</time>
      </trkpt>
      <trkpt lat="45.533" lon="4.56558">
        <ele>334</ele>
        <time>2013-09-22T08:01:43Z</time>
      </trkpt>
      <trkpt lat="45.53307" lon="4.5657">
        <ele>333</ele>
        <time>2013-09-22T08:01:46Z</time>
      </trkpt>
      <trkpt lat="45.5331" lon="4.56586">
        <ele>332</ele>
        <time>2013-09-22T08:01:49Z</time>
      </trkpt>
      <trkpt lat="45.53308" lon="4.56599">
        <ele>332</ele>
        <time>2013-09-22T08:01:52Z</time>
      </trkpt>
      <trkpt lat="45.53306" lon="4.56612">
        <ele>331</ele>
        <time>2013-09-22T08:01:56Z</time>
      </trkpt>
      <trkpt lat="45.53305" lon="4.5663">
        <ele>330</ele>
        <time>2013-09-22T08:01:59Z</time>
      </trkpt>
      <trkpt lat="45.53305" lon="4.56642">
        <ele>328</ele>
        <time>2013-09-22T08:02:02Z</time>
      </trkpt>
      <trkpt lat="45.53305" lon="4.56654">
        <ele>326</ele>
        <time>2013-09-22T08:02:05Z</time>
      </trkpt>
      <trkpt lat="45.53304" lon="4.56665">
        <ele>324</ele>
        <time>2013-09-22T08:02:08Z</time>
      </trkpt>
      <trkpt lat="45.53304" lon="4.56676">
        <ele>321</ele>
        <time>2013-09-22T08:02:11Z</time>
      </trkpt>
      <trkpt lat="45.53304" lon="4.56689">
        <ele>319</ele>
        <time>2013-09-22T08:02:14Z</time>
      </trkpt>
      <trkpt lat="45.53303" lon="4.56702">
        <ele>317</ele>
        <time>2013-09-22T08:02:17Z</time>
      </trkpt>
      <trkpt lat="45.53301" lon="4.56713">
        <ele>316</ele>
        <time>2013-09-22T08:02:20Z</time>
      </trkpt>
      <trkpt lat="45.533" lon="4.56722">
        <ele>315</ele>
        <time>2013-09-22T08:02:23Z</time>
      </trkpt>
      <trkpt lat="45.53302" lon="4.56732">
        <ele>313</ele>
        <time>2013-09-22T08:02:26Z</time>
      </trkpt>
      <trkpt lat="45.53306" lon="4.56741">
        <ele>312</ele>
        <time>2013-09-22T08:02:29Z</time>
      </trkpt>
      <trkpt lat="45.53309" lon="4.56749">
        <ele>310</ele>
        <time>2013-09-22T08:02:32Z</time>
      </trkpt>
      <trkpt lat="45.53312" lon="4.56754">
        <ele>309</ele>
        <time>2013-09-22T08:02:35Z</time>
      </trkpt>
      <trkpt lat="45.53314" lon="4.56761">
        <ele>307</ele>
        <time>2013-09-22T08:02:38Z</time>
      </trkpt>
      <trkpt lat="45.53314" lon="4.56772">
        <ele>306</ele>
        <time>2013-09-22T08:02:41Z</time>
      </trkpt>
      <trkpt lat="45.53313" lon="4.56781">
        <ele>306</ele>
        <time>2013-09-22T08:02:44Z</time>
      </trkpt>
      <trkpt lat="45.53313" lon="4.56787">
        <ele>306</ele>
        <time>2013-09-22T08:02:47Z</time>
      </trkpt>
      <trkpt lat="45.53312" lon="4.56793">
        <ele>306</ele>
        <time>2013-09-22T08:02:51Z</time>
      </trkpt>
      <trkpt lat="45.53308" lon="4.56798">
        <ele>308</ele>
        <time>2013-09-22T08:02:55Z</time>
      </trkpt>
      <trkpt lat="45.53303" lon="4.56801">
        <ele>312</ele>
        <time>2013-09-22T08:02:59Z</time>
      </trkpt>
      <trkpt lat="45.53299" lon="4.568">
        <ele>315</ele>
        <time>2013-09-22T08:03:02Z</time>
      </trkpt>
      <trkpt lat="45.53294" lon="4.56802">
        <ele>318</ele>
        <time>2013-09-22T08:03:05Z</time>
      </trkpt>
      <trkpt lat="45.5329" lon="4.56806">
        <ele>321</ele>
        <time>2013-09-22T08:03:08Z</time>
      </trkpt>
      <trkpt lat="45.53283" lon="4.56811">
        <ele>324</ele>
        <time>2013-09-22T08:03:11Z</time>
      </trkpt>
      <trkpt lat="45.53275" lon="4.56809">
        <ele>327</ele>
        <time>2013-09-22T08:03:14Z</time>
      </trkpt>
      <trkpt lat="45.53267" lon="4.56804">
        <ele>328</ele>
        <time>2013-09-22T08:03:17Z</time>
      </trkpt>
      <trkpt lat="45.53261" lon="4.56801">
        <ele>328</ele>
        <time>2013-09-22T08:03:20Z</time>
      </trkpt>
      <trkpt lat="45.53255" lon="4.56802">
        <ele>328</ele>
        <time>2013-09-22T08:03:23Z</time>
      </trkpt>
      <trkpt lat="45.5325" lon="4.56804">
        <ele>328</ele>
        <time>2013-09-22T08:03:26Z</time>
      </trkpt>
      <trkpt lat="45.53246" lon="4.56806">
        <ele>327</ele>
        <time>2013-09-22T08:03:29Z</time>
      </trkpt>
      <trkpt lat="45.53242" lon="4.56812">
        <ele>326</ele>
        <time>2013-09-22T08:03:33Z</time>
      </trkpt>
      <trkpt lat="45.53241" lon="4.56816">
        <ele>325</ele>
        <time>2013-09-22T08:03:36Z</time>
      </trkpt>
      <trkpt lat="45.53239" lon="4.56821">
        <ele>325</ele>
        <time>2013-09-22T08:03:40Z</time>
      </trkpt>
      <trkpt lat="45.53237" lon="4.56826">
        <ele>325</ele>
        <time>2013-09-22T08:03:44Z</time>
      </trkpt>
      <trkpt lat="45.53236" lon="4.5683">
        <ele>325</ele>
        <time>2013-09-22T08:03:48Z</time>
      </trkpt>
      <trkpt lat="45.53234" lon="4.56834">
        <ele>325</ele>
        <time>2013-09-22T08:03:52Z</time>
      </trkpt>
      <trkpt lat="45.53234" lon="4.56838">
        <ele>325</ele>
        <time>2013-09-22T08:03:55Z</time>
      </trkpt>
      <trkpt lat="45.53232" lon="4.56844">
        <ele>325</ele>
        <time>2013-09-22T08:03:59Z</time>
      </trkpt>
      <trkpt lat="45.53232" lon="4.5685">
        <ele>325</ele>
        <time>2013-09-22T08:04:03Z</time>
      </trkpt>
      <trkpt lat="45.53231" lon="4.56855">
        <ele>326</ele>
        <time>2013-09-22T08:04:07Z</time>
      </trkpt>
      <trkpt lat="45.5323" lon="4.56858">
        <ele>326</ele>
        <time>2013-09-22T08:04:11Z</time>
      </trkpt>
      <trkpt lat="45.5323" lon="4.56863">
        <ele>327</ele>
        <time>2013-09-22T08:04:15Z</time>
      </trkpt>
      <trkpt lat="45.5323" lon="4.56867">
        <ele>327</ele>
        <time>2013-09-22T08:04:18Z</time>
      </trkpt>
      <trkpt lat="45.53231" lon="4.56872">
        <ele>328</ele>
        <time>2013-09-22T08:04:22Z</time>
      </trkpt>
      <trkpt lat="45.5323" lon="4.56877">
        <ele>329</ele>
        <time>2013-09-22T08:04:26Z</time>
      </trkpt>
      <trkpt lat="45.53229" lon="4.56881">
        <ele>330</ele>
        <time>2013-09-22T08:04:30Z</time>
      </trkpt>
      <trkpt lat="45.53227" lon="4.56886">
        <ele>330</ele>
        <time>2013-09-22T08:04:33Z</time>
      </trkpt>
      <trkpt lat="45.53226" lon="4.56891">
        <ele>331</ele>
        <time>2013-09-22T08:04:36Z</time>
      </trkpt>
      <trkpt lat="45.53226" lon="4.56895">
        <ele>331</ele>
        <time>2013-09-22T08:04:39Z</time>
      </trkpt>
      <trkpt lat="45.53226" lon="4.56901">
        <ele>331</ele>
        <time>2013-09-22T08:04:42Z</time>
      </trkpt>
      <trkpt lat="45.53226" lon="4.56905">
        <ele>331</ele>
        <time>2013-09-22T08:04:45Z</time>
      </trkpt>
      <trkpt lat="45.53226" lon="4.56909">
        <ele>331</ele>
        <time>2013-09-22T08:04:48Z</time>
      </trkpt>
      <trkpt lat="45.53226" lon="4.56914">
        <ele>331</ele>
        <time>2013-09-22T08:04:53Z</time>
      </trkpt>
      <trkpt lat="45.53228" lon="4.5692">
        <ele>332</ele>
        <time>2013-09-22T08:04:56Z</time>
      </trkpt>
      <trkpt lat="45.53228" lon="4.56924">
        <ele>332</ele>
        <time>2013-09-22T08:04:59Z</time>
      </trkpt>
      <trkpt lat="45.53229" lon="4.56928">
        <ele>333</ele>
        <time>2013-09-22T08:05:02Z</time>
      </trkpt>
      <trkpt lat="45.53229" lon="4.56932">
        <ele>334</ele>
        <time>2013-09-22T08:05:05Z</time>
      </trkpt>
      <trkpt lat="45.5323" lon="4.56937">
        <ele>335</ele>
        <time>2013-09-22T08:05:08Z</time>
      </trkpt>
      <trkpt lat="45.5323" lon="4.56941">
        <ele>336</ele>
        <time>2013-09-22T08:05:11Z</time>
      </trkpt>
      <trkpt lat="45.53229" lon="4.56947">
        <ele>337</ele>
        <time>2013-09-22T08:05:15Z</time>
      </trkpt>
      <trkpt lat="45.53231" lon="4.56953">
        <ele>338</ele>
        <time>2013-09-22T08:05:19Z</time>
      </trkpt>
      <trkpt lat="45.53232" lon="4.56958">
        <ele>338</ele>
        <time>2013-09-22T08:05:22Z</time>
      </trkpt>
      <trkpt lat="45.53233" lon="4.56963">
        <ele>338</ele>
        <time>2013-09-22T08:05:25Z</time>
      </trkpt>
      <trkpt lat="45.53233" lon="4.56968">
        <ele>338</ele>
        <time>2013-09-22T08:05:28Z</time>
      </trkpt>
      <trkpt lat="45.53233" lon="4.56973">
        <ele>339</ele>
        <time>2013-09-22T08:05:31Z</time>
      </trkpt>
      <trkpt lat="45.53233" lon="4.56978">
        <ele>340</ele>
        <time>2013-09-22T08:05:34Z</time>
      </trkpt>
      <trkpt lat="45.53236" lon="4.56986">
        <ele>340</ele>
        <time>2013-09-22T08:05:38Z</time>
      </trkpt>
      <trkpt lat="45.53239" lon="4.56995">
        <ele>340</ele>
        <time>2013-09-22T08:05:41Z</time>
      </trkpt>
      <trkpt lat="45.53241" lon="4.57004">
        <ele>340</ele>
        <time>2013-09-22T08:05:44Z</time>
      </trkpt>
      <trkpt lat="45.53245" lon="4.57013">
        <ele>341</ele>
        <time>2013-09-22T08:05:47Z</time>
      </trkpt>
      <trkpt lat="45.53245" lon="4.57022">
        <ele>342</ele>
        <time>2013-09-22T08:05:50Z</time>
      </trkpt>
      <trkpt lat="45.53246" lon="4.57029">
        <ele>343</ele>
        <time>2013-09-22T08:05:53Z</time>
      </trkpt>
      <trkpt lat="45.53246" lon="4.57039">
        <ele>344</ele>
        <time>2013-09-22T08:05:56Z</time>
      </trkpt>
      <trkpt lat="45.53247" lon="4.57045">
        <ele>346</ele>
        <time>2013-09-22T08:05:59Z</time>
      </trkpt>
      <trkpt lat="45.53246" lon="4.57053">
        <ele>347</ele>
        <time>2013-09-22T08:06:02Z</time>
      </trkpt>
      <trkpt lat="45.53247" lon="4.57058">
        <ele>347</ele>
        <time>2013-09-22T08:06:05Z</time>
      </trkpt>
      <trkpt lat="45.53248" lon="4.57064">
        <ele>348</ele>
        <time>2013-09-22T08:06:09Z</time>
      </trkpt>
      <trkpt lat="45.53249" lon="4.57068">
        <ele>349</ele>
        <time>2013-09-22T08:06:12Z</time>
      </trkpt>
      <trkpt lat="45.53248" lon="4.57074">
        <ele>350</ele>
        <time>2013-09-22T08:06:15Z</time>
      </trkpt>
      <trkpt lat="45.5325" lon="4.57078">
        <ele>351</ele>
        <time>2013-09-22T08:06:19Z</time>
      </trkpt>
      <trkpt lat="45.53252" lon="4.57083">
        <ele>351</ele>
        <time>2013-09-22T08:06:23Z</time>
      </trkpt>
      <trkpt lat="45.53254" lon="4.57087">
        <ele>351</ele>
        <time>2013-09-22T08:06:26Z</time>
      </trkpt>
      <trkpt lat="45.53254" lon="4.57091">
        <ele>351</ele>
        <time>2013-09-22T08:06:29Z</time>
      </trkpt>
      <trkpt lat="45.53252" lon="4.57099">
        <ele>352</ele>
        <time>2013-09-22T08:06:32Z</time>
      </trkpt>
      <trkpt lat="45.5325" lon="4.57108">
        <ele>353</ele>
        <time>2013-09-22T08:06:35Z</time>
      </trkpt>
      <trkpt lat="45.53249" lon="4.57118">
        <ele>353</ele>
        <time>2013-09-22T08:06:38Z</time>
      </trkpt>
      <trkpt lat="45.5325" lon="4.57126">
        <ele>353</ele>
        <time>2013-09-22T08:06:41Z</time>
      </trkpt>
      <trkpt lat="45.5325" lon="4.57135">
        <ele>354</ele>
        <time>2013-09-22T08:06:44Z</time>
      </trkpt>
      <trkpt lat="45.53248" lon="4.57145">
        <ele>355</ele>
        <time>2013-09-22T08:06:47Z</time>
      </trkpt>
      <trkpt lat="45.53247" lon="4.57156">
        <ele>356</ele>
        <time>2013-09-22T08:06:50Z</time>
      </trkpt>
      <trkpt lat="45.53246" lon="4.57164">
        <ele>357</ele>
        <time>2013-09-22T08:06:53Z</time>
      </trkpt>
      <trkpt lat="45.53247" lon="4.57174">
        <ele>358</ele>
        <time>2013-09-22T08:06:57Z</time>
      </trkpt>
      <trkpt lat="45.53247" lon="4.57185">
        <ele>358</ele>
        <time>2013-09-22T08:07:00Z</time>
      </trkpt>
      <trkpt lat="45.53244" lon="4.57199">
        <ele>358</ele>
        <time>2013-09-22T08:07:03Z</time>
      </trkpt>
      <trkpt lat="45.5324" lon="4.57209">
        <ele>359</ele>
        <time>2013-09-22T08:07:06Z</time>
      </trkpt>
      <trkpt lat="45.53236" lon="4.5722">
        <ele>359</ele>
        <time>2013-09-22T08:07:09Z</time>
      </trkpt>
      <trkpt lat="45.53233" lon="4.57229">
        <ele>360</ele>
        <time>2013-09-22T08:07:12Z</time>
      </trkpt>
      <trkpt lat="45.53229" lon="4.57239">
        <ele>360</ele>
        <time>2013-09-22T08:07:15Z</time>
      </trkpt>
      <trkpt lat="45.53228" lon="4.57248">
        <ele>360</ele>
        <time>2013-09-22T08:07:18Z</time>
      </trkpt>
      <trkpt lat="45.53227" lon="4.57255">
        <ele>360</ele>
        <time>2013-09-22T08:07:21Z</time>
      </trkpt>
      <trkpt lat="45.53225" lon="4.57263">
        <ele>360</ele>
        <time>2013-09-22T08:07:24Z</time>
      </trkpt>
      <trkpt lat="45.53223" lon="4.57272">
        <ele>360</ele>
        <time>2013-09-22T08:07:27Z</time>
      </trkpt>
      <trkpt lat="45.53222" lon="4.57279">
        <ele>360</ele>
        <time>2013-09-22T08:07:30Z</time>
      </trkpt>
      <trkpt lat="45.5322" lon="4.57287">
        <ele>361</ele>
        <time>2013-09-22T08:07:33Z</time>
      </trkpt>
      <trkpt lat="45.53217" lon="4.57296">
        <ele>361</ele>
        <time>2013-09-22T08:07:36Z</time>
      </trkpt>
      <trkpt lat="45.53213" lon="4.57304">
        <ele>362</ele>
        <time>2013-09-22T08:07:39Z</time>
      </trkpt>
      <trkpt lat="45.53208" lon="4.57311">
        <ele>362</ele>
        <time>2013-09-22T08:07:42Z</time>
      </trkpt>
      <trkpt lat="45.53203" lon="4.57319">
        <ele>362</ele>
        <time>2013-09-22T08:07:45Z</time>
      </trkpt>
      <trkpt lat="45.53199" lon="4.57325">
        <ele>362</ele>
        <time>2013-09-22T08:07:48Z</time>
      </trkpt>
      <trkpt lat="45.53193" lon="4.57333">
        <ele>362</ele>
        <time>2013-09-22T08:07:51Z</time>
      </trkpt>
      <trkpt lat="45.53189" lon="4.5734">
        <ele>362</ele>
        <time>2013-09-22T08:07:54Z</time>
      </trkpt>
      <trkpt lat="45.53185" lon="4.57346">
        <ele>362</ele>
        <time>2013-09-22T08:07:57Z</time>
      </trkpt>
      <trkpt lat="45.53181" lon="4.57352">
        <ele>362</ele>
        <time>2013-09-22T08:08:00Z</time>
      </trkpt>
      <trkpt lat="45.53176" lon="4.57357">
        <ele>362</ele>
        <time>2013-09-22T08:08:03Z</time>
      </trkpt>
      <trkpt lat="45.53171" lon="4.57362">
        <ele>363</ele>
        <time>2013-09-22T08:08:06Z</time>
      </trkpt>
      <trkpt lat="45.53167" lon="4.57366">
        <ele>363</ele>
        <time>2013-09-22T08:08:09Z</time>
      </trkpt>
      <trkpt lat="45.53164" lon="4.57369">
        <ele>364</ele>
        <time>2013-09-22T08:08:12Z</time>
      </trkpt>
      <trkpt lat="45.53161" lon="4.57373">
        <ele>365</ele>
        <time>2013-09-22T08:08:15Z</time>
      </trkpt>
      <trkpt lat="45.53157" lon="4.57377">
        <ele>367</ele>
        <time>2013-09-22T08:08:19Z</time>
      </trkpt>
      <trkpt lat="45.53154" lon="4.57381">
        <ele>368</ele>
        <time>2013-09-22T08:08:23Z</time>
      </trkpt>
      <trkpt lat="45.53147" lon="4.57391">
        <ele>369</ele>
        <time>2013-09-22T08:08:26Z</time>
      </trkpt>
      <trkpt lat="45.53141" lon="4.57398">
        <ele>370</ele>
        <time>2013-09-22T08:08:29Z</time>
      </trkpt>
      <trkpt lat="45.53136" lon="4.57406">
        <ele>371</ele>
        <time>2013-09-22T08:08:32Z</time>
      </trkpt>
      <trkpt lat="45.53132" lon="4.57414">
        <ele>372</ele>
        <time>2013-09-22T08:08:35Z</time>
      </trkpt>
      <trkpt lat="45.53127" lon="4.57421">
        <ele>373</ele>
        <time>2013-09-22T08:08:38Z</time>
      </trkpt>
      <trkpt lat="45.53124" lon="4.57431">
        <ele>374</ele>
        <time>2013-09-22T08:08:41Z</time>
      </trkpt>
      <trkpt lat="45.53122" lon="4.57442">
        <ele>375</ele>
        <time>2013-09-22T08:08:44Z</time>
      </trkpt>
      <trkpt lat="45.53119" lon="4.57451">
        <ele>375</ele>
        <time>2013-09-22T08:08:47Z</time>
      </trkpt>
      <trkpt lat="45.53115" lon="4.57461">
        <ele>376</ele>
        <time>2013-09-22T08:08:50Z</time>
      </trkpt>
      <trkpt lat="45.5311" lon="4.57471">
        <ele>377</ele>
        <time>2013-09-22T08:08:53Z</time>
      </trkpt>
      <trkpt lat="45.53106" lon="4.5748">
        <ele>377</ele>
        <time>2013-09-22T08:08:56Z</time>
      </trkpt>
      <trkpt lat="45.53103" lon="4.57491">
        <ele>377</ele>
        <time>2013-09-22T08:08:59Z</time>
      </trkpt>
      <trkpt lat="45.53103" lon="4.57503">
        <ele>377</ele>
        <time>2013-09-22T08:09:02Z</time>
      </trkpt>
      <trkpt lat="45.53104" lon="4.57514">
        <ele>377</ele>
        <time>2013-09-22T08:09:05Z</time>
      </trkpt>
      <trkpt lat="45.53108" lon="4.57523">
        <ele>377</ele>
        <time>2013-09-22T08:09:08Z</time>
      </trkpt>
      <trkpt lat="45.53113" lon="4.57532">
        <ele>377</ele>
        <time>2013-09-22T08:09:11Z</time>
      </trkpt>
      <trkpt lat="45.53118" lon="4.5754">
        <ele>377</ele>
        <time>2013-09-22T08:09:14Z</time>
      </trkpt>
      <trkpt lat="45.53123" lon="4.57549">
        <ele>377</ele>
        <time>2013-09-22T08:09:17Z</time>
      </trkpt>
      <trkpt lat="45.53128" lon="4.57557">
        <ele>377</ele>
        <time>2013-09-22T08:09:20Z</time>
      </trkpt>
      <trkpt lat="45.53133" lon="4.57565">
        <ele>377</ele>
        <time>2013-09-22T08:09:23Z</time>
      </trkpt>
      <trkpt lat="45.53138" lon="4.57573">
        <ele>377</ele>
        <time>2013-09-22T08:09:26Z</time>
      </trkpt>
      <trkpt lat="45.53143" lon="4.57579">
        <ele>377</ele>
        <time>2013-09-22T08:09:29Z</time>
      </trkpt>
      <trkpt lat="45.53148" lon="4.57587">
        <ele>378</ele>
        <time>2013-09-22T08:09:32Z</time>
      </trkpt>
      <trkpt lat="45.53153" lon="4.57594">
        <ele>378</ele>
        <time>2013-09-22T08:09:35Z</time>
      </trkpt>
      <trkpt lat="45.53158" lon="4.57602">
        <ele>379</ele>
        <time>2013-09-22T08:09:38Z</time>
      </trkpt>
      <trkpt lat="45.53163" lon="4.57612">
        <ele>380</ele>
        <time>2013-09-22T08:09:41Z</time>
      </trkpt>
      <trkpt lat="45.53167" lon="4.57622">
        <ele>380</ele>
        <time>2013-09-22T08:09:45Z</time>
      </trkpt>
      <trkpt lat="45.53173" lon="4.57635">
        <ele>380</ele>
        <time>2013-09-22T08:09:48Z</time>
      </trkpt>
      <trkpt lat="45.53178" lon="4.57644">
        <ele>380</ele>
        <time>2013-09-22T08:09:51Z</time>
      </trkpt>
      <trkpt lat="45.53183" lon="4.57652">
        <ele>380</ele>
        <time>2013-09-22T08:09:54Z</time>
      </trkpt>
      <trkpt lat="45.53191" lon="4.5766">
        <ele>380</ele>
        <time>2013-09-22T08:09:57Z</time>
      </trkpt>
      <trkpt lat="45.53196" lon="4.57666">
        <ele>380</ele>
        <time>2013-09-22T08:10:00Z</time>
      </trkpt>
      <trkpt lat="45.53199" lon="4.57672">
        <ele>380</ele>
        <time>2013-09-22T08:10:03Z</time>
      </trkpt>
      <trkpt lat="45.53204" lon="4.57678">
        <ele>380</ele>
        <time>2013-09-22T08:10:06Z</time>
      </trkpt>
      <trkpt lat="45.5321" lon="4.57682">
        <ele>380</ele>
        <time>2013-09-22T08:10:09Z</time>
      </trkpt>
      <trkpt lat="45.53214" lon="4.57688">
        <ele>381</ele>
        <time>2013-09-22T08:10:12Z</time>
      </trkpt>
      <trkpt lat="45.53213" lon="4.57699">
        <ele>382</ele>
        <time>2013-09-22T08:10:15Z</time>
      </trkpt>
      <trkpt lat="45.53209" lon="4.5771">
        <ele>382</ele>
        <time>2013-09-22T08:10:18Z</time>
      </trkpt>
      <trkpt lat="45.53204" lon="4.57719">
        <ele>382</ele>
        <time>2013-09-22T08:10:21Z</time>
      </trkpt>
      <trkpt lat="45.53199" lon="4.57725">
        <ele>382</ele>
        <time>2013-09-22T08:10:24Z</time>
      </trkpt>
      <trkpt lat="45.53196" lon="4.5773">
        <ele>382</ele>
        <time>2013-09-22T08:10:27Z</time>
      </trkpt>
      <trkpt lat="45.53198" lon="4.57735">
        <ele>382</ele>
        <time>2013-09-22T08:10:31Z</time>
      </trkpt>
      <trkpt lat="45.53201" lon="4.57736">
        <ele>384</ele>
        <time>2013-09-22T08:10:34Z</time>
      </trkpt>
      <trkpt lat="45.53202" lon="4.57741">
        <ele>387</ele>
        <time>2013-09-22T08:10:37Z</time>
      </trkpt>
      <trkpt lat="45.53197" lon="4.57749">
        <ele>388</ele>
        <time>2013-09-22T08:10:40Z</time>
      </trkpt>
      <trkpt lat="45.53191" lon="4.57755">
        <ele>389</ele>
        <time>2013-09-22T08:10:43Z</time>
      </trkpt>
      <trkpt lat="45.53186" lon="4.57761">
        <ele>389</ele>
        <time>2013-09-22T08:10:46Z</time>
      </trkpt>
      <trkpt lat="45.53181" lon="4.57769">
        <ele>389</ele>
        <time>2013-09-22T08:10:49Z</time>
      </trkpt>
      <trkpt lat="45.53178" lon="4.57776">
        <ele>389</ele>
        <time>2013-09-22T08:10:52Z</time>
      </trkpt>
      <trkpt lat="45.53174" lon="4.57785">
        <ele>389</ele>
        <time>2013-09-22T08:10:55Z</time>
      </trkpt>
      <trkpt lat="45.5317" lon="4.57793">
        <ele>390</ele>
        <time>2013-09-22T08:10:58Z</time>
      </trkpt>
      <trkpt lat="45.53167" lon="4.57802">
        <ele>390</ele>
        <time>2013-09-22T08:11:01Z</time>
      </trkpt>
      <trkpt lat="45.53164" lon="4.5781">
        <ele>390</ele>
        <time>2013-09-22T08:11:05Z</time>
      </trkpt>
      <trkpt lat="45.5316" lon="4.57824">
        <ele>390</ele>
        <time>2013-09-22T08:11:08Z</time>
      </trkpt>
      <trkpt lat="45.53157" lon="4.57834">
        <ele>390</ele>
        <time>2013-09-22T08:11:11Z</time>
      </trkpt>
      <trkpt lat="45.53153" lon="4.57844">
        <ele>390</ele>
        <time>2013-09-22T08:11:14Z</time>
      </trkpt>
      <trkpt lat="45.5315" lon="4.57855">
        <ele>390</ele>
        <time>2013-09-22T08:11:17Z</time>
      </trkpt>
      <trkpt lat="45.53148" lon="4.57864">
        <ele>390</ele>
        <time>2013-09-22T08:11:20Z</time>
      </trkpt>
      <trkpt lat="45.53146" lon="4.57871">
        <ele>391</ele>
        <time>2013-09-22T08:11:23Z</time>
      </trkpt>
      <trkpt lat="45.53144" lon="4.57879">
        <ele>392</ele>
        <time>2013-09-22T08:11:26Z</time>
      </trkpt>
      <trkpt lat="45.53141" lon="4.57888">
        <ele>392</ele>
        <time>2013-09-22T08:11:29Z</time>
      </trkpt>
      <trkpt lat="45.53139" lon="4.57896">
        <ele>393</ele>
        <time>2013-09-22T08:11:32Z</time>
      </trkpt>
      <trkpt lat="45.53136" lon="4.57903">
        <ele>394</ele>
        <time>2013-09-22T08:11:35Z</time>
      </trkpt>
      <trkpt lat="45.53134" lon="4.57912">
        <ele>395</ele>
        <time>2013-09-22T08:11:38Z</time>
      </trkpt>
      <trkpt lat="45.53131" lon="4.57921">
        <ele>397</ele>
        <time>2013-09-22T08:11:41Z</time>
      </trkpt>
      <trkpt lat="45.5313" lon="4.57932">
        <ele>399</ele>
        <time>2013-09-22T08:11:44Z</time>
      </trkpt>
      <trkpt lat="45.53131" lon="4.57941">
        <ele>400</ele>
        <time>2013-09-22T08:11:47Z</time>
      </trkpt>
      <trkpt lat="45.53135" lon="4.57948">
        <ele>400</ele>
        <time>2013-09-22T08:11:50Z</time>
      </trkpt>
      <trkpt lat="45.53138" lon="4.57956">
        <ele>400</ele>
        <time>2013-09-22T08:11:53Z</time>
      </trkpt>
      <trkpt lat="45.53141" lon="4.57964">
        <ele>401</ele>
        <time>2013-09-22T08:11:56Z</time>
      </trkpt>
      <trkpt lat="45.53142" lon="4.57973">
        <ele>401</ele>
        <time>2013-09-22T08:11:59Z</time>
      </trkpt>
      <trkpt lat="45.53144" lon="4.5798">
        <ele>402</ele>
        <time>2013-09-22T08:12:02Z</time>
      </trkpt>
      <trkpt lat="45.53146" lon="4.57988">
        <ele>403</ele>
        <time>2013-09-22T08:12:05Z</time>
      </trkpt>
      <trkpt lat="45.53149" lon="4.57997">
        <ele>403</ele>
        <time>2013-09-22T08:12:08Z</time>
      </trkpt>
      <trkpt lat="45.53152" lon="4.58005">
        <ele>404</ele>
        <time>2013-09-22T08:12:11Z</time>
      </trkpt>
      <trkpt lat="45.53153" lon="4.58014">
        <ele>405</ele>
        <time>2013-09-22T08:12:14Z</time>
      </trkpt>
      <trkpt lat="45.53156" lon="4.58023">
        <ele>405</ele>
        <time>2013-09-22T08:12:17Z</time>
      </trkpt>
      <trkpt lat="45.53157" lon="4.58031">
        <ele>406</ele>
        <time>2013-09-22T08:12:20Z</time>
      </trkpt>
      <trkpt lat="45.53162" lon="4.58038">
        <ele>407</ele>
        <time>2013-09-22T08:12:23Z</time>
      </trkpt>
      <trkpt lat="45.53167" lon="4.58045">
        <ele>407</ele>
        <time>2013-09-22T08:12:27Z</time>
      </trkpt>
      <trkpt lat="45.53174" lon="4.58055">
        <ele>407</ele>
        <time>2013-09-22T08:12:30Z</time>
      </trkpt>
      <trkpt lat="45.53179" lon="4.58062">
        <ele>408</ele>
        <time>2013-09-22T08:12:33Z</time>
      </trkpt>
      <trkpt lat="45.53186" lon="4.58068">
        <ele>408</ele>
        <time>2013-09-22T08:12:36Z</time>
      </trkpt>
      <trkpt lat="45.53193" lon="4.58068">
        <ele>408</ele>
        <time>2013-09-22T08:12:39Z</time>
      </trkpt>
      <trkpt lat="45.532" lon="4.58064">
        <ele>409</ele>
        <time>2013-09-22T08:12:42Z</time>
      </trkpt>
      <trkpt lat="45.53206" lon="4.58061">
        <ele>410</ele>
        <time>2013-09-22T08:12:45Z</time>
      </trkpt>
      <trkpt lat="45.53212" lon="4.58057">
        <ele>411</ele>
        <time>2013-09-22T08:12:48Z</time>
      </trkpt>
      <trkpt lat="45.53219" lon="4.58054">
        <ele>414</ele>
        <time>2013-09-22T08:12:51Z</time>
      </trkpt>
      <trkpt lat="45.53228" lon="4.58049">
        <ele>417</ele>
        <time>2013-09-22T08:12:54Z</time>
      </trkpt>
      <trkpt lat="45.53234" lon="4.58047">
        <ele>419</ele>
        <time>2013-09-22T08:12:57Z</time>
      </trkpt>
      <trkpt lat="45.53243" lon="4.58045">
        <ele>419</ele>
        <time>2013-09-22T08:13:00Z</time>
      </trkpt>
      <trkpt lat="45.53249" lon="4.58039">
        <ele>420</ele>
        <time>2013-09-22T08:13:03Z</time>
      </trkpt>
      <trkpt lat="45.53255" lon="4.58032">
        <ele>421</ele>
        <time>2013-09-22T08:13:06Z</time>
      </trkpt>
      <trkpt lat="45.5326" lon="4.58025">
        <ele>421</ele>
        <time>2013-09-22T08:13:09Z</time>
      </trkpt>
      <trkpt lat="45.53265" lon="4.58017">
        <ele>421</ele>
        <time>2013-09-22T08:13:12Z</time>
      </trkpt>
      <trkpt lat="45.5327" lon="4.5801">
        <ele>419</ele>
        <time>2013-09-22T08:13:15Z</time>
      </trkpt>
      <trkpt lat="45.53275" lon="4.58003">
        <ele>417</ele>
        <time>2013-09-22T08:13:18Z</time>
      </trkpt>
      <trkpt lat="45.53282" lon="4.57999">
        <ele>416</ele>
        <time>2013-09-22T08:13:21Z</time>
      </trkpt>
      <trkpt lat="45.53288" lon="4.57994">
        <ele>416</ele>
        <time>2013-09-22T08:13:24Z</time>
      </trkpt>
      <trkpt lat="45.53294" lon="4.5799">
        <ele>416</ele>
        <time>2013-09-22T08:13:27Z</time>
      </trkpt>
      <trkpt lat="45.53299" lon="4.57984">
        <ele>416</ele>
        <time>2013-09-22T08:13:30Z</time>
      </trkpt>
      <trkpt lat="45.53304" lon="4.57978">
        <ele>415</ele>
        <time>2013-09-22T08:13:33Z</time>
      </trkpt>
      <trkpt lat="45.5331" lon="4.57973">
        <ele>414</ele>
        <time>2013-09-22T08:13:36Z</time>
      </trkpt>
      <trkpt lat="45.53315" lon="4.57963">
        <ele>414</ele>
        <time>2013-09-22T08:13:39Z</time>
      </trkpt>
      <trkpt lat="45.53321" lon="4.57957">
        <ele>414</ele>
        <time>2013-09-22T08:13:42Z</time>
      </trkpt>
      <trkpt lat="45.53329" lon="4.57954">
        <ele>414</ele>
        <time>2013-09-22T08:13:45Z</time>
      </trkpt>
      <trkpt lat="45.53337" lon="4.57954">
        <ele>414</ele>
        <time>2013-09-22T08:13:48Z</time>
      </trkpt>
      <trkpt lat="45.53345" lon="4.57956">
        <ele>414</ele>
        <time>2013-09-22T08:13:51Z</time>
      </trkpt>
      <trkpt lat="45.53353" lon="4.57956">
        <ele>414</ele>
        <time>2013-09-22T08:13:54Z</time>
      </trkpt>
      <trkpt lat="45.5336" lon="4.57957">
        <ele>414</ele>
        <time>2013-09-22T08:13:57Z</time>
      </trkpt>
      <trkpt lat="45.53368" lon="4.5796">
        <ele>414</ele>
        <time>2013-09-22T08:14:00Z</time>
      </trkpt>
      <trkpt lat="45.53374" lon="4.57966">
        <ele>414</ele>
        <time>2013-09-22T08:14:03Z</time>
      </trkpt>
      <trkpt lat="45.53381" lon="4.57971">
        <ele>414</ele>
        <time>2013-09-22T08:14:06Z</time>
      </trkpt>
      <trkpt lat="45.53389" lon="4.57976">
        <ele>414</ele>
        <time>2013-09-22T08:14:09Z</time>
      </trkpt>
      <trkpt lat="45.53397" lon="4.57981">
        <ele>414</ele>
        <time>2013-09-22T08:14:12Z</time>
      </trkpt>
      <trkpt lat="45.53403" lon="4.57986">
        <ele>414</ele>
        <time>2013-09-22T08:14:15Z</time>
      </trkpt>
      <trkpt lat="45.5341" lon="4.57989">
        <ele>414</ele>
        <time>2013-09-22T08:14:18Z</time>
      </trkpt>
      <trkpt lat="45.53416" lon="4.57993">
        <ele>414</ele>
        <time>2013-09-22T08:14:21Z</time>
      </trkpt>
      <trkpt lat="45.53421" lon="4.57997">
        <ele>414</ele>
        <time>2013-09-22T08:14:24Z</time>
      </trkpt>
      <trkpt lat="45.53424" lon="4.57999">
        <ele>414</ele>
        <time>2013-09-22T08:14:27Z</time>
      </trkpt>
      <trkpt lat="45.53426" lon="4.58">
        <ele>414</ele>
        <time>2013-09-22T08:14:30Z</time>
      </trkpt>
      <trkpt lat="45.53425" lon="4.58002">
        <ele>414</ele>
        <time>2013-09-22T08:14:41Z</time>
      </trkpt>
      <trkpt lat="45.53425" lon="4.58003">
        <ele>414</ele>
        <time>2013-09-22T08:14:48Z</time>
      </trkpt>
      <trkpt lat="45.53426" lon="4.58006">
        <ele>414</ele>
        <time>2013-09-22T08:14:52Z</time>
      </trkpt>
      <trkpt lat="45.53427" lon="4.58007">
        <ele>414</ele>
        <time>2013-09-22T08:14:55Z</time>
      </trkpt>
      <trkpt lat="45.53429" lon="4.58008">
        <ele>414</ele>
        <time>2013-09-22T08:15:12Z</time>
      </trkpt>
      <trkpt lat="45.53432" lon="4.5801">
        <ele>414</ele>
        <time>2013-09-22T08:15:16Z</time>
      </trkpt>
      <trkpt lat="45.53436" lon="4.58013">
        <ele>414</ele>
        <time>2013-09-22T08:15:20Z</time>
      </trkpt>
      <trkpt lat="45.53441" lon="4.58018">
        <ele>414</ele>
        <time>2013-09-22T08:15:23Z</time>
      </trkpt>
      <trkpt lat="45.53446" lon="4.58024">
        <ele>413</ele>
        <time>2013-09-22T08:15:26Z</time>
      </trkpt>
      <trkpt lat="45.53451" lon="4.5803">
        <ele>413</ele>
        <time>2013-09-22T08:15:29Z</time>
      </trkpt>
      <trkpt lat="45.53458" lon="4.58033">
        <ele>413</ele>
        <time>2013-09-22T08:15:32Z</time>
      </trkpt>
      <trkpt lat="45.53466" lon="4.58036">
        <ele>413</ele>
        <time>2013-09-22T08:15:35Z</time>
      </trkpt>
      <trkpt lat="45.53475" lon="4.58038">
        <ele>413</ele>
        <time>2013-09-22T08:15:38Z</time>
      </trkpt>
      <trkpt lat="45.53484" lon="4.58038">
        <ele>413</ele>
        <time>2013-09-22T08:15:41Z</time>
      </trkpt>
      <trkpt lat="45.53492" lon="4.58038">
        <ele>413</ele>
        <time>2013-09-22T08:15:44Z</time>
      </trkpt>
      <trkpt lat="45.53501" lon="4.58037">
        <ele>413</ele>
        <time>2013-09-22T08:15:47Z</time>
      </trkpt>
      <trkpt lat="45.53509" lon="4.58034">
        <ele>413</ele>
        <time>2013-09-22T08:15:50Z</time>
      </trkpt>
      <trkpt lat="45.53518" lon="4.58032">
        <ele>413</ele>
        <time>2013-09-22T08:15:53Z</time>
      </trkpt>
      <trkpt lat="45.53527" lon="4.5803">
        <ele>413</ele>
        <time>2013-09-22T08:15:56Z</time>
      </trkpt>
      <trkpt lat="45.53535" lon="4.58028">
        <ele>413</ele>
        <time>2013-09-22T08:15:59Z</time>
      </trkpt>
      <trkpt lat="45.53543" lon="4.58025">
        <ele>413</ele>
        <time>2013-09-22T08:16:02Z</time>
      </trkpt>
      <trkpt lat="45.53552" lon="4.58022">
        <ele>413</ele>
        <time>2013-09-22T08:16:05Z</time>
      </trkpt>
      <trkpt lat="45.5356" lon="4.58018">
        <ele>413</ele>
        <time>2013-09-22T08:16:08Z</time>
      </trkpt>
      <trkpt lat="45.53569" lon="4.58012">
        <ele>413</ele>
        <time>2013-09-22T08:16:11Z</time>
      </trkpt>
      <trkpt lat="45.53576" lon="4.58007">
        <ele>413</ele>
        <time>2013-09-22T08:16:14Z</time>
      </trkpt>
      <trkpt lat="45.53584" lon="4.58001">
        <ele>412</ele>
        <time>2013-09-22T08:16:17Z</time>
      </trkpt>
      <trkpt lat="45.53591" lon="4.58">
        <ele>412</ele>
        <time>2013-09-22T08:16:20Z</time>
      </trkpt>
      <trkpt lat="45.53594" lon="4.58012">
        <ele>411</ele>
        <time>2013-09-22T08:16:23Z</time>
      </trkpt>
      <trkpt lat="45.53595" lon="4.58024">
        <ele>409</ele>
        <time>2013-09-22T08:16:26Z</time>
      </trkpt>
      <trkpt lat="45.53601" lon="4.58028">
        <ele>407</ele>
        <time>2013-09-22T08:16:30Z</time>
      </trkpt>
      <trkpt lat="45.53614" lon="4.5803">
        <ele>405</ele>
        <time>2013-09-22T08:16:33Z</time>
      </trkpt>
      <trkpt lat="45.53623" lon="4.58032">
        <ele>403</ele>
        <time>2013-09-22T08:16:36Z</time>
      </trkpt>
      <trkpt lat="45.53632" lon="4.58033">
        <ele>402</ele>
        <time>2013-09-22T08:16:39Z</time>
      </trkpt>
      <trkpt lat="45.53642" lon="4.58032">
        <ele>400</ele>
        <time>2013-09-22T08:16:42Z</time>
      </trkpt>
      <trkpt lat="45.53651" lon="4.58028">
        <ele>400</ele>
        <time>2013-09-22T08:16:45Z</time>
      </trkpt>
      <trkpt lat="45.53658" lon="4.58024">
        <ele>400</ele>
        <time>2013-09-22T08:16:48Z</time>
      </trkpt>
      <trkpt lat="45.53667" lon="4.58016">
        <ele>399</ele>
        <time>2013-09-22T08:16:51Z</time>
      </trkpt>
      <trkpt lat="45.53675" lon="4.58008">
        <ele>398</ele>
        <time>2013-09-22T08:16:54Z</time>
      </trkpt>
      <trkpt lat="45.53684" lon="4.58001">
        <ele>397</ele>
        <time>2013-09-22T08:16:57Z</time>
      </trkpt>
      <trkpt lat="45.53693" lon="4.57994">
        <ele>396</ele>
        <time>2013-09-22T08:17:00Z</time>
      </trkpt>
      <trkpt lat="45.53702" lon="4.57992">
        <ele>395</ele>
        <time>2013-09-22T08:17:03Z</time>
      </trkpt>
      <trkpt lat="45.53712" lon="4.57992">
        <ele>394</ele>
        <time>2013-09-22T08:17:06Z</time>
      </trkpt>
      <trkpt lat="45.53722" lon="4.5799">
        <ele>393</ele>
        <time>2013-09-22T08:17:09Z</time>
      </trkpt>
      <trkpt lat="45.5373" lon="4.57989">
        <ele>392</ele>
        <time>2013-09-22T08:17:12Z</time>
      </trkpt>
      <trkpt lat="45.53739" lon="4.57985">
        <ele>391</ele>
        <time>2013-09-22T08:17:15Z</time>
      </trkpt>
      <trkpt lat="45.53748" lon="4.57984">
        <ele>390</ele>
        <time>2013-09-22T08:17:18Z</time>
      </trkpt>
      <trkpt lat="45.53759" lon="4.5798">
        <ele>390</ele>
        <time>2013-09-22T08:17:21Z</time>
      </trkpt>
      <trkpt lat="45.53768" lon="4.57977">
        <ele>390</ele>
        <time>2013-09-22T08:17:24Z</time>
      </trkpt>
      <trkpt lat="45.53776" lon="4.57974">
        <ele>389</ele>
        <time>2013-09-22T08:17:27Z</time>
      </trkpt>
      <trkpt lat="45.53786" lon="4.57971">
        <ele>389</ele>
        <time>2013-09-22T08:17:30Z</time>
      </trkpt>
      <trkpt lat="45.53796" lon="4.57967">
        <ele>389</ele>
        <time>2013-09-22T08:17:33Z</time>
      </trkpt>
      <trkpt lat="45.53805" lon="4.57963">
        <ele>389</ele>
        <time>2013-09-22T08:17:36Z</time>
      </trkpt>
      <trkpt lat="45.53814" lon="4.57957">
        <ele>389</ele>
        <time>2013-09-22T08:17:39Z</time>
      </trkpt>
      <trkpt lat="45.53822" lon="4.57953">
        <ele>389</ele>
        <time>2013-09-22T08:17:42Z</time>
      </trkpt>
      <trkpt lat="45.53831" lon="4.57948">
        <ele>389</ele>
        <time>2013-09-22T08:17:45Z</time>
      </trkpt>
      <trkpt lat="45.5384" lon="4.57943">
        <ele>388</ele>
        <time>2013-09-22T08:17:48Z</time>
      </trkpt>
      <trkpt lat="45.53848" lon="4.57938">
        <ele>386</ele>
        <time>2013-09-22T08:17:51Z</time>
      </trkpt>
      <trkpt lat="45.53857" lon="4.57934">
        <ele>384</ele>
        <time>2013-09-22T08:17:54Z</time>
      </trkpt>
      <trkpt lat="45.53867" lon="4.57932">
        <ele>381</ele>
        <time>2013-09-22T08:17:57Z</time>
      </trkpt>
      <trkpt lat="45.53877" lon="4.5793">
        <ele>379</ele>
        <time>2013-09-22T08:18:00Z</time>
      </trkpt>
      <trkpt lat="45.53887" lon="4.5793">
        <ele>378</ele>
        <time>2013-09-22T08:18:03Z</time>
      </trkpt>
      <trkpt lat="45.53897" lon="4.57927">
        <ele>376</ele>
        <time>2013-09-22T08:18:06Z</time>
      </trkpt>
      <trkpt lat="45.53907" lon="4.57923">
        <ele>375</ele>
        <time>2013-09-22T08:18:09Z</time>
      </trkpt>
      <trkpt lat="45.53914" lon="4.57918">
        <ele>374</ele>
        <time>2013-09-22T08:18:12Z</time>
      </trkpt>
      <trkpt lat="45.53921" lon="4.57913">
        <ele>373</ele>
        <time>2013-09-22T08:18:15Z</time>
      </trkpt>
      <trkpt lat="45.5393" lon="4.57907">
        <ele>372</ele>
        <time>2013-09-22T08:18:18Z</time>
      </trkpt>
      <trkpt lat="45.53937" lon="4.579">
        <ele>371</ele>
        <time>2013-09-22T08:18:21Z</time>
      </trkpt>
      <trkpt lat="45.53947" lon="4.57897">
        <ele>370</ele>
        <time>2013-09-22T08:18:24Z</time>
      </trkpt>
      <trkpt lat="45.53955" lon="4.57892">
        <ele>368</ele>
        <time>2013-09-22T08:18:27Z</time>
      </trkpt>
      <trkpt lat="45.53965" lon="4.57887">
        <ele>366</ele>
        <time>2013-09-22T08:18:30Z</time>
      </trkpt>
      <trkpt lat="45.53974" lon="4.57882">
        <ele>365</ele>
        <time>2013-09-22T08:18:33Z</time>
      </trkpt>
      <trkpt lat="45.53982" lon="4.57875">
        <ele>363</ele>
        <time>2013-09-22T08:18:36Z</time>
      </trkpt>
      <trkpt lat="45.5399" lon="4.57867">
        <ele>362</ele>
        <time>2013-09-22T08:18:39Z</time>
      </trkpt>
      <trkpt lat="45.53998" lon="4.57857">
        <ele>361</ele>
        <time>2013-09-22T08:18:42Z</time>
      </trkpt>
      <trkpt lat="45.54005" lon="4.57848">
        <ele>361</ele>
        <time>2013-09-22T08:18:45Z</time>
      </trkpt>
      <trkpt lat="45.54012" lon="4.57843">
        <ele>361</ele>
        <time>2013-09-22T08:18:48Z</time>
      </trkpt>
      <trkpt lat="45.54019" lon="4.57838">
        <ele>363</ele>
        <time>2013-09-22T08:18:51Z</time>
      </trkpt>
      <trkpt lat="45.54026" lon="4.57831">
        <ele>366</ele>
        <time>2013-09-22T08:18:54Z</time>
      </trkpt>
      <trkpt lat="45.54032" lon="4.57825">
        <ele>368</ele>
        <time>2013-09-22T08:18:57Z</time>
      </trkpt>
      <trkpt lat="45.54037" lon="4.57819">
        <ele>371</ele>
        <time>2013-09-22T08:19:00Z</time>
      </trkpt>
      <trkpt lat="45.54043" lon="4.57814">
        <ele>374</ele>
        <time>2013-09-22T08:19:03Z</time>
      </trkpt>
      <trkpt lat="45.54047" lon="4.57809">
        <ele>375</ele>
        <time>2013-09-22T08:19:06Z</time>
      </trkpt>
      <trkpt lat="45.54052" lon="4.57807">
        <ele>375</ele>
        <time>2013-09-22T08:19:09Z</time>
      </trkpt>
      <trkpt lat="45.54054" lon="4.57804">
        <ele>375</ele>
        <time>2013-09-22T08:19:12Z</time>
      </trkpt>
      <trkpt lat="45.54058" lon="4.57801">
        <ele>375</ele>
        <time>2013-09-22T08:19:16Z</time>
      </trkpt>
      <trkpt lat="45.54061" lon="4.57799">
        <ele>375</ele>
        <time>2013-09-22T08:19:19Z</time>
      </trkpt>
      <trkpt lat="45.54065" lon="4.57795">
        <ele>375</ele>
        <time>2013-09-22T08:19:22Z</time>
      </trkpt>
      <trkpt lat="45.54071" lon="4.5779">
        <ele>375</ele>
        <time>2013-09-22T08:19:25Z</time>
      </trkpt>
      <trkpt lat="45.54076" lon="4.57786">
        <ele>375</ele>
        <time>2013-09-22T08:19:28Z</time>
      </trkpt>
      <trkpt lat="45.54082" lon="4.57781">
        <ele>375</ele>
        <time>2013-09-22T08:19:31Z</time>
      </trkpt>
      <trkpt lat="45.54087" lon="4.57779">
        <ele>375</ele>
        <time>2013-09-22T08:19:34Z</time>
      </trkpt>
      <trkpt lat="45.5409" lon="4.57775">
        <ele>375</ele>
        <time>2013-09-22T08:19:37Z</time>
      </trkpt>
      <trkpt lat="45.54094" lon="4.57772">
        <ele>375</ele>
        <time>2013-09-22T08:19:41Z</time>
      </trkpt>
      <trkpt lat="45.54097" lon="4.57768">
        <ele>375</ele>
        <time>2013-09-22T08:19:44Z</time>
      </trkpt>
      <trkpt lat="45.541" lon="4.57765">
        <ele>376</ele>
        <time>2013-09-22T08:19:47Z</time>
      </trkpt>
      <trkpt lat="45.54104" lon="4.57763">
        <ele>376</ele>
        <time>2013-09-22T08:19:50Z</time>
      </trkpt>
      <trkpt lat="45.54107" lon="4.57761">
        <ele>377</ele>
        <time>2013-09-22T08:19:53Z</time>
      </trkpt>
      <trkpt lat="45.54111" lon="4.57759">
        <ele>378</ele>
        <time>2013-09-22T08:19:56Z</time>
      </trkpt>
      <trkpt lat="45.54117" lon="4.57755">
        <ele>380</ele>
        <time>2013-09-22T08:19:59Z</time>
      </trkpt>
      <trkpt lat="45.54126" lon="4.5775">
        <ele>382</ele>
        <time>2013-09-22T08:20:02Z</time>
      </trkpt>
      <trkpt lat="45.54135" lon="4.57746">
        <ele>384</ele>
        <time>2013-09-22T08:20:05Z</time>
      </trkpt>
      <trkpt lat="45.54143" lon="4.57744">
        <ele>385</ele>
        <time>2013-09-22T08:20:08Z</time>
      </trkpt>
      <trkpt lat="45.54152" lon="4.5774">
        <ele>385</ele>
        <time>2013-09-22T08:20:11Z</time>
      </trkpt>
      <trkpt lat="45.54159" lon="4.57737">
        <ele>386</ele>
        <time>2013-09-22T08:20:14Z</time>
      </trkpt>
      <trkpt lat="45.54166" lon="4.57735">
        <ele>386</ele>
        <time>2013-09-22T08:20:17Z</time>
      </trkpt>
      <trkpt lat="45.54174" lon="4.57733">
        <ele>386</ele>
        <time>2013-09-22T08:20:20Z</time>
      </trkpt>
      <trkpt lat="45.54181" lon="4.57728">
        <ele>386</ele>
        <time>2013-09-22T08:20:23Z</time>
      </trkpt>
      <trkpt lat="45.54189" lon="4.57725">
        <ele>386</ele>
        <time>2013-09-22T08:20:26Z</time>
      </trkpt>
      <trkpt lat="45.54197" lon="4.5772">
        <ele>386</ele>
        <time>2013-09-22T08:20:29Z</time>
      </trkpt>
      <trkpt lat="45.54206" lon="4.57716">
        <ele>386</ele>
        <time>2013-09-22T08:20:32Z</time>
      </trkpt>
      <trkpt lat="45.54213" lon="4.57711">
        <ele>386</ele>
        <time>2013-09-22T08:20:35Z</time>
      </trkpt>
      <trkpt lat="45.54219" lon="4.57706">
        <ele>386</ele>
        <time>2013-09-22T08:20:38Z</time>
      </trkpt>
      <trkpt lat="45.54226" lon="4.57701">
        <ele>386</ele>
        <time>2013-09-22T08:20:41Z</time>
      </trkpt>
      <trkpt lat="45.54234" lon="4.57697">
        <ele>386</ele>
        <time>2013-09-22T08:20:44Z</time>
      </trkpt>
      <trkpt lat="45.54242" lon="4.57694">
        <ele>386</ele>
        <time>2013-09-22T08:20:47Z</time>
      </trkpt>
      <trkpt lat="45.54249" lon="4.57689">
        <ele>386</ele>
        <time>2013-09-22T08:20:50Z</time>
      </trkpt>
      <trkpt lat="45.54255" lon="4.57683">
        <ele>388</ele>
        <time>2013-09-22T08:20:53Z</time>
      </trkpt>
      <trkpt lat="45.54261" lon="4.57677">
        <ele>388</ele>
        <time>2013-09-22T08:20:56Z</time>
      </trkpt>
      <trkpt lat="45.54267" lon="4.57672">
        <ele>388</ele>
        <time>2013-09-22T08:20:59Z</time>
      </trkpt>
      <trkpt lat="45.54274" lon="4.57668">
        <ele>388</ele>
        <time>2013-09-22T08:21:02Z</time>
      </trkpt>
      <trkpt lat="45.54279" lon="4.57665">
        <ele>388</ele>
        <time>2013-09-22T08:21:05Z</time>
      </trkpt>
      <trkpt lat="45.54285" lon="4.57664">
        <ele>388</ele>
        <time>2013-09-22T08:21:08Z</time>
      </trkpt>
      <trkpt lat="45.54292" lon="4.5766">
        <ele>388</ele>
        <time>2013-09-22T08:21:11Z</time>
      </trkpt>
      <trkpt lat="45.543" lon="4.57654">
        <ele>390</ele>
        <time>2013-09-22T08:21:14Z</time>
      </trkpt>
      <trkpt lat="45.54307" lon="4.57648">
        <ele>392</ele>
        <time>2013-09-22T08:21:17Z</time>
      </trkpt>
      <trkpt lat="45.54313" lon="4.57646">
        <ele>395</ele>
        <time>2013-09-22T08:21:20Z</time>
      </trkpt>
      <trkpt lat="45.54321" lon="4.57646">
        <ele>397</ele>
        <time>2013-09-22T08:21:23Z</time>
      </trkpt>
      <trkpt lat="45.54329" lon="4.57643">
        <ele>397</ele>
        <time>2013-09-22T08:21:26Z</time>
      </trkpt>
      <trkpt lat="45.54338" lon="4.57638">
        <ele>397</ele>
        <time>2013-09-22T08:21:29Z</time>
      </trkpt>
      <trkpt lat="45.54346" lon="4.57634">
        <ele>398</ele>
        <time>2013-09-22T08:21:32Z</time>
      </trkpt>
      <trkpt lat="45.54353" lon="4.57631">
        <ele>400</ele>
        <time>2013-09-22T08:21:35Z</time>
      </trkpt>
      <trkpt lat="45.54362" lon="4.57628">
        <ele>400</ele>
        <time>2013-09-22T08:21:38Z</time>
      </trkpt>
      <trkpt lat="45.5437" lon="4.57624">
        <ele>400</ele>
        <time>2013-09-22T08:21:41Z</time>
      </trkpt>
      <trkpt lat="45.54377" lon="4.57622">
        <ele>400</ele>
        <time>2013-09-22T08:21:44Z</time>
      </trkpt>
      <trkpt lat="45.54382" lon="4.57618">
        <ele>400</ele>
        <time>2013-09-22T08:21:47Z</time>
      </trkpt>
      <trkpt lat="45.5439" lon="4.57617">
        <ele>400</ele>
        <time>2013-09-22T08:21:50Z</time>
      </trkpt>
      <trkpt lat="45.54396" lon="4.57619">
        <ele>400</ele>
        <time>2013-09-22T08:21:53Z</time>
      </trkpt>
      <trkpt lat="45.54403" lon="4.57618">
        <ele>400</ele>
        <time>2013-09-22T08:21:56Z</time>
      </trkpt>
      <trkpt lat="45.54403" lon="4.57613">
        <ele>400</ele>
        <time>2013-09-22T08:22:00Z</time>
      </trkpt>
      <trkpt lat="45.54399" lon="4.5761">
        <ele>400</ele>
        <time>2013-09-22T08:22:03Z</time>
      </trkpt>
      <trkpt lat="45.54398" lon="4.57604">
        <ele>400</ele>
        <time>2013-09-22T08:22:06Z</time>
      </trkpt>
      <trkpt lat="45.54397" lon="4.57599">
        <ele>400</ele>
        <time>2013-09-22T08:22:09Z</time>
      </trkpt>
      <trkpt lat="45.54397" lon="4.57593">
        <ele>400</ele>
        <time>2013-09-22T08:22:12Z</time>
      </trkpt>
      <trkpt lat="45.54399" lon="4.57586">
        <ele>400</ele>
        <time>2013-09-22T08:22:15Z</time>
      </trkpt>
      <trkpt lat="45.54401" lon="4.57583">
        <ele>400</ele>
        <time>2013-09-22T08:22:18Z</time>
      </trkpt>
      <trkpt lat="45.54405" lon="4.57578">
        <ele>400</ele>
        <time>2013-09-22T08:22:21Z</time>
      </trkpt>
      <trkpt lat="45.5441" lon="4.57573">
        <ele>400</ele>
        <time>2013-09-22T08:22:25Z</time>
      </trkpt>
      <trkpt lat="45.54413" lon="4.57569">
        <ele>400</ele>
        <time>2013-09-22T08:22:28Z</time>
      </trkpt>
      <trkpt lat="45.54417" lon="4.57565">
        <ele>400</ele>
        <time>2013-09-22T08:22:32Z</time>
      </trkpt>
      <trkpt lat="45.5442" lon="4.57561">
        <ele>400</ele>
        <time>2013-09-22T08:22:36Z</time>
      </trkpt>
      <trkpt lat="45.54424" lon="4.57556">
        <ele>400</ele>
        <time>2013-09-22T08:22:40Z</time>
      </trkpt>
      <trkpt lat="45.54425" lon="4.57551">
        <ele>400</ele>
        <time>2013-09-22T08:22:43Z</time>
      </trkpt>
      <trkpt lat="45.54428" lon="4.57548">
        <ele>401</ele>
        <time>2013-09-22T08:22:46Z</time>
      </trkpt>
      <trkpt lat="45.54431" lon="4.57543">
        <ele>403</ele>
        <time>2013-09-22T08:22:50Z</time>
      </trkpt>
      <trkpt lat="45.54435" lon="4.57537">
        <ele>404</ele>
        <time>2013-09-22T08:22:54Z</time>
      </trkpt>
      <trkpt lat="45.54439" lon="4.57531">
        <ele>405</ele>
        <time>2013-09-22T08:22:58Z</time>
      </trkpt>
      <trkpt lat="45.54443" lon="4.57527">
        <ele>406</ele>
        <time>2013-09-22T08:23:02Z</time>
      </trkpt>
      <trkpt lat="45.54446" lon="4.57524">
        <ele>407</ele>
        <time>2013-09-22T08:23:05Z</time>
      </trkpt>
      <trkpt lat="45.54451" lon="4.5752">
        <ele>408</ele>
        <time>2013-09-22T08:23:09Z</time>
      </trkpt>
      <trkpt lat="45.54455" lon="4.57517">
        <ele>408</ele>
        <time>2013-09-22T08:23:12Z</time>
      </trkpt>
      <trkpt lat="45.54458" lon="4.57513">
        <ele>408</ele>
        <time>2013-09-22T08:23:15Z</time>
      </trkpt>
      <trkpt lat="45.5446" lon="4.57508">
        <ele>409</ele>
        <time>2013-09-22T08:23:18Z</time>
      </trkpt>
      <trkpt lat="45.54463" lon="4.57504">
        <ele>410</ele>
        <time>2013-09-22T08:23:21Z</time>
      </trkpt>
      <trkpt lat="45.54464" lon="4.57499">
        <ele>412</ele>
        <time>2013-09-22T08:23:24Z</time>
      </trkpt>
      <trkpt lat="45.54466" lon="4.57493">
        <ele>414</ele>
        <time>2013-09-22T08:23:27Z</time>
      </trkpt>
      <trkpt lat="45.54468" lon="4.57488">
        <ele>414</ele>
        <time>2013-09-22T08:23:30Z</time>
      </trkpt>
      <trkpt lat="45.5447" lon="4.57482">
        <ele>415</ele>
        <time>2013-09-22T08:23:33Z</time>
      </trkpt>
      <trkpt lat="45.54471" lon="4.57476">
        <ele>416</ele>
        <time>2013-09-22T08:23:36Z</time>
      </trkpt>
      <trkpt lat="45.54474" lon="4.57469">
        <ele>418</ele>
        <time>2013-09-22T08:23:40Z</time>
      </trkpt>
      <trkpt lat="45.54476" lon="4.57463">
        <ele>418</ele>
        <time>2013-09-22T08:23:43Z</time>
      </trkpt>
      <trkpt lat="45.54478" lon="4.57457">
        <ele>419</ele>
        <time>2013-09-22T08:23:46Z</time>
      </trkpt>
      <trkpt lat="45.5448" lon="4.57452">
        <ele>420</ele>
        <time>2013-09-22T08:23:49Z</time>
      </trkpt>
      <trkpt lat="45.54482" lon="4.57447">
        <ele>421</ele>
        <time>2013-09-22T08:23:52Z</time>
      </trkpt>
      <trkpt lat="45.54483" lon="4.57442">
        <ele>422</ele>
        <time>2013-09-22T08:23:55Z</time>
      </trkpt>
      <trkpt lat="45.54483" lon="4.57436">
        <ele>423</ele>
        <time>2013-09-22T08:23:58Z</time>
      </trkpt>
      <trkpt lat="45.54484" lon="4.57429">
        <ele>423</ele>
        <time>2013-09-22T08:24:01Z</time>
      </trkpt>
      <trkpt lat="45.54485" lon="4.57421">
        <ele>424</ele>
        <time>2013-09-22T08:24:04Z</time>
      </trkpt>
      <trkpt lat="45.54488" lon="4.57414">
        <ele>425</ele>
        <time>2013-09-22T08:24:07Z</time>
      </trkpt>
      <trkpt lat="45.5449" lon="4.57406">
        <ele>425</ele>
        <time>2013-09-22T08:24:10Z</time>
      </trkpt>
      <trkpt lat="45.54494" lon="4.57398">
        <ele>425</ele>
        <time>2013-09-22T08:24:13Z</time>
      </trkpt>
      <trkpt lat="45.54498" lon="4.5739">
        <ele>426</ele>
        <time>2013-09-22T08:24:16Z</time>
      </trkpt>
      <trkpt lat="45.54504" lon="4.57384">
        <ele>426</ele>
        <time>2013-09-22T08:24:19Z</time>
      </trkpt>
      <trkpt lat="45.54507" lon="4.57379">
        <ele>427</ele>
        <time>2013-09-22T08:24:22Z</time>
      </trkpt>
      <trkpt lat="45.54512" lon="4.57374">
        <ele>428</ele>
        <time>2013-09-22T08:24:26Z</time>
      </trkpt>
      <trkpt lat="45.54515" lon="4.57371">
        <ele>428</ele>
        <time>2013-09-22T08:24:29Z</time>
      </trkpt>
      <trkpt lat="45.54519" lon="4.57367">
        <ele>428</ele>
        <time>2013-09-22T08:24:32Z</time>
      </trkpt>
      <trkpt lat="45.54524" lon="4.57364">
        <ele>428</ele>
        <time>2013-09-22T08:24:35Z</time>
      </trkpt>
      <trkpt lat="45.54528" lon="4.57361">
        <ele>429</ele>
        <time>2013-09-22T08:24:38Z</time>
      </trkpt>
      <trkpt lat="45.54531" lon="4.57358">
        <ele>429</ele>
        <time>2013-09-22T08:24:41Z</time>
      </trkpt>
      <trkpt lat="45.54535" lon="4.57354">
        <ele>429</ele>
        <time>2013-09-22T08:24:44Z</time>
      </trkpt>
      <trkpt lat="45.54539" lon="4.5735">
        <ele>430</ele>
        <time>2013-09-22T08:24:47Z</time>
      </trkpt>
      <trkpt lat="45.54544" lon="4.57346">
        <ele>430</ele>
        <time>2013-09-22T08:24:50Z</time>
      </trkpt>
      <trkpt lat="45.54549" lon="4.57341">
        <ele>430</ele>
        <time>2013-09-22T08:24:53Z</time>
      </trkpt>
      <trkpt lat="45.54554" lon="4.57333">
        <ele>431</ele>
        <time>2013-09-22T08:24:56Z</time>
      </trkpt>
      <trkpt lat="45.54553" lon="4.57325">
        <ele>432</ele>
        <time>2013-09-22T08:24:59Z</time>
      </trkpt>
      <trkpt lat="45.54549" lon="4.57315">
        <ele>433</ele>
        <time>2013-09-22T08:25:02Z</time>
      </trkpt>
      <trkpt lat="45.54544" lon="4.57305">
        <ele>434</ele>
        <time>2013-09-22T08:25:05Z</time>
      </trkpt>
      <trkpt lat="45.54539" lon="4.57295">
        <ele>435</ele>
        <time>2013-09-22T08:25:08Z</time>
      </trkpt>
      <trkpt lat="45.54535" lon="4.57285">
        <ele>436</ele>
        <time>2013-09-22T08:25:11Z</time>
      </trkpt>
      <trkpt lat="45.54531" lon="4.57274">
        <ele>436</ele>
        <time>2013-09-22T08:25:14Z</time>
      </trkpt>
      <trkpt lat="45.54527" lon="4.57263">
        <ele>437</ele>
        <time>2013-09-22T08:25:17Z</time>
      </trkpt>
      <trkpt lat="45.54522" lon="4.57253">
        <ele>438</ele>
        <time>2013-09-22T08:25:20Z</time>
      </trkpt>
      <trkpt lat="45.54519" lon="4.57242">
        <ele>439</ele>
        <time>2013-09-22T08:25:23Z</time>
      </trkpt>
      <trkpt lat="45.54516" lon="4.57231">
        <ele>439</ele>
        <time>2013-09-22T08:25:26Z</time>
      </trkpt>
      <trkpt lat="45.54513" lon="4.57221">
        <ele>439</ele>
        <time>2013-09-22T08:25:29Z</time>
      </trkpt>
      <trkpt lat="45.54511" lon="4.57211">
        <ele>439</ele>
        <time>2013-09-22T08:25:32Z</time>
      </trkpt>
      <trkpt lat="45.54509" lon="4.572">
        <ele>439</ele>
        <time>2013-09-22T08:25:35Z</time>
      </trkpt>
      <trkpt lat="45.54506" lon="4.5719">
        <ele>439</ele>
        <time>2013-09-22T08:25:38Z</time>
      </trkpt>
      <trkpt lat="45.54507" lon="4.57179">
        <ele>439</ele>
        <time>2013-09-22T08:25:41Z</time>
      </trkpt>
      <trkpt lat="45.54511" lon="4.57169">
        <ele>439</ele>
        <time>2013-09-22T08:25:44Z</time>
      </trkpt>
      <trkpt lat="45.54516" lon="4.57161">
        <ele>439</ele>
        <time>2013-09-22T08:25:47Z</time>
      </trkpt>
      <trkpt lat="45.54521" lon="4.57153">
        <ele>439</ele>
        <time>2013-09-22T08:25:50Z</time>
      </trkpt>
      <trkpt lat="45.54524" lon="4.57144">
        <ele>439</ele>
        <time>2013-09-22T08:25:53Z</time>
      </trkpt>
      <trkpt lat="45.54528" lon="4.57136">
        <ele>439</ele>
        <time>2013-09-22T08:25:56Z</time>
      </trkpt>
      <trkpt lat="45.54531" lon="4.57127">
        <ele>439</ele>
        <time>2013-09-22T08:25:59Z</time>
      </trkpt>
      <trkpt lat="45.54535" lon="4.57118">
        <ele>439</ele>
        <time>2013-09-22T08:26:02Z</time>
      </trkpt>
      <trkpt lat="45.54538" lon="4.57109">
        <ele>439</ele>
        <time>2013-09-22T08:26:05Z</time>
      </trkpt>
      <trkpt lat="45.54538" lon="4.57099">
        <ele>440</ele>
        <time>2013-09-22T08:26:08Z</time>
      </trkpt>
      <trkpt lat="45.54536" lon="4.57089">
        <ele>441</ele>
        <time>2013-09-22T08:26:11Z</time>
      </trkpt>
      <trkpt lat="45.54534" lon="4.57078">
        <ele>442</ele>
        <time>2013-09-22T08:26:14Z</time>
      </trkpt>
      <trkpt lat="45.54533" lon="4.57069">
        <ele>442</ele>
        <time>2013-09-22T08:26:17Z</time>
      </trkpt>
      <trkpt lat="45.5453" lon="4.57061">
        <ele>443</ele>
        <time>2013-09-22T08:26:20Z</time>
      </trkpt>
      <trkpt lat="45.54526" lon="4.57052">
        <ele>444</ele>
        <time>2013-09-22T08:26:23Z</time>
      </trkpt>
      <trkpt lat="45.54523" lon="4.57044">
        <ele>445</ele>
        <time>2013-09-22T08:26:26Z</time>
      </trkpt>
      <trkpt lat="45.5452" lon="4.57036">
        <ele>445</ele>
        <time>2013-09-22T08:26:29Z</time>
      </trkpt>
      <trkpt lat="45.54517" lon="4.57029">
        <ele>446</ele>
        <time>2013-09-22T08:26:32Z</time>
      </trkpt>
      <trkpt lat="45.54514" lon="4.57022">
        <ele>447</ele>
        <time>2013-09-22T08:26:35Z</time>
      </trkpt>
      <trkpt lat="45.5451" lon="4.57015">
        <ele>449</ele>
        <time>2013-09-22T08:26:38Z</time>
      </trkpt>
      <trkpt lat="45.54507" lon="4.57007">
        <ele>450</ele>
        <time>2013-09-22T08:26:41Z</time>
      </trkpt>
      <trkpt lat="45.54504" lon="4.57002">
        <ele>450</ele>
        <time>2013-09-22T08:26:44Z</time>
      </trkpt>
      <trkpt lat="45.54504" lon="4.56996">
        <ele>451</ele>
        <time>2013-09-22T08:26:47Z</time>
      </trkpt>
      <trkpt lat="45.54502" lon="4.5699">
        <ele>451</ele>
        <time>2013-09-22T08:26:50Z</time>
      </trkpt>
      <trkpt lat="45.54499" lon="4.56982">
        <ele>451</ele>
        <time>2013-09-22T08:26:53Z</time>
      </trkpt>
      <trkpt lat="45.54498" lon="4.56973">
        <ele>451</ele>
        <time>2013-09-22T08:26:56Z</time>
      </trkpt>
      <trkpt lat="45.54495" lon="4.56964">
        <ele>451</ele>
        <time>2013-09-22T08:26:59Z</time>
      </trkpt>
      <trkpt lat="45.5449" lon="4.56956">
        <ele>452</ele>
        <time>2013-09-22T08:27:02Z</time>
      </trkpt>
      <trkpt lat="45.54485" lon="4.56946">
        <ele>452</ele>
        <time>2013-09-22T08:27:05Z</time>
      </trkpt>
      <trkpt lat="45.54482" lon="4.56936">
        <ele>453</ele>
        <time>2013-09-22T08:27:08Z</time>
      </trkpt>
      <trkpt lat="45.54479" lon="4.56926">
        <ele>453</ele>
        <time>2013-09-22T08:27:11Z</time>
      </trkpt>
      <trkpt lat="45.54475" lon="4.56917">
        <ele>454</ele>
        <time>2013-09-22T08:27:14Z</time>
      </trkpt>
      <trkpt lat="45.54471" lon="4.56906">
        <ele>455</ele>
        <time>2013-09-22T08:27:17Z</time>
      </trkpt>
      <trkpt lat="45.54467" lon="4.56896">
        <ele>455</ele>
        <time>2013-09-22T08:27:20Z</time>
      </trkpt>
      <trkpt lat="45.54463" lon="4.56886">
        <ele>456</ele>
        <time>2013-09-22T08:27:23Z</time>
      </trkpt>
      <trkpt lat="45.54458" lon="4.56877">
        <ele>456</ele>
        <time>2013-09-22T08:27:26Z</time>
      </trkpt>
      <trkpt lat="45.54453" lon="4.56868">
        <ele>457</ele>
        <time>2013-09-22T08:27:29Z</time>
      </trkpt>
      <trkpt lat="45.54449" lon="4.56858">
        <ele>457</ele>
        <time>2013-09-22T08:27:32Z</time>
      </trkpt>
      <trkpt lat="45.54443" lon="4.56859">
        <ele>457</ele>
        <time>2013-09-22T08:27:35Z</time>
      </trkpt>
      <trkpt lat="45.54438" lon="4.56865">
        <ele>457</ele>
        <time>2013-09-22T08:27:38Z</time>
      </trkpt>
      <trkpt lat="45.54432" lon="4.56872">
        <ele>457</ele>
        <time>2013-09-22T08:27:41Z</time>
      </trkpt>
      <trkpt lat="45.54426" lon="4.56879">
        <ele>457</ele>
        <time>2013-09-22T08:27:44Z</time>
      </trkpt>
      <trkpt lat="45.5442" lon="4.56887">
        <ele>457</ele>
        <time>2013-09-22T08:27:47Z</time>
      </trkpt>
      <trkpt lat="45.54415" lon="4.56896">
        <ele>457</ele>
        <time>2013-09-22T08:27:50Z</time>
      </trkpt>
      <trkpt lat="45.5441" lon="4.56906">
        <ele>457</ele>
        <time>2013-09-22T08:27:53Z</time>
      </trkpt>
      <trkpt lat="45.54406" lon="4.56917">
        <ele>457</ele>
        <time>2013-09-22T08:27:56Z</time>
      </trkpt>
      <trkpt lat="45.54403" lon="4.56929">
        <ele>457</ele>
        <time>2013-09-22T08:27:59Z</time>
      </trkpt>
      <trkpt lat="45.54398" lon="4.56939">
        <ele>457</ele>
        <time>2013-09-22T08:28:02Z</time>
      </trkpt>
      <trkpt lat="45.54394" lon="4.5695">
        <ele>457</ele>
        <time>2013-09-22T08:28:05Z</time>
      </trkpt>
      <trkpt lat="45.5439" lon="4.5696">
        <ele>457</ele>
        <time>2013-09-22T08:28:08Z</time>
      </trkpt>
      <trkpt lat="45.54385" lon="4.56971">
        <ele>457</ele>
        <time>2013-09-22T08:28:11Z</time>
      </trkpt>
      <trkpt lat="45.5438" lon="4.5698">
        <ele>457</ele>
        <time>2013-09-22T08:28:14Z</time>
      </trkpt>
      <trkpt lat="45.54376" lon="4.56989">
        <ele>457</ele>
        <time>2013-09-22T08:28:17Z</time>
      </trkpt>
      <trkpt lat="45.5437" lon="4.56997">
        <ele>457</ele>
        <time>2013-09-22T08:28:20Z</time>
      </trkpt>
      <trkpt lat="45.54366" lon="4.57005">
        <ele>457</ele>
        <time>2013-09-22T08:28:23Z</time>
      </trkpt>
      <trkpt lat="45.54361" lon="4.57014">
        <ele>457</ele>
        <time>2013-09-22T08:28:26Z</time>
      </trkpt>
      <trkpt lat="45.54356" lon="4.5702">
        <ele>457</ele>
        <time>2013-09-22T08:28:29Z</time>
      </trkpt>
      <trkpt lat="45.54349" lon="4.57021">
        <ele>457</ele>
        <time>2013-09-22T08:28:32Z</time>
      </trkpt>
      <trkpt lat="45.54343" lon="4.57013">
        <ele>457</ele>
        <time>2013-09-22T08:28:35Z</time>
      </trkpt>
      <trkpt lat="45.54337" lon="4.57007">
        <ele>457</ele>
        <time>2013-09-22T08:28:38Z</time>
      </trkpt>
      <trkpt lat="45.5433" lon="4.57">
        <ele>457</ele>
        <time>2013-09-22T08:28:41Z</time>
      </trkpt>
      <trkpt lat="45.54324" lon="4.56993">
        <ele>457</ele>
        <time>2013-09-22T08:28:44Z</time>
      </trkpt>
      <trkpt lat="45.54317" lon="4.56986">
        <ele>457</ele>
        <time>2013-09-22T08:28:47Z</time>
      </trkpt>
      <trkpt lat="45.54311" lon="4.56978">
        <ele>457</ele>
        <time>2013-09-22T08:28:50Z</time>
      </trkpt>
      <trkpt lat="45.54305" lon="4.56968">
        <ele>457</ele>
        <time>2013-09-22T08:28:53Z</time>
      </trkpt>
      <trkpt lat="45.54299" lon="4.5696">
        <ele>457</ele>
        <time>2013-09-22T08:28:56Z</time>
      </trkpt>
      <trkpt lat="45.54293" lon="4.56951">
        <ele>457</ele>
        <time>2013-09-22T08:28:59Z</time>
      </trkpt>
      <trkpt lat="45.54287" lon="4.56942">
        <ele>456</ele>
        <time>2013-09-22T08:29:02Z</time>
      </trkpt>
      <trkpt lat="45.54282" lon="4.56932">
        <ele>456</ele>
        <time>2013-09-22T08:29:05Z</time>
      </trkpt>
      <trkpt lat="45.54277" lon="4.56923">
        <ele>455</ele>
        <time>2013-09-22T08:29:08Z</time>
      </trkpt>
      <trkpt lat="45.54273" lon="4.5691">
        <ele>453</ele>
        <time>2013-09-22T08:29:11Z</time>
      </trkpt>
      <trkpt lat="45.54271" lon="4.56898">
        <ele>451</ele>
        <time>2013-09-22T08:29:14Z</time>
      </trkpt>
      <trkpt lat="45.54269" lon="4.56885">
        <ele>450</ele>
        <time>2013-09-22T08:29:17Z</time>
      </trkpt>
      <trkpt lat="45.54267" lon="4.56873">
        <ele>449</ele>
        <time>2013-09-22T08:29:20Z</time>
      </trkpt>
      <trkpt lat="45.54264" lon="4.5686">
        <ele>449</ele>
        <time>2013-09-22T08:29:23Z</time>
      </trkpt>
      <trkpt lat="45.54261" lon="4.56848">
        <ele>448</ele>
        <time>2013-09-22T08:29:26Z</time>
      </trkpt>
      <trkpt lat="45.54258" lon="4.56836">
        <ele>448</ele>
        <time>2013-09-22T08:29:29Z</time>
      </trkpt>
      <trkpt lat="45.54254" lon="4.56825">
        <ele>447</ele>
        <time>2013-09-22T08:29:32Z</time>
      </trkpt>
      <trkpt lat="45.54248" lon="4.56815">
        <ele>447</ele>
        <time>2013-09-22T08:29:35Z</time>
      </trkpt>
      <trkpt lat="45.54241" lon="4.56804">
        <ele>446</ele>
        <time>2013-09-22T08:29:38Z</time>
      </trkpt>
      <trkpt lat="45.54234" lon="4.56795">
        <ele>445</ele>
        <time>2013-09-22T08:29:41Z</time>
      </trkpt>
      <trkpt lat="45.54228" lon="4.56787">
        <ele>444</ele>
        <time>2013-09-22T08:29:44Z</time>
      </trkpt>
      <trkpt lat="45.54221" lon="4.56778">
        <ele>443</ele>
        <time>2013-09-22T08:29:47Z</time>
      </trkpt>
      <trkpt lat="45.54214" lon="4.56771">
        <ele>441</ele>
        <time>2013-09-22T08:29:50Z</time>
      </trkpt>
      <trkpt lat="45.54207" lon="4.56763">
        <ele>440</ele>
        <time>2013-09-22T08:29:53Z</time>
      </trkpt>
      <trkpt lat="45.54201" lon="4.56755">
        <ele>438</ele>
        <time>2013-09-22T08:29:56Z</time>
      </trkpt>
      <trkpt lat="45.54195" lon="4.56749">
        <ele>436</ele>
        <time>2013-09-22T08:29:59Z</time>
      </trkpt>
      <trkpt lat="45.54189" lon="4.56747">
        <ele>436</ele>
        <time>2013-09-22T08:30:02Z</time>
      </trkpt>
      <trkpt lat="45.54181" lon="4.5675">
        <ele>436</ele>
        <time>2013-09-22T08:30:05Z</time>
      </trkpt>
      <trkpt lat="45.54173" lon="4.56754">
        <ele>436</ele>
        <time>2013-09-22T08:30:08Z</time>
      </trkpt>
      <trkpt lat="45.54165" lon="4.56758">
        <ele>436</ele>
        <time>2013-09-22T08:30:11Z</time>
      </trkpt>
      <trkpt lat="45.54156" lon="4.56759">
        <ele>436</ele>
        <time>2013-09-22T08:30:14Z</time>
      </trkpt>
      <trkpt lat="45.54149" lon="4.56757">
        <ele>436</ele>
        <time>2013-09-22T08:30:17Z</time>
      </trkpt>
      <trkpt lat="45.54141" lon="4.56753">
        <ele>436</ele>
        <time>2013-09-22T08:30:20Z</time>
      </trkpt>
      <trkpt lat="45.54134" lon="4.56749">
        <ele>436</ele>
        <time>2013-09-22T08:30:23Z</time>
      </trkpt>
      <trkpt lat="45.54126" lon="4.56746">
        <ele>436</ele>
        <time>2013-09-22T08:30:26Z</time>
      </trkpt>
      <trkpt lat="45.54119" lon="4.56748">
        <ele>436</ele>
        <time>2013-09-22T08:30:29Z</time>
      </trkpt>
      <trkpt lat="45.54111" lon="4.56749">
        <ele>436</ele>
        <time>2013-09-22T08:30:32Z</time>
      </trkpt>
      <trkpt lat="45.54105" lon="4.56751">
        <ele>436</ele>
        <time>2013-09-22T08:30:35Z</time>
      </trkpt>
      <trkpt lat="45.54099" lon="4.56753">
        <ele>436</ele>
        <time>2013-09-22T08:30:38Z</time>
      </trkpt>
      <trkpt lat="45.54093" lon="4.56758">
        <ele>436</ele>
        <time>2013-09-22T08:30:41Z</time>
      </trkpt>
      <trkpt lat="45.54086" lon="4.56761">
        <ele>436</ele>
        <time>2013-09-22T08:30:44Z</time>
      </trkpt>
      <trkpt lat="45.54079" lon="4.56761">
        <ele>437</ele>
        <time>2013-09-22T08:30:47Z</time>
      </trkpt>
      <trkpt lat="45.5407" lon="4.56757">
        <ele>437</ele>
        <time>2013-09-22T08:30:50Z</time>
      </trkpt>
      <trkpt lat="45.54064" lon="4.5675">
        <ele>437</ele>
        <time>2013-09-22T08:30:53Z</time>
      </trkpt>
      <trkpt lat="45.54058" lon="4.56743">
        <ele>438</ele>
        <time>2013-09-22T08:30:56Z</time>
      </trkpt>
      <trkpt lat="45.54053" lon="4.56737">
        <ele>440</ele>
        <time>2013-09-22T08:30:59Z</time>
      </trkpt>
      <trkpt lat="45.54049" lon="4.5673">
        <ele>440</ele>
        <time>2013-09-22T08:31:02Z</time>
      </trkpt>
      <trkpt lat="45.54045" lon="4.56723">
        <ele>441</ele>
        <time>2013-09-22T08:31:05Z</time>
      </trkpt>
      <trkpt lat="45.54042" lon="4.56717">
        <ele>442</ele>
        <time>2013-09-22T08:31:08Z</time>
      </trkpt>
      <trkpt lat="45.54038" lon="4.56712">
        <ele>442</ele>
        <time>2013-09-22T08:31:11Z</time>
      </trkpt>
      <trkpt lat="45.54033" lon="4.56707">
        <ele>443</ele>
        <time>2013-09-22T08:31:14Z</time>
      </trkpt>
      <trkpt lat="45.54029" lon="4.56701">
        <ele>444</ele>
        <time>2013-09-22T08:31:17Z</time>
      </trkpt>
      <trkpt lat="45.54024" lon="4.56694">
        <ele>445</ele>
        <time>2013-09-22T08:31:20Z</time>
      </trkpt>
      <trkpt lat="45.5402" lon="4.56688">
        <ele>445</ele>
        <time>2013-09-22T08:31:23Z</time>
      </trkpt>
      <trkpt lat="45.54016" lon="4.56682">
        <ele>446</ele>
        <time>2013-09-22T08:31:26Z</time>
      </trkpt>
      <trkpt lat="45.54011" lon="4.56676">
        <ele>447</ele>
        <time>2013-09-22T08:31:29Z</time>
      </trkpt>
      <trkpt lat="45.54005" lon="4.56671">
        <ele>448</ele>
        <time>2013-09-22T08:31:32Z</time>
      </trkpt>
      <trkpt lat="45.54" lon="4.56665">
        <ele>449</ele>
        <time>2013-09-22T08:31:35Z</time>
      </trkpt>
      <trkpt lat="45.53994" lon="4.56659">
        <ele>450</ele>
        <time>2013-09-22T08:31:38Z</time>
      </trkpt>
      <trkpt lat="45.53993" lon="4.56648">
        <ele>451</ele>
        <time>2013-09-22T08:31:41Z</time>
      </trkpt>
      <trkpt lat="45.54" lon="4.56637">
        <ele>451</ele>
        <time>2013-09-22T08:31:44Z</time>
      </trkpt>
      <trkpt lat="45.54006" lon="4.56628">
        <ele>451</ele>
        <time>2013-09-22T08:31:47Z</time>
      </trkpt>
      <trkpt lat="45.54013" lon="4.5662">
        <ele>451</ele>
        <time>2013-09-22T08:31:50Z</time>
      </trkpt>
      <trkpt lat="45.5402" lon="4.56613">
        <ele>451</ele>
        <time>2013-09-22T08:31:53Z</time>
      </trkpt>
      <trkpt lat="45.54026" lon="4.56605">
        <ele>451</ele>
        <time>2013-09-22T08:31:56Z</time>
      </trkpt>
      <trkpt lat="45.54031" lon="4.56599">
        <ele>451</ele>
        <time>2013-09-22T08:31:59Z</time>
      </trkpt>
      <trkpt lat="45.54029" lon="4.56591">
        <ele>451</ele>
        <time>2013-09-22T08:32:02Z</time>
      </trkpt>
      <trkpt lat="45.54024" lon="4.56581">
        <ele>451</ele>
        <time>2013-09-22T08:32:05Z</time>
      </trkpt>
      <trkpt lat="45.54019" lon="4.56572">
        <ele>451</ele>
        <time>2013-09-22T08:32:08Z</time>
      </trkpt>
      <trkpt lat="45.54013" lon="4.5656">
        <ele>451</ele>
        <time>2013-09-22T08:32:11Z</time>
      </trkpt>
      <trkpt lat="45.54008" lon="4.5655">
        <ele>451</ele>
        <time>2013-09-22T08:32:14Z</time>
      </trkpt>
      <trkpt lat="45.54007" lon="4.56538">
        <ele>451</ele>
        <time>2013-09-22T08:32:17Z</time>
      </trkpt>
      <trkpt lat="45.54007" lon="4.56526">
        <ele>451</ele>
        <time>2013-09-22T08:32:20Z</time>
      </trkpt>
      <trkpt lat="45.54005" lon="4.56513">
        <ele>451</ele>
        <time>2013-09-22T08:32:23Z</time>
      </trkpt>
      <trkpt lat="45.54004" lon="4.56501">
        <ele>451</ele>
        <time>2013-09-22T08:32:26Z</time>
      </trkpt>
      <trkpt lat="45.54003" lon="4.56489">
        <ele>451</ele>
        <time>2013-09-22T08:32:29Z</time>
      </trkpt>
      <trkpt lat="45.54003" lon="4.56477">
        <ele>451</ele>
        <time>2013-09-22T08:32:32Z</time>
      </trkpt>
      <trkpt lat="45.54002" lon="4.56464">
        <ele>451</ele>
        <time>2013-09-22T08:32:35Z</time>
      </trkpt>
      <trkpt lat="45.54004" lon="4.56453">
        <ele>451</ele>
        <time>2013-09-22T08:32:38Z</time>
      </trkpt>
      <trkpt lat="45.54005" lon="4.56441">
        <ele>449</ele>
        <time>2013-09-22T08:32:41Z</time>
      </trkpt>
      <trkpt lat="45.54007" lon="4.56428">
        <ele>448</ele>
        <time>2013-09-22T08:32:44Z</time>
      </trkpt>
      <trkpt lat="45.54007" lon="4.56416">
        <ele>447</ele>
        <time>2013-09-22T08:32:47Z</time>
      </trkpt>
      <trkpt lat="45.54007" lon="4.56405">
        <ele>447</ele>
        <time>2013-09-22T08:32:50Z</time>
      </trkpt>
      <trkpt lat="45.54007" lon="4.56394">
        <ele>446</ele>
        <time>2013-09-22T08:32:53Z</time>
      </trkpt>
      <trkpt lat="45.5401" lon="4.56383">
        <ele>446</ele>
        <time>2013-09-22T08:32:56Z</time>
      </trkpt>
      <trkpt lat="45.54018" lon="4.56375">
        <ele>445</ele>
        <time>2013-09-22T08:32:59Z</time>
      </trkpt>
      <trkpt lat="45.54025" lon="4.56365">
        <ele>444</ele>
        <time>2013-09-22T08:33:02Z</time>
      </trkpt>
      <trkpt lat="45.5403" lon="4.56353">
        <ele>444</ele>
        <time>2013-09-22T08:33:05Z</time>
      </trkpt>
      <trkpt lat="45.54034" lon="4.56342">
        <ele>443</ele>
        <time>2013-09-22T08:33:08Z</time>
      </trkpt>
      <trkpt lat="45.54036" lon="4.5633">
        <ele>441</ele>
        <time>2013-09-22T08:33:11Z</time>
      </trkpt>
      <trkpt lat="45.54039" lon="4.56317">
        <ele>438</ele>
        <time>2013-09-22T08:33:14Z</time>
      </trkpt>
      <trkpt lat="45.54042" lon="4.56307">
        <ele>436</ele>
        <time>2013-09-22T08:33:17Z</time>
      </trkpt>
      <trkpt lat="45.54047" lon="4.56296">
        <ele>433</ele>
        <time>2013-09-22T08:33:20Z</time>
      </trkpt>
      <trkpt lat="45.54055" lon="4.56282">
        <ele>431</ele>
        <time>2013-09-22T08:33:23Z</time>
      </trkpt>
      <trkpt lat="45.54065" lon="4.56272">
        <ele>428</ele>
        <time>2013-09-22T08:33:26Z</time>
      </trkpt>
      <trkpt lat="45.54073" lon="4.56262">
        <ele>426</ele>
        <time>2013-09-22T08:33:29Z</time>
      </trkpt>
      <trkpt lat="45.54075" lon="4.56249">
        <ele>424</ele>
        <time>2013-09-22T08:33:32Z</time>
      </trkpt>
      <trkpt lat="45.54076" lon="4.56235">
        <ele>423</ele>
        <time>2013-09-22T08:33:35Z</time>
      </trkpt>
      <trkpt lat="45.54075" lon="4.56224">
        <ele>422</ele>
        <time>2013-09-22T08:33:38Z</time>
      </trkpt>
      <trkpt lat="45.54072" lon="4.56214">
        <ele>422</ele>
        <time>2013-09-22T08:33:41Z</time>
      </trkpt>
      <trkpt lat="45.5407" lon="4.56205">
        <ele>422</ele>
        <time>2013-09-22T08:33:44Z</time>
      </trkpt>
      <trkpt lat="45.54064" lon="4.56199">
        <ele>422</ele>
        <time>2013-09-22T08:33:47Z</time>
      </trkpt>
      <trkpt lat="45.54057" lon="4.56195">
        <ele>422</ele>
        <time>2013-09-22T08:33:50Z</time>
      </trkpt>
      <trkpt lat="45.54047" lon="4.56192">
        <ele>422</ele>
        <time>2013-09-22T08:33:53Z</time>
      </trkpt>
      <trkpt lat="45.54038" lon="4.56189">
        <ele>422</ele>
        <time>2013-09-22T08:33:56Z</time>
      </trkpt>
      <trkpt lat="45.54029" lon="4.56185">
        <ele>422</ele>
        <time>2013-09-22T08:33:59Z</time>
      </trkpt>
      <trkpt lat="45.54022" lon="4.5618">
        <ele>422</ele>
        <time>2013-09-22T08:34:02Z</time>
      </trkpt>
      <trkpt lat="45.54015" lon="4.56176">
        <ele>422</ele>
        <time>2013-09-22T08:34:05Z</time>
      </trkpt>
      <trkpt lat="45.54008" lon="4.56171">
        <ele>422</ele>
        <time>2013-09-22T08:34:08Z</time>
      </trkpt>
      <trkpt lat="45.54" lon="4.56169">
        <ele>422</ele>
        <time>2013-09-22T08:34:11Z</time>
      </trkpt>
      <trkpt lat="45.53994" lon="4.56164">
        <ele>422</ele>
        <time>2013-09-22T08:34:14Z</time>
      </trkpt>
      <trkpt lat="45.53988" lon="4.56158">
        <ele>422</ele>
        <time>2013-09-22T08:34:17Z</time>
      </trkpt>
      <trkpt lat="45.53982" lon="4.56153">
        <ele>422</ele>
        <time>2013-09-22T08:34:20Z</time>
      </trkpt>
      <trkpt lat="45.53975" lon="4.56147">
        <ele>422</ele>
        <time>2013-09-22T08:34:23Z</time>
      </trkpt>
      <trkpt lat="45.53969" lon="4.56142">
        <ele>423</ele>
        <time>2013-09-22T08:34:26Z</time>
      </trkpt>
      <trkpt lat="45.53964" lon="4.56136">
        <ele>424</ele>
        <time>2013-09-22T08:34:29Z</time>
      </trkpt>
      <trkpt lat="45.53958" lon="4.56127">
        <ele>425</ele>
        <time>2013-09-22T08:34:32Z</time>
      </trkpt>
      <trkpt lat="45.53952" lon="4.56119">
        <ele>425</ele>
        <time>2013-09-22T08:34:35Z</time>
      </trkpt>
      <trkpt lat="45.53948" lon="4.5611">
        <ele>425</ele>
        <time>2013-09-22T08:34:38Z</time>
      </trkpt>
      <trkpt lat="45.53947" lon="4.56098">
        <ele>425</ele>
        <time>2013-09-22T08:34:41Z</time>
      </trkpt>
      <trkpt lat="45.53948" lon="4.56087">
        <ele>425</ele>
        <time>2013-09-22T08:34:44Z</time>
      </trkpt>
      <trkpt lat="45.53946" lon="4.56077">
        <ele>425</ele>
        <time>2013-09-22T08:34:47Z</time>
      </trkpt>
      <trkpt lat="45.53945" lon="4.56067">
        <ele>425</ele>
        <time>2013-09-22T08:34:50Z</time>
      </trkpt>
      <trkpt lat="45.53944" lon="4.56056">
        <ele>425</ele>
        <time>2013-09-22T08:34:53Z</time>
      </trkpt>
      <trkpt lat="45.53944" lon="4.56046">
        <ele>425</ele>
        <time>2013-09-22T08:34:56Z</time>
      </trkpt>
      <trkpt lat="45.53946" lon="4.56035">
        <ele>426</ele>
        <time>2013-09-22T08:34:59Z</time>
      </trkpt>
      <trkpt lat="45.53944" lon="4.56025">
        <ele>427</ele>
        <time>2013-09-22T08:35:02Z</time>
      </trkpt>
      <trkpt lat="45.53941" lon="4.56014">
        <ele>427</ele>
        <time>2013-09-22T08:35:05Z</time>
      </trkpt>
      <trkpt lat="45.53939" lon="4.56004">
        <ele>427</ele>
        <time>2013-09-22T08:35:08Z</time>
      </trkpt>
      <trkpt lat="45.53938" lon="4.55992">
        <ele>427</ele>
        <time>2013-09-22T08:35:11Z</time>
      </trkpt>
      <trkpt lat="45.53937" lon="4.5598">
        <ele>427</ele>
        <time>2013-09-22T08:35:14Z</time>
      </trkpt>
      <trkpt lat="45.53936" lon="4.55969">
        <ele>427</ele>
        <time>2013-09-22T08:35:17Z</time>
      </trkpt>
      <trkpt lat="45.53934" lon="4.55956">
        <ele>427</ele>
        <time>2013-09-22T08:35:20Z</time>
      </trkpt>
      <trkpt lat="45.53933" lon="4.55943">
        <ele>427</ele>
        <time>2013-09-22T08:35:23Z</time>
      </trkpt>
      <trkpt lat="45.5393" lon="4.55931">
        <ele>427</ele>
        <time>2013-09-22T08:35:26Z</time>
      </trkpt>
      <trkpt lat="45.53928" lon="4.55919">
        <ele>427</ele>
        <time>2013-09-22T08:35:29Z</time>
      </trkpt>
      <trkpt lat="45.53924" lon="4.55908">
        <ele>427</ele>
        <time>2013-09-22T08:35:32Z</time>
      </trkpt>
      <trkpt lat="45.53921" lon="4.55896">
        <ele>427</ele>
        <time>2013-09-22T08:35:35Z</time>
      </trkpt>
      <trkpt lat="45.53917" lon="4.55884">
        <ele>426</ele>
        <time>2013-09-22T08:35:38Z</time>
      </trkpt>
      <trkpt lat="45.53913" lon="4.55872">
        <ele>425</ele>
        <time>2013-09-22T08:35:41Z</time>
      </trkpt>
      <trkpt lat="45.5391" lon="4.55861">
        <ele>425</ele>
        <time>2013-09-22T08:35:44Z</time>
      </trkpt>
      <trkpt lat="45.53906" lon="4.5585">
        <ele>424</ele>
        <time>2013-09-22T08:35:47Z</time>
      </trkpt>
      <trkpt lat="45.53901" lon="4.55837">
        <ele>424</ele>
        <time>2013-09-22T08:35:50Z</time>
      </trkpt>
      <trkpt lat="45.53897" lon="4.55826">
        <ele>424</ele>
        <time>2013-09-22T08:35:53Z</time>
      </trkpt>
      <trkpt lat="45.53891" lon="4.55814">
        <ele>424</ele>
        <time>2013-09-22T08:35:56Z</time>
      </trkpt>
      <trkpt lat="45.53886" lon="4.55802">
        <ele>424</ele>
        <time>2013-09-22T08:35:59Z</time>
      </trkpt>
      <trkpt lat="45.53882" lon="4.55791">
        <ele>424</ele>
        <time>2013-09-22T08:36:02Z</time>
      </trkpt>
      <trkpt lat="45.53878" lon="4.5578">
        <ele>424</ele>
        <time>2013-09-22T08:36:05Z</time>
      </trkpt>
      <trkpt lat="45.53872" lon="4.5577">
        <ele>424</ele>
        <time>2013-09-22T08:36:08Z</time>
      </trkpt>
      <trkpt lat="45.53866" lon="4.55759">
        <ele>424</ele>
        <time>2013-09-22T08:36:11Z</time>
      </trkpt>
      <trkpt lat="45.53859" lon="4.5575">
        <ele>423</ele>
        <time>2013-09-22T08:36:14Z</time>
      </trkpt>
      <trkpt lat="45.53852" lon="4.55742">
        <ele>422</ele>
        <time>2013-09-22T08:36:17Z</time>
      </trkpt>
      <trkpt lat="45.53845" lon="4.55734">
        <ele>422</ele>
        <time>2013-09-22T08:36:20Z</time>
      </trkpt>
      <trkpt lat="45.5384" lon="4.55723">
        <ele>421</ele>
        <time>2013-09-22T08:36:23Z</time>
      </trkpt>
      <trkpt lat="45.53835" lon="4.55708">
        <ele>420</ele>
        <time>2013-09-22T08:36:26Z</time>
      </trkpt>
      <trkpt lat="45.53833" lon="4.55694">
        <ele>418</ele>
        <time>2013-09-22T08:36:29Z</time>
      </trkpt>
      <trkpt lat="45.53832" lon="4.5568">
        <ele>416</ele>
        <time>2013-09-22T08:36:32Z</time>
      </trkpt>
      <trkpt lat="45.53833" lon="4.55667">
        <ele>415</ele>
        <time>2013-09-22T08:36:35Z</time>
      </trkpt>
      <trkpt lat="45.5383" lon="4.55653">
        <ele>414</ele>
        <time>2013-09-22T08:36:38Z</time>
      </trkpt>
      <trkpt lat="45.53825" lon="4.55644">
        <ele>414</ele>
        <time>2013-09-22T08:36:41Z</time>
      </trkpt>
      <trkpt lat="45.53819" lon="4.55638">
        <ele>414</ele>
        <time>2013-09-22T08:36:44Z</time>
      </trkpt>
      <trkpt lat="45.53812" lon="4.55633">
        <ele>414</ele>
        <time>2013-09-22T08:36:47Z</time>
      </trkpt>
      <trkpt lat="45.53804" lon="4.55627">
        <ele>414</ele>
        <time>2013-09-22T08:36:50Z</time>
      </trkpt>
      <trkpt lat="45.53796" lon="4.55622">
        <ele>414</ele>
        <time>2013-09-22T08:36:53Z</time>
      </trkpt>
      <trkpt lat="45.53788" lon="4.55618">
        <ele>414</ele>
        <time>2013-09-22T08:36:56Z</time>
      </trkpt>
      <trkpt lat="45.53778" lon="4.55613">
        <ele>414</ele>
        <time>2013-09-22T08:36:59Z</time>
      </trkpt>
      <trkpt lat="45.5377" lon="4.55606">
        <ele>413</ele>
        <time>2013-09-22T08:37:02Z</time>
      </trkpt>
      <trkpt lat="45.53763" lon="4.55597">
        <ele>413</ele>
        <time>2013-09-22T08:37:05Z</time>
      </trkpt>
      <trkpt lat="45.53756" lon="4.55586">
        <ele>412</ele>
        <time>2013-09-22T08:37:08Z</time>
      </trkpt>
      <trkpt lat="45.53751" lon="4.55576">
        <ele>412</ele>
        <time>2013-09-22T08:37:11Z</time>
      </trkpt>
      <trkpt lat="45.53743" lon="4.55566">
        <ele>411</ele>
        <time>2013-09-22T08:37:14Z</time>
      </trkpt>
      <trkpt lat="45.53737" lon="4.55557">
        <ele>410</ele>
        <time>2013-09-22T08:37:17Z</time>
      </trkpt>
      <trkpt lat="45.53737" lon="4.55546">
        <ele>408</ele>
        <time>2013-09-22T08:37:20Z</time>
      </trkpt>
      <trkpt lat="45.53743" lon="4.55542">
        <ele>407</ele>
        <time>2013-09-22T08:37:23Z</time>
      </trkpt>
      <trkpt lat="45.53751" lon="4.55545">
        <ele>405</ele>
        <time>2013-09-22T08:37:27Z</time>
      </trkpt>
      <trkpt lat="45.53756" lon="4.55546">
        <ele>405</ele>
        <time>2013-09-22T08:37:30Z</time>
      </trkpt>
      <trkpt lat="45.53763" lon="4.55546">
        <ele>405</ele>
        <time>2013-09-22T08:37:33Z</time>
      </trkpt>
      <trkpt lat="45.53771" lon="4.55545">
        <ele>405</ele>
        <time>2013-09-22T08:37:37Z</time>
      </trkpt>
      <trkpt lat="45.53778" lon="4.55544">
        <ele>405</ele>
        <time>2013-09-22T08:37:41Z</time>
      </trkpt>
      <trkpt lat="45.53783" lon="4.55545">
        <ele>405</ele>
        <time>2013-09-22T08:37:44Z</time>
      </trkpt>
      <trkpt lat="45.53788" lon="4.55542">
        <ele>405</ele>
        <time>2013-09-22T08:37:47Z</time>
      </trkpt>
      <trkpt lat="45.53794" lon="4.55538">
        <ele>406</ele>
        <time>2013-09-22T08:37:51Z</time>
      </trkpt>
      <trkpt lat="45.53799" lon="4.55536">
        <ele>408</ele>
        <time>2013-09-22T08:37:54Z</time>
      </trkpt>
      <trkpt lat="45.53807" lon="4.55531">
        <ele>409</ele>
        <time>2013-09-22T08:37:58Z</time>
      </trkpt>
      <trkpt lat="45.53811" lon="4.55529">
        <ele>410</ele>
        <time>2013-09-22T08:38:01Z</time>
      </trkpt>
      <trkpt lat="45.53814" lon="4.55527">
        <ele>411</ele>
        <time>2013-09-22T08:38:04Z</time>
      </trkpt>
      <trkpt lat="45.5382" lon="4.55526">
        <ele>412</ele>
        <time>2013-09-22T08:38:08Z</time>
      </trkpt>
      <trkpt lat="45.53825" lon="4.55522">
        <ele>413</ele>
        <time>2013-09-22T08:38:11Z</time>
      </trkpt>
      <trkpt lat="45.53832" lon="4.55515">
        <ele>414</ele>
        <time>2013-09-22T08:38:15Z</time>
      </trkpt>
      <trkpt lat="45.53836" lon="4.55511">
        <ele>415</ele>
        <time>2013-09-22T08:38:18Z</time>
      </trkpt>
      <trkpt lat="45.5384" lon="4.55506">
        <ele>415</ele>
        <time>2013-09-22T08:38:22Z</time>
      </trkpt>
      <trkpt lat="45.53844" lon="4.55502">
        <ele>416</ele>
        <time>2013-09-22T08:38:25Z</time>
      </trkpt>
      <trkpt lat="45.53848" lon="4.55498">
        <ele>416</ele>
        <time>2013-09-22T08:38:28Z</time>
      </trkpt>
      <trkpt lat="45.53854" lon="4.55492">
        <ele>416</ele>
        <time>2013-09-22T08:38:31Z</time>
      </trkpt>
      <trkpt lat="45.5386" lon="4.55487">
        <ele>416</ele>
        <time>2013-09-22T08:38:34Z</time>
      </trkpt>
      <trkpt lat="45.53867" lon="4.55482">
        <ele>416</ele>
        <time>2013-09-22T08:38:38Z</time>
      </trkpt>
      <trkpt lat="45.53872" lon="4.55479">
        <ele>417</ele>
        <time>2013-09-22T08:38:41Z</time>
      </trkpt>
      <trkpt lat="45.53876" lon="4.55477">
        <ele>418</ele>
        <time>2013-09-22T08:38:44Z</time>
      </trkpt>
      <trkpt lat="45.5388" lon="4.55474">
        <ele>418</ele>
        <time>2013-09-22T08:38:47Z</time>
      </trkpt>
      <trkpt lat="45.53884" lon="4.55474">
        <ele>418</ele>
        <time>2013-09-22T08:38:50Z</time>
      </trkpt>
      <trkpt lat="45.53889" lon="4.55473">
        <ele>418</ele>
        <time>2013-09-22T08:38:53Z</time>
      </trkpt>
      <trkpt lat="45.53894" lon="4.55471">
        <ele>418</ele>
        <time>2013-09-22T08:38:56Z</time>
      </trkpt>
      <trkpt lat="45.53899" lon="4.55471">
        <ele>420</ele>
        <time>2013-09-22T08:38:59Z</time>
      </trkpt>
      <trkpt lat="45.53904" lon="4.55471">
        <ele>422</ele>
        <time>2013-09-22T08:39:02Z</time>
      </trkpt>
      <trkpt lat="45.53908" lon="4.5547">
        <ele>424</ele>
        <time>2013-09-22T08:39:05Z</time>
      </trkpt>
      <trkpt lat="45.53913" lon="4.55468">
        <ele>425</ele>
        <time>2013-09-22T08:39:09Z</time>
      </trkpt>
      <trkpt lat="45.53917" lon="4.55467">
        <ele>426</ele>
        <time>2013-09-22T08:39:12Z</time>
      </trkpt>
      <trkpt lat="45.53922" lon="4.55467">
        <ele>427</ele>
        <time>2013-09-22T08:39:15Z</time>
      </trkpt>
      <trkpt lat="45.53928" lon="4.55466">
        <ele>428</ele>
        <time>2013-09-22T08:39:18Z</time>
      </trkpt>
      <trkpt lat="45.53935" lon="4.55466">
        <ele>428</ele>
        <time>2013-09-22T08:39:21Z</time>
      </trkpt>
      <trkpt lat="45.53943" lon="4.55466">
        <ele>428</ele>
        <time>2013-09-22T08:39:24Z</time>
      </trkpt>
      <trkpt lat="45.53951" lon="4.55466">
        <ele>429</ele>
        <time>2013-09-22T08:39:27Z</time>
      </trkpt>
      <trkpt lat="45.53957" lon="4.55467">
        <ele>429</ele>
        <time>2013-09-22T08:39:30Z</time>
      </trkpt>
      <trkpt lat="45.53963" lon="4.55467">
        <ele>429</ele>
        <time>2013-09-22T08:39:33Z</time>
      </trkpt>
      <trkpt lat="45.5397" lon="4.55466">
        <ele>430</ele>
        <time>2013-09-22T08:39:36Z</time>
      </trkpt>
      <trkpt lat="45.53975" lon="4.55466">
        <ele>431</ele>
        <time>2013-09-22T08:39:40Z</time>
      </trkpt>
      <trkpt lat="45.53979" lon="4.55466">
        <ele>431</ele>
        <time>2013-09-22T08:39:43Z</time>
      </trkpt>
      <trkpt lat="45.53984" lon="4.55465">
        <ele>432</ele>
        <time>2013-09-22T08:39:46Z</time>
      </trkpt>
      <trkpt lat="45.5399" lon="4.55465">
        <ele>432</ele>
        <time>2013-09-22T08:39:50Z</time>
      </trkpt>
      <trkpt lat="45.53994" lon="4.55465">
        <ele>433</ele>
        <time>2013-09-22T08:39:54Z</time>
      </trkpt>
      <trkpt lat="45.53999" lon="4.55464">
        <ele>433</ele>
        <time>2013-09-22T08:39:57Z</time>
      </trkpt>
      <trkpt lat="45.54004" lon="4.55463">
        <ele>434</ele>
        <time>2013-09-22T08:40:00Z</time>
      </trkpt>
      <trkpt lat="45.54007" lon="4.55461">
        <ele>434</ele>
        <time>2013-09-22T08:40:03Z</time>
      </trkpt>
      <trkpt lat="45.54011" lon="4.55461">
        <ele>435</ele>
        <time>2013-09-22T08:40:06Z</time>
      </trkpt>
      <trkpt lat="45.54015" lon="4.5546">
        <ele>435</ele>
        <time>2013-09-22T08:40:10Z</time>
      </trkpt>
      <trkpt lat="45.5402" lon="4.5546">
        <ele>436</ele>
        <time>2013-09-22T08:40:14Z</time>
      </trkpt>
      <trkpt lat="45.54024" lon="4.5546">
        <ele>437</ele>
        <time>2013-09-22T08:40:17Z</time>
      </trkpt>
      <trkpt lat="45.54028" lon="4.5546">
        <ele>437</ele>
        <time>2013-09-22T08:40:20Z</time>
      </trkpt>
      <trkpt lat="45.54033" lon="4.55459">
        <ele>438</ele>
        <time>2013-09-22T08:40:23Z</time>
      </trkpt>
      <trkpt lat="45.5404" lon="4.55459">
        <ele>439</ele>
        <time>2013-09-22T08:40:26Z</time>
      </trkpt>
      <trkpt lat="45.54047" lon="4.55458">
        <ele>439</ele>
        <time>2013-09-22T08:40:29Z</time>
      </trkpt>
      <trkpt lat="45.54055" lon="4.55456">
        <ele>441</ele>
        <time>2013-09-22T08:40:32Z</time>
      </trkpt>
      <trkpt lat="45.54063" lon="4.55452">
        <ele>442</ele>
        <time>2013-09-22T08:40:35Z</time>
      </trkpt>
      <trkpt lat="45.5407" lon="4.55449">
        <ele>443</ele>
        <time>2013-09-22T08:40:38Z</time>
      </trkpt>
      <trkpt lat="45.54077" lon="4.55447">
        <ele>444</ele>
        <time>2013-09-22T08:40:41Z</time>
      </trkpt>
      <trkpt lat="45.54083" lon="4.55445">
        <ele>444</ele>
        <time>2013-09-22T08:40:44Z</time>
      </trkpt>
      <trkpt lat="45.5409" lon="4.55443">
        <ele>445</ele>
        <time>2013-09-22T08:40:47Z</time>
      </trkpt>
      <trkpt lat="45.54097" lon="4.55441">
        <ele>445</ele>
        <time>2013-09-22T08:40:50Z</time>
      </trkpt>
      <trkpt lat="45.54104" lon="4.55438">
        <ele>445</ele>
        <time>2013-09-22T08:40:53Z</time>
      </trkpt>
      <trkpt lat="45.54111" lon="4.55434">
        <ele>445</ele>
        <time>2013-09-22T08:40:56Z</time>
      </trkpt>
      <trkpt lat="45.54118" lon="4.5543">
        <ele>445</ele>
        <time>2013-09-22T08:40:59Z</time>
      </trkpt>
      <trkpt lat="45.54124" lon="4.55427">
        <ele>445</ele>
        <time>2013-09-22T08:41:02Z</time>
      </trkpt>
      <trkpt lat="45.54128" lon="4.55428">
        <ele>445</ele>
        <time>2013-09-22T08:41:05Z</time>
      </trkpt>
      <trkpt lat="45.54131" lon="4.5543">
        <ele>445</ele>
        <time>2013-09-22T08:41:08Z</time>
      </trkpt>
      <trkpt lat="45.54136" lon="4.55434">
        <ele>445</ele>
        <time>2013-09-22T08:41:12Z</time>
      </trkpt>
      <trkpt lat="45.5414" lon="4.55438">
        <ele>446</ele>
        <time>2013-09-22T08:41:16Z</time>
      </trkpt>
      <trkpt lat="45.54142" lon="4.55442">
        <ele>447</ele>
        <time>2013-09-22T08:41:19Z</time>
      </trkpt>
      <trkpt lat="45.54145" lon="4.55447">
        <ele>448</ele>
        <time>2013-09-22T08:41:22Z</time>
      </trkpt>
      <trkpt lat="45.54148" lon="4.55451">
        <ele>448</ele>
        <time>2013-09-22T08:41:25Z</time>
      </trkpt>
      <trkpt lat="45.5415" lon="4.55456">
        <ele>449</ele>
        <time>2013-09-22T08:41:28Z</time>
      </trkpt>
      <trkpt lat="45.54153" lon="4.5546">
        <ele>450</ele>
        <time>2013-09-22T08:41:31Z</time>
      </trkpt>
      <trkpt lat="45.54155" lon="4.55465">
        <ele>451</ele>
        <time>2013-09-22T08:41:34Z</time>
      </trkpt>
      <trkpt lat="45.54157" lon="4.5547">
        <ele>451</ele>
        <time>2013-09-22T08:41:37Z</time>
      </trkpt>
      <trkpt lat="45.54159" lon="4.55475">
        <ele>452</ele>
        <time>2013-09-22T08:41:40Z</time>
      </trkpt>
      <trkpt lat="45.54162" lon="4.5548">
        <ele>453</ele>
        <time>2013-09-22T08:41:43Z</time>
      </trkpt>
      <trkpt lat="45.54164" lon="4.55485">
        <ele>454</ele>
        <time>2013-09-22T08:41:46Z</time>
      </trkpt>
      <trkpt lat="45.54167" lon="4.55491">
        <ele>455</ele>
        <time>2013-09-22T08:41:49Z</time>
      </trkpt>
      <trkpt lat="45.54169" lon="4.55496">
        <ele>456</ele>
        <time>2013-09-22T08:41:52Z</time>
      </trkpt>
      <trkpt lat="45.54172" lon="4.55499">
        <ele>457</ele>
        <time>2013-09-22T08:41:55Z</time>
      </trkpt>
      <trkpt lat="45.54177" lon="4.55503">
        <ele>457</ele>
        <time>2013-09-22T08:41:59Z</time>
      </trkpt>
      <trkpt lat="45.54181" lon="4.55505">
        <ele>458</ele>
        <time>2013-09-22T08:42:02Z</time>
      </trkpt>
      <trkpt lat="45.54185" lon="4.55507">
        <ele>458</ele>
        <time>2013-09-22T08:42:05Z</time>
      </trkpt>
      <trkpt lat="45.54189" lon="4.5551">
        <ele>459</ele>
        <time>2013-09-22T08:42:08Z</time>
      </trkpt>
      <trkpt lat="45.54193" lon="4.55515">
        <ele>460</ele>
        <time>2013-09-22T08:42:12Z</time>
      </trkpt>
      <trkpt lat="45.54197" lon="4.55515">
        <ele>460</ele>
        <time>2013-09-22T08:42:15Z</time>
      </trkpt>
      <trkpt lat="45.54202" lon="4.55513">
        <ele>461</ele>
        <time>2013-09-22T08:42:19Z</time>
      </trkpt>
      <trkpt lat="45.54206" lon="4.55511">
        <ele>462</ele>
        <time>2013-09-22T08:42:22Z</time>
      </trkpt>
      <trkpt lat="45.54211" lon="4.55511">
        <ele>462</ele>
        <time>2013-09-22T08:42:25Z</time>
      </trkpt>
      <trkpt lat="45.54215" lon="4.55511">
        <ele>463</ele>
        <time>2013-09-22T08:42:28Z</time>
      </trkpt>
      <trkpt lat="45.54219" lon="4.55514">
        <ele>463</ele>
        <time>2013-09-22T08:42:31Z</time>
      </trkpt>
      <trkpt lat="45.54224" lon="4.55518">
        <ele>464</ele>
        <time>2013-09-22T08:42:35Z</time>
      </trkpt>
      <trkpt lat="45.54228" lon="4.55524">
        <ele>464</ele>
        <time>2013-09-22T08:42:39Z</time>
      </trkpt>
      <trkpt lat="45.54232" lon="4.5553">
        <ele>465</ele>
        <time>2013-09-22T08:42:42Z</time>
      </trkpt>
      <trkpt lat="45.54237" lon="4.55538">
        <ele>467</ele>
        <time>2013-09-22T08:42:45Z</time>
      </trkpt>
      <trkpt lat="45.54244" lon="4.55545">
        <ele>468</ele>
        <time>2013-09-22T08:42:48Z</time>
      </trkpt>
      <trkpt lat="45.54248" lon="4.55553">
        <ele>469</ele>
        <time>2013-09-22T08:42:51Z</time>
      </trkpt>
      <trkpt lat="45.54251" lon="4.55562">
        <ele>469</ele>
        <time>2013-09-22T08:42:54Z</time>
      </trkpt>
      <trkpt lat="45.54253" lon="4.55571">
        <ele>470</ele>
        <time>2013-09-22T08:42:57Z</time>
      </trkpt>
      <trkpt lat="45.54259" lon="4.55579">
        <ele>471</ele>
        <time>2013-09-22T08:43:00Z</time>
      </trkpt>
      <trkpt lat="45.54264" lon="4.55586">
        <ele>471</ele>
        <time>2013-09-22T08:43:03Z</time>
      </trkpt>
      <trkpt lat="45.54269" lon="4.55592">
        <ele>471</ele>
        <time>2013-09-22T08:43:06Z</time>
      </trkpt>
      <trkpt lat="45.54275" lon="4.55598">
        <ele>471</ele>
        <time>2013-09-22T08:43:09Z</time>
      </trkpt>
      <trkpt lat="45.54282" lon="4.55605">
        <ele>471</ele>
        <time>2013-09-22T08:43:12Z</time>
      </trkpt>
      <trkpt lat="45.54287" lon="4.5561">
        <ele>471</ele>
        <time>2013-09-22T08:43:15Z</time>
      </trkpt>
      <trkpt lat="45.54293" lon="4.55615">
        <ele>471</ele>
        <time>2013-09-22T08:43:18Z</time>
      </trkpt>
      <trkpt lat="45.54298" lon="4.55619">
        <ele>471</ele>
        <time>2013-09-22T08:43:21Z</time>
      </trkpt>
      <trkpt lat="45.54303" lon="4.55623">
        <ele>471</ele>
        <time>2013-09-22T08:43:24Z</time>
      </trkpt>
      <trkpt lat="45.54309" lon="4.55629">
        <ele>471</ele>
        <time>2013-09-22T08:43:27Z</time>
      </trkpt>
      <trkpt lat="45.54315" lon="4.55635">
        <ele>471</ele>
        <time>2013-09-22T08:43:30Z</time>
      </trkpt>
      <trkpt lat="45.54321" lon="4.55644">
        <ele>471</ele>
        <time>2013-09-22T08:43:33Z</time>
      </trkpt>
      <trkpt lat="45.54326" lon="4.55652">
        <ele>471</ele>
        <time>2013-09-22T08:43:36Z</time>
      </trkpt>
      <trkpt lat="45.54333" lon="4.5566">
        <ele>471</ele>
        <time>2013-09-22T08:43:39Z</time>
      </trkpt>
      <trkpt lat="45.54339" lon="4.55667">
        <ele>472</ele>
        <time>2013-09-22T08:43:42Z</time>
      </trkpt>
      <trkpt lat="45.54344" lon="4.55674">
        <ele>472</ele>
        <time>2013-09-22T08:43:45Z</time>
      </trkpt>
      <trkpt lat="45.54348" lon="4.5568">
        <ele>473</ele>
        <time>2013-09-22T08:43:48Z</time>
      </trkpt>
      <trkpt lat="45.54353" lon="4.55686">
        <ele>474</ele>
        <time>2013-09-22T08:43:51Z</time>
      </trkpt>
      <trkpt lat="45.54361" lon="4.55693">
        <ele>475</ele>
        <time>2013-09-22T08:43:55Z</time>
      </trkpt>
      <trkpt lat="45.54364" lon="4.55697">
        <ele>475</ele>
        <time>2013-09-22T08:43:58Z</time>
      </trkpt>
      <trkpt lat="45.54368" lon="4.55702">
        <ele>475</ele>
        <time>2013-09-22T08:44:02Z</time>
      </trkpt>
      <trkpt lat="45.54372" lon="4.55706">
        <ele>476</ele>
        <time>2013-09-22T08:44:06Z</time>
      </trkpt>
      <trkpt lat="45.54376" lon="4.5571">
        <ele>477</ele>
        <time>2013-09-22T08:44:10Z</time>
      </trkpt>
      <trkpt lat="45.5438" lon="4.55714">
        <ele>478</ele>
        <time>2013-09-22T08:44:14Z</time>
      </trkpt>
      <trkpt lat="45.54385" lon="4.55719">
        <ele>480</ele>
        <time>2013-09-22T08:44:18Z</time>
      </trkpt>
      <trkpt lat="45.54388" lon="4.55723">
        <ele>481</ele>
        <time>2013-09-22T08:44:22Z</time>
      </trkpt>
      <trkpt lat="45.54391" lon="4.55728">
        <ele>482</ele>
        <time>2013-09-22T08:44:26Z</time>
      </trkpt>
      <trkpt lat="45.54395" lon="4.55734">
        <ele>483</ele>
        <time>2013-09-22T08:44:30Z</time>
      </trkpt>
      <trkpt lat="45.54398" lon="4.55738">
        <ele>484</ele>
        <time>2013-09-22T08:44:33Z</time>
      </trkpt>
      <trkpt lat="45.54401" lon="4.55742">
        <ele>485</ele>
        <time>2013-09-22T08:44:36Z</time>
      </trkpt>
      <trkpt lat="45.54404" lon="4.55747">
        <ele>487</ele>
        <time>2013-09-22T08:44:40Z</time>
      </trkpt>
      <trkpt lat="45.54407" lon="4.55752">
        <ele>488</ele>
        <time>2013-09-22T08:44:43Z</time>
      </trkpt>
      <trkpt lat="45.54411" lon="4.55757">
        <ele>490</ele>
        <time>2013-09-22T08:44:47Z</time>
      </trkpt>
      <trkpt lat="45.54413" lon="4.55761">
        <ele>491</ele>
        <time>2013-09-22T08:44:50Z</time>
      </trkpt>
      <trkpt lat="45.54415" lon="4.55766">
        <ele>492</ele>
        <time>2013-09-22T08:44:53Z</time>
      </trkpt>
      <trkpt lat="45.54417" lon="4.5577">
        <ele>493</ele>
        <time>2013-09-22T08:44:56Z</time>
      </trkpt>
      <trkpt lat="45.54419" lon="4.55775">
        <ele>494</ele>
        <time>2013-09-22T08:44:59Z</time>
      </trkpt>
      <trkpt lat="45.54421" lon="4.5578">
        <ele>495</ele>
        <time>2013-09-22T08:45:02Z</time>
      </trkpt>
      <trkpt lat="45.54423" lon="4.55785">
        <ele>496</ele>
        <time>2013-09-22T08:45:05Z</time>
      </trkpt>
      <trkpt lat="45.54425" lon="4.5579">
        <ele>497</ele>
        <time>2013-09-22T08:45:08Z</time>
      </trkpt>
      <trkpt lat="45.54428" lon="4.55794">
        <ele>498</ele>
        <time>2013-09-22T08:45:11Z</time>
      </trkpt>
      <trkpt lat="45.54431" lon="4.558">
        <ele>499</ele>
        <time>2013-09-22T08:45:15Z</time>
      </trkpt>
      <trkpt lat="45.54434" lon="4.55805">
        <ele>500</ele>
        <time>2013-09-22T08:45:18Z</time>
      </trkpt>
      <trkpt lat="45.54439" lon="4.5581">
        <ele>501</ele>
        <time>2013-09-22T08:45:21Z</time>
      </trkpt>
      <trkpt lat="45.54442" lon="4.55815">
        <ele>501</ele>
        <time>2013-09-22T08:45:24Z</time>
      </trkpt>
      <trkpt lat="45.54445" lon="4.55819">
        <ele>503</ele>
        <time>2013-09-22T08:45:27Z</time>
      </trkpt>
      <trkpt lat="45.54449" lon="4.55824">
        <ele>504</ele>
        <time>2013-09-22T08:45:31Z</time>
      </trkpt>
      <trkpt lat="45.54453" lon="4.55827">
        <ele>505</ele>
        <time>2013-09-22T08:45:35Z</time>
      </trkpt>
      <trkpt lat="45.54457" lon="4.55825">
        <ele>506</ele>
        <time>2013-09-22T08:45:39Z</time>
      </trkpt>
      <trkpt lat="45.54461" lon="4.55823">
        <ele>507</ele>
        <time>2013-09-22T08:45:42Z</time>
      </trkpt>
      <trkpt lat="45.54464" lon="4.5582">
        <ele>508</ele>
        <time>2013-09-22T08:45:45Z</time>
      </trkpt>
      <trkpt lat="45.54468" lon="4.55819">
        <ele>508</ele>
        <time>2013-09-22T08:45:48Z</time>
      </trkpt>
      <trkpt lat="45.54471" lon="4.55819">
        <ele>509</ele>
        <time>2013-09-22T08:45:51Z</time>
      </trkpt>
      <trkpt lat="45.54476" lon="4.55822">
        <ele>510</ele>
        <time>2013-09-22T08:45:55Z</time>
      </trkpt>
      <trkpt lat="45.54479" lon="4.55826">
        <ele>511</ele>
        <time>2013-09-22T08:45:59Z</time>
      </trkpt>
      <trkpt lat="45.54482" lon="4.55831">
        <ele>512</ele>
        <time>2013-09-22T08:46:03Z</time>
      </trkpt>
      <trkpt lat="45.54483" lon="4.55836">
        <ele>513</ele>
        <time>2013-09-22T08:46:06Z</time>
      </trkpt>
      <trkpt lat="45.54485" lon="4.5584">
        <ele>514</ele>
        <time>2013-09-22T08:46:09Z</time>
      </trkpt>
      <trkpt lat="45.54487" lon="4.55845">
        <ele>516</ele>
        <time>2013-09-22T08:46:12Z</time>
      </trkpt>
      <trkpt lat="45.54489" lon="4.55851">
        <ele>517</ele>
        <time>2013-09-22T08:46:15Z</time>
      </trkpt>
      <trkpt lat="45.54492" lon="4.55855">
        <ele>518</ele>
        <time>2013-09-22T08:46:18Z</time>
      </trkpt>
      <trkpt lat="45.54495" lon="4.5586">
        <ele>519</ele>
        <time>2013-09-22T08:46:21Z</time>
      </trkpt>
      <trkpt lat="45.54497" lon="4.55864">
        <ele>519</ele>
        <time>2013-09-22T08:46:24Z</time>
      </trkpt>
      <trkpt lat="45.54501" lon="4.5587">
        <ele>520</ele>
        <time>2013-09-22T08:46:28Z</time>
      </trkpt>
      <trkpt lat="45.54505" lon="4.55875">
        <ele>520</ele>
        <time>2013-09-22T08:46:32Z</time>
      </trkpt>
      <trkpt lat="45.54509" lon="4.5588">
        <ele>521</ele>
        <time>2013-09-22T08:46:36Z</time>
      </trkpt>
      <trkpt lat="45.54513" lon="4.55884">
        <ele>522</ele>
        <time>2013-09-22T08:46:39Z</time>
      </trkpt>
      <trkpt lat="45.54519" lon="4.55889">
        <ele>522</ele>
        <time>2013-09-22T08:46:42Z</time>
      </trkpt>
      <trkpt lat="45.54525" lon="4.55894">
        <ele>523</ele>
        <time>2013-09-22T08:46:45Z</time>
      </trkpt>
      <trkpt lat="45.54533" lon="4.55897">
        <ele>523</ele>
        <time>2013-09-22T08:46:48Z</time>
      </trkpt>
      <trkpt lat="45.54542" lon="4.55897">
        <ele>524</ele>
        <time>2013-09-22T08:46:51Z</time>
      </trkpt>
      <trkpt lat="45.5455" lon="4.55899">
        <ele>524</ele>
        <time>2013-09-22T08:46:54Z</time>
      </trkpt>
      <trkpt lat="45.54557" lon="4.55898">
        <ele>525</ele>
        <time>2013-09-22T08:46:57Z</time>
      </trkpt>
      <trkpt lat="45.54567" lon="4.55896">
        <ele>526</ele>
        <time>2013-09-22T08:47:00Z</time>
      </trkpt>
      <trkpt lat="45.54575" lon="4.55895">
        <ele>527</ele>
        <time>2013-09-22T08:47:03Z</time>
      </trkpt>
      <trkpt lat="45.54584" lon="4.55893">
        <ele>527</ele>
        <time>2013-09-22T08:47:06Z</time>
      </trkpt>
      <trkpt lat="45.54593" lon="4.5589">
        <ele>527</ele>
        <time>2013-09-22T08:47:09Z</time>
      </trkpt>
      <trkpt lat="45.54602" lon="4.55889">
        <ele>527</ele>
        <time>2013-09-22T08:47:12Z</time>
      </trkpt>
      <trkpt lat="45.5461" lon="4.55888">
        <ele>527</ele>
        <time>2013-09-22T08:47:15Z</time>
      </trkpt>
      <trkpt lat="45.54618" lon="4.55887">
        <ele>527</ele>
        <time>2013-09-22T08:47:18Z</time>
      </trkpt>
      <trkpt lat="45.54626" lon="4.55886">
        <ele>527</ele>
        <time>2013-09-22T08:47:21Z</time>
      </trkpt>
      <trkpt lat="45.54633" lon="4.55884">
        <ele>527</ele>
        <time>2013-09-22T08:47:24Z</time>
      </trkpt>
      <trkpt lat="45.54641" lon="4.55882">
        <ele>527</ele>
        <time>2013-09-22T08:47:27Z</time>
      </trkpt>
      <trkpt lat="45.5465" lon="4.5588">
        <ele>527</ele>
        <time>2013-09-22T08:47:30Z</time>
      </trkpt>
      <trkpt lat="45.54658" lon="4.55879">
        <ele>527</ele>
        <time>2013-09-22T08:47:33Z</time>
      </trkpt>
      <trkpt lat="45.54666" lon="4.55879">
        <ele>527</ele>
        <time>2013-09-22T08:47:36Z</time>
      </trkpt>
      <trkpt lat="45.54674" lon="4.5588">
        <ele>527</ele>
        <time>2013-09-22T08:47:39Z</time>
      </trkpt>
      <trkpt lat="45.54682" lon="4.55884">
        <ele>527</ele>
        <time>2013-09-22T08:47:42Z</time>
      </trkpt>
      <trkpt lat="45.54691" lon="4.55888">
        <ele>527</ele>
        <time>2013-09-22T08:47:45Z</time>
      </trkpt>
      <trkpt lat="45.54698" lon="4.55893">
        <ele>527</ele>
        <time>2013-09-22T08:47:48Z</time>
      </trkpt>
      <trkpt lat="45.54706" lon="4.55898">
        <ele>527</ele>
        <time>2013-09-22T08:47:51Z</time>
      </trkpt>
      <trkpt lat="45.54714" lon="4.55903">
        <ele>527</ele>
        <time>2013-09-22T08:47:54Z</time>
      </trkpt>
      <trkpt lat="45.54722" lon="4.5591">
        <ele>527</ele>
        <time>2013-09-22T08:47:57Z</time>
      </trkpt>
      <trkpt lat="45.54731" lon="4.55916">
        <ele>527</ele>
        <time>2013-09-22T08:48:01Z</time>
      </trkpt>
      <trkpt lat="45.54738" lon="4.55922">
        <ele>527</ele>
        <time>2013-09-22T08:48:04Z</time>
      </trkpt>
      <trkpt lat="45.54746" lon="4.55929">
        <ele>527</ele>
        <time>2013-09-22T08:48:07Z</time>
      </trkpt>
      <trkpt lat="45.54753" lon="4.55934">
        <ele>527</ele>
        <time>2013-09-22T08:48:10Z</time>
      </trkpt>
      <trkpt lat="45.5476" lon="4.55939">
        <ele>527</ele>
        <time>2013-09-22T08:48:13Z</time>
      </trkpt>
      <trkpt lat="45.54766" lon="4.55945">
        <ele>527</ele>
        <time>2013-09-22T08:48:16Z</time>
      </trkpt>
      <trkpt lat="45.54773" lon="4.5595">
        <ele>527</ele>
        <time>2013-09-22T08:48:19Z</time>
      </trkpt>
      <trkpt lat="45.54781" lon="4.55956">
        <ele>527</ele>
        <time>2013-09-22T08:48:22Z</time>
      </trkpt>
      <trkpt lat="45.54788" lon="4.5596">
        <ele>527</ele>
        <time>2013-09-22T08:48:25Z</time>
      </trkpt>
      <trkpt lat="45.54796" lon="4.55966">
        <ele>527</ele>
        <time>2013-09-22T08:48:28Z</time>
      </trkpt>
      <trkpt lat="45.54805" lon="4.55972">
        <ele>527</ele>
        <time>2013-09-22T08:48:31Z</time>
      </trkpt>
      <trkpt lat="45.54814" lon="4.55977">
        <ele>527</ele>
        <time>2013-09-22T08:48:34Z</time>
      </trkpt>
      <trkpt lat="45.54823" lon="4.55982">
        <ele>527</ele>
        <time>2013-09-22T08:48:37Z</time>
      </trkpt>
      <trkpt lat="45.5483" lon="4.55988">
        <ele>527</ele>
        <time>2013-09-22T08:48:40Z</time>
      </trkpt>
      <trkpt lat="45.54837" lon="4.55993">
        <ele>527</ele>
        <time>2013-09-22T08:48:43Z</time>
      </trkpt>
      <trkpt lat="45.54845" lon="4.56">
        <ele>527</ele>
        <time>2013-09-22T08:48:46Z</time>
      </trkpt>
      <trkpt lat="45.54853" lon="4.56005">
        <ele>527</ele>
        <time>2013-09-22T08:48:49Z</time>
      </trkpt>
      <trkpt lat="45.54861" lon="4.56011">
        <ele>527</ele>
        <time>2013-09-22T08:48:52Z</time>
      </trkpt>
      <trkpt lat="45.54869" lon="4.56018">
        <ele>527</ele>
        <time>2013-09-22T08:48:55Z</time>
      </trkpt>
      <trkpt lat="45.54877" lon="4.56024">
        <ele>527</ele>
        <time>2013-09-22T08:48:58Z</time>
      </trkpt>
      <trkpt lat="45.54885" lon="4.56029">
        <ele>527</ele>
        <time>2013-09-22T08:49:01Z</time>
      </trkpt>
      <trkpt lat="45.54894" lon="4.56035">
        <ele>527</ele>
        <time>2013-09-22T08:49:04Z</time>
      </trkpt>
      <trkpt lat="45.54902" lon="4.56038">
        <ele>527</ele>
        <time>2013-09-22T08:49:07Z</time>
      </trkpt>
      <trkpt lat="45.5491" lon="4.5604">
        <ele>527</ele>
        <time>2013-09-22T08:49:10Z</time>
      </trkpt>
      <trkpt lat="45.54919" lon="4.56041">
        <ele>527</ele>
        <time>2013-09-22T08:49:13Z</time>
      </trkpt>
      <trkpt lat="45.54929" lon="4.56044">
        <ele>527</ele>
        <time>2013-09-22T08:49:16Z</time>
      </trkpt>
      <trkpt lat="45.54937" lon="4.56046">
        <ele>527</ele>
        <time>2013-09-22T08:49:19Z</time>
      </trkpt>
      <trkpt lat="45.54945" lon="4.56048">
        <ele>527</ele>
        <time>2013-09-22T08:49:22Z</time>
      </trkpt>
      <trkpt lat="45.54956" lon="4.5605">
        <ele>527</ele>
        <time>2013-09-22T08:49:26Z</time>
      </trkpt>
      <trkpt lat="45.54962" lon="4.56048">
        <ele>527</ele>
        <time>2013-09-22T08:49:29Z</time>
      </trkpt>
      <trkpt lat="45.54963" lon="4.56037">
        <ele>527</ele>
        <time>2013-09-22T08:49:32Z</time>
      </trkpt>
      <trkpt lat="45.54963" lon="4.56025">
        <ele>527</ele>
        <time>2013-09-22T08:49:35Z</time>
      </trkpt>
      <trkpt lat="45.54963" lon="4.56012">
        <ele>527</ele>
        <time>2013-09-22T08:49:38Z</time>
      </trkpt>
      <trkpt lat="45.54964" lon="4.56">
        <ele>527</ele>
        <time>2013-09-22T08:49:41Z</time>
      </trkpt>
      <trkpt lat="45.54963" lon="4.55988">
        <ele>527</ele>
        <time>2013-09-22T08:49:44Z</time>
      </trkpt>
      <trkpt lat="45.54964" lon="4.55976">
        <ele>527</ele>
        <time>2013-09-22T08:49:47Z</time>
      </trkpt>
      <trkpt lat="45.54966" lon="4.55962">
        <ele>526</ele>
        <time>2013-09-22T08:49:50Z</time>
      </trkpt>
      <trkpt lat="45.54966" lon="4.55949">
        <ele>526</ele>
        <time>2013-09-22T08:49:53Z</time>
      </trkpt>
      <trkpt lat="45.54968" lon="4.55936">
        <ele>526</ele>
        <time>2013-09-22T08:49:56Z</time>
      </trkpt>
      <trkpt lat="45.54969" lon="4.55923">
        <ele>526</ele>
        <time>2013-09-22T08:49:59Z</time>
      </trkpt>
      <trkpt lat="45.5497" lon="4.5591">
        <ele>525</ele>
        <time>2013-09-22T08:50:02Z</time>
      </trkpt>
      <trkpt lat="45.54972" lon="4.55897">
        <ele>524</ele>
        <time>2013-09-22T08:50:05Z</time>
      </trkpt>
      <trkpt lat="45.54974" lon="4.55884">
        <ele>523</ele>
        <time>2013-09-22T08:50:08Z</time>
      </trkpt>
      <trkpt lat="45.54977" lon="4.55871">
        <ele>522</ele>
        <time>2013-09-22T08:50:11Z</time>
      </trkpt>
      <trkpt lat="45.5498" lon="4.55858">
        <ele>520</ele>
        <time>2013-09-22T08:50:14Z</time>
      </trkpt>
      <trkpt lat="45.54987" lon="4.55846">
        <ele>518</ele>
        <time>2013-09-22T08:50:17Z</time>
      </trkpt>
      <trkpt lat="45.54994" lon="4.55835">
        <ele>516</ele>
        <time>2013-09-22T08:50:20Z</time>
      </trkpt>
      <trkpt lat="45.55001" lon="4.55825">
        <ele>514</ele>
        <time>2013-09-22T08:50:23Z</time>
      </trkpt>
      <trkpt lat="45.55006" lon="4.55816">
        <ele>512</ele>
        <time>2013-09-22T08:50:26Z</time>
      </trkpt>
      <trkpt lat="45.55014" lon="4.55809">
        <ele>511</ele>
        <time>2013-09-22T08:50:29Z</time>
      </trkpt>
      <trkpt lat="45.55026" lon="4.55803">
        <ele>509</ele>
        <time>2013-09-22T08:50:32Z</time>
      </trkpt>
      <trkpt lat="45.55034" lon="4.55801">
        <ele>507</ele>
        <time>2013-09-22T08:50:35Z</time>
      </trkpt>
      <trkpt lat="45.55043" lon="4.55797">
        <ele>504</ele>
        <time>2013-09-22T08:50:38Z</time>
      </trkpt>
      <trkpt lat="45.55052" lon="4.55792">
        <ele>502</ele>
        <time>2013-09-22T08:50:41Z</time>
      </trkpt>
      <trkpt lat="45.55064" lon="4.55786">
        <ele>499</ele>
        <time>2013-09-22T08:50:44Z</time>
      </trkpt>
      <trkpt lat="45.55073" lon="4.55781">
        <ele>497</ele>
        <time>2013-09-22T08:50:47Z</time>
      </trkpt>
      <trkpt lat="45.55081" lon="4.55778">
        <ele>495</ele>
        <time>2013-09-22T08:50:50Z</time>
      </trkpt>
      <trkpt lat="45.5509" lon="4.55774">
        <ele>493</ele>
        <time>2013-09-22T08:50:53Z</time>
      </trkpt>
      <trkpt lat="45.55096" lon="4.55769">
        <ele>492</ele>
        <time>2013-09-22T08:50:56Z</time>
      </trkpt>
      <trkpt lat="45.55104" lon="4.55763">
        <ele>492</ele>
        <time>2013-09-22T08:50:59Z</time>
      </trkpt>
      <trkpt lat="45.55111" lon="4.55757">
        <ele>490</ele>
        <time>2013-09-22T08:51:02Z</time>
      </trkpt>
      <trkpt lat="45.55122" lon="4.55749">
        <ele>488</ele>
        <time>2013-09-22T08:51:05Z</time>
      </trkpt>
      <trkpt lat="45.5513" lon="4.55743">
        <ele>487</ele>
        <time>2013-09-22T08:51:08Z</time>
      </trkpt>
      <trkpt lat="45.55138" lon="4.55737">
        <ele>485</ele>
        <time>2013-09-22T08:51:11Z</time>
      </trkpt>
      <trkpt lat="45.55146" lon="4.55729">
        <ele>484</ele>
        <time>2013-09-22T08:51:14Z</time>
      </trkpt>
      <trkpt lat="45.55154" lon="4.5572">
        <ele>483</ele>
        <time>2013-09-22T08:51:17Z</time>
      </trkpt>
      <trkpt lat="45.55162" lon="4.55711">
        <ele>481</ele>
        <time>2013-09-22T08:51:20Z</time>
      </trkpt>
      <trkpt lat="45.55169" lon="4.55702">
        <ele>479</ele>
        <time>2013-09-22T08:51:23Z</time>
      </trkpt>
      <trkpt lat="45.55175" lon="4.55693">
        <ele>478</ele>
        <time>2013-09-22T08:51:26Z</time>
      </trkpt>
      <trkpt lat="45.55182" lon="4.55685">
        <ele>477</ele>
        <time>2013-09-22T08:51:29Z</time>
      </trkpt>
      <trkpt lat="45.55188" lon="4.55677">
        <ele>476</ele>
        <time>2013-09-22T08:51:32Z</time>
      </trkpt>
      <trkpt lat="45.55194" lon="4.55667">
        <ele>476</ele>
        <time>2013-09-22T08:51:35Z</time>
      </trkpt>
      <trkpt lat="45.55201" lon="4.55659">
        <ele>476</ele>
        <time>2013-09-22T08:51:38Z</time>
      </trkpt>
      <trkpt lat="45.55204" lon="4.5565">
        <ele>476</ele>
        <time>2013-09-22T08:51:41Z</time>
      </trkpt>
      <trkpt lat="45.55202" lon="4.55638">
        <ele>476</ele>
        <time>2013-09-22T08:51:44Z</time>
      </trkpt>
      <trkpt lat="45.55196" lon="4.55631">
        <ele>476</ele>
        <time>2013-09-22T08:51:47Z</time>
      </trkpt>
      <trkpt lat="45.5519" lon="4.55623">
        <ele>476</ele>
        <time>2013-09-22T08:51:50Z</time>
      </trkpt>
      <trkpt lat="45.55183" lon="4.55613">
        <ele>476</ele>
        <time>2013-09-22T08:51:53Z</time>
      </trkpt>
      <trkpt lat="45.55176" lon="4.55605">
        <ele>476</ele>
        <time>2013-09-22T08:51:56Z</time>
      </trkpt>
      <trkpt lat="45.5517" lon="4.55597">
        <ele>476</ele>
        <time>2013-09-22T08:51:59Z</time>
      </trkpt>
      <trkpt lat="45.55164" lon="4.55589">
        <ele>476</ele>
        <time>2013-09-22T08:52:02Z</time>
      </trkpt>
      <trkpt lat="45.55157" lon="4.55582">
        <ele>476</ele>
        <time>2013-09-22T08:52:05Z</time>
      </trkpt>
      <trkpt lat="45.55152" lon="4.55574">
        <ele>476</ele>
        <time>2013-09-22T08:52:08Z</time>
      </trkpt>
      <trkpt lat="45.55146" lon="4.55565">
        <ele>477</ele>
        <time>2013-09-22T08:52:11Z</time>
      </trkpt>
      <trkpt lat="45.55142" lon="4.55555">
        <ele>477</ele>
        <time>2013-09-22T08:52:14Z</time>
      </trkpt>
      <trkpt lat="45.55138" lon="4.55545">
        <ele>477</ele>
        <time>2013-09-22T08:52:17Z</time>
      </trkpt>
      <trkpt lat="45.55134" lon="4.55534">
        <ele>478</ele>
        <time>2013-09-22T08:52:20Z</time>
      </trkpt>
      <trkpt lat="45.55131" lon="4.55523">
        <ele>478</ele>
        <time>2013-09-22T08:52:23Z</time>
      </trkpt>
      <trkpt lat="45.55128" lon="4.55513">
        <ele>478</ele>
        <time>2013-09-22T08:52:26Z</time>
      </trkpt>
      <trkpt lat="45.55124" lon="4.55502">
        <ele>478</ele>
        <time>2013-09-22T08:52:29Z</time>
      </trkpt>
      <trkpt lat="45.5512" lon="4.55491">
        <ele>478</ele>
        <time>2013-09-22T08:52:32Z</time>
      </trkpt>
      <trkpt lat="45.55116" lon="4.55479">
        <ele>478</ele>
        <time>2013-09-22T08:52:35Z</time>
      </trkpt>
      <trkpt lat="45.55115" lon="4.55469">
        <ele>478</ele>
        <time>2013-09-22T08:52:38Z</time>
      </trkpt>
      <trkpt lat="45.55114" lon="4.55455">
        <ele>478</ele>
        <time>2013-09-22T08:52:41Z</time>
      </trkpt>
      <trkpt lat="45.55114" lon="4.55442">
        <ele>478</ele>
        <time>2013-09-22T08:52:44Z</time>
      </trkpt>
      <trkpt lat="45.55115" lon="4.55428">
        <ele>478</ele>
        <time>2013-09-22T08:52:47Z</time>
      </trkpt>
      <trkpt lat="45.55116" lon="4.55415">
        <ele>478</ele>
        <time>2013-09-22T08:52:50Z</time>
      </trkpt>
      <trkpt lat="45.55116" lon="4.55402">
        <ele>478</ele>
        <time>2013-09-22T08:52:53Z</time>
      </trkpt>
      <trkpt lat="45.55116" lon="4.55389">
        <ele>478</ele>
        <time>2013-09-22T08:52:56Z</time>
      </trkpt>
      <trkpt lat="45.55117" lon="4.55377">
        <ele>478</ele>
        <time>2013-09-22T08:52:59Z</time>
      </trkpt>
      <trkpt lat="45.55118" lon="4.55366">
        <ele>478</ele>
        <time>2013-09-22T08:53:02Z</time>
      </trkpt>
      <trkpt lat="45.55117" lon="4.55355">
        <ele>478</ele>
        <time>2013-09-22T08:53:05Z</time>
      </trkpt>
      <trkpt lat="45.55114" lon="4.55345">
        <ele>478</ele>
        <time>2013-09-22T08:53:08Z</time>
      </trkpt>
      <trkpt lat="45.55114" lon="4.55331">
        <ele>478</ele>
        <time>2013-09-22T08:53:11Z</time>
      </trkpt>
      <trkpt lat="45.55113" lon="4.55318">
        <ele>478</ele>
        <time>2013-09-22T08:53:14Z</time>
      </trkpt>
      <trkpt lat="45.55112" lon="4.55306">
        <ele>478</ele>
        <time>2013-09-22T08:53:17Z</time>
      </trkpt>
      <trkpt lat="45.55113" lon="4.55294">
        <ele>478</ele>
        <time>2013-09-22T08:53:20Z</time>
      </trkpt>
      <trkpt lat="45.55119" lon="4.55283">
        <ele>478</ele>
        <time>2013-09-22T08:53:23Z</time>
      </trkpt>
      <trkpt lat="45.55124" lon="4.55272">
        <ele>478</ele>
        <time>2013-09-22T08:53:26Z</time>
      </trkpt>
      <trkpt lat="45.55131" lon="4.55262">
        <ele>478</ele>
        <time>2013-09-22T08:53:29Z</time>
      </trkpt>
      <trkpt lat="45.55137" lon="4.55253">
        <ele>477</ele>
        <time>2013-09-22T08:53:32Z</time>
      </trkpt>
      <trkpt lat="45.55143" lon="4.55244">
        <ele>476</ele>
        <time>2013-09-22T08:53:35Z</time>
      </trkpt>
      <trkpt lat="45.55149" lon="4.55236">
        <ele>476</ele>
        <time>2013-09-22T08:53:38Z</time>
      </trkpt>
      <trkpt lat="45.55154" lon="4.55227">
        <ele>475</ele>
        <time>2013-09-22T08:53:41Z</time>
      </trkpt>
      <trkpt lat="45.5516" lon="4.55216">
        <ele>475</ele>
        <time>2013-09-22T08:53:44Z</time>
      </trkpt>
      <trkpt lat="45.55166" lon="4.55206">
        <ele>475</ele>
        <time>2013-09-22T08:53:47Z</time>
      </trkpt>
      <trkpt lat="45.55171" lon="4.55197">
        <ele>475</ele>
        <time>2013-09-22T08:53:50Z</time>
      </trkpt>
      <trkpt lat="45.55177" lon="4.5519">
        <ele>475</ele>
        <time>2013-09-22T08:53:53Z</time>
      </trkpt>
      <trkpt lat="45.55182" lon="4.55183">
        <ele>475</ele>
        <time>2013-09-22T08:53:56Z</time>
      </trkpt>
      <trkpt lat="45.55188" lon="4.55177">
        <ele>475</ele>
        <time>2013-09-22T08:53:59Z</time>
      </trkpt>
      <trkpt lat="45.55194" lon="4.5517">
        <ele>475</ele>
        <time>2013-09-22T08:54:02Z</time>
      </trkpt>
      <trkpt lat="45.55198" lon="4.55162">
        <ele>475</ele>
        <time>2013-09-22T08:54:05Z</time>
      </trkpt>
      <trkpt lat="45.55203" lon="4.55155">
        <ele>475</ele>
        <time>2013-09-22T08:54:08Z</time>
      </trkpt>
      <trkpt lat="45.55208" lon="4.55148">
        <ele>475</ele>
        <time>2013-09-22T08:54:11Z</time>
      </trkpt>
      <trkpt lat="45.55212" lon="4.5514">
        <ele>475</ele>
        <time>2013-09-22T08:54:14Z</time>
      </trkpt>
      <trkpt lat="45.55217" lon="4.55133">
        <ele>475</ele>
        <time>2013-09-22T08:54:17Z</time>
      </trkpt>
      <trkpt lat="45.55222" lon="4.55126">
        <ele>475</ele>
        <time>2013-09-22T08:54:20Z</time>
      </trkpt>
      <trkpt lat="45.55228" lon="4.55119">
        <ele>476</ele>
        <time>2013-09-22T08:54:23Z</time>
      </trkpt>
      <trkpt lat="45.55233" lon="4.55112">
        <ele>476</ele>
        <time>2013-09-22T08:54:26Z</time>
      </trkpt>
      <trkpt lat="45.55238" lon="4.55104">
        <ele>478</ele>
        <time>2013-09-22T08:54:29Z</time>
      </trkpt>
      <trkpt lat="45.55243" lon="4.55098">
        <ele>479</ele>
        <time>2013-09-22T08:54:32Z</time>
      </trkpt>
      <trkpt lat="45.55248" lon="4.55091">
        <ele>480</ele>
        <time>2013-09-22T08:54:35Z</time>
      </trkpt>
      <trkpt lat="45.55252" lon="4.55084">
        <ele>481</ele>
        <time>2013-09-22T08:54:38Z</time>
      </trkpt>
      <trkpt lat="45.55257" lon="4.55076">
        <ele>482</ele>
        <time>2013-09-22T08:54:41Z</time>
      </trkpt>
      <trkpt lat="45.55262" lon="4.55068">
        <ele>482</ele>
        <time>2013-09-22T08:54:44Z</time>
      </trkpt>
      <trkpt lat="45.55268" lon="4.55059">
        <ele>483</ele>
        <time>2013-09-22T08:54:47Z</time>
      </trkpt>
      <trkpt lat="45.55274" lon="4.55052">
        <ele>483</ele>
        <time>2013-09-22T08:54:50Z</time>
      </trkpt>
      <trkpt lat="45.55281" lon="4.55045">
        <ele>483</ele>
        <time>2013-09-22T08:54:53Z</time>
      </trkpt>
      <trkpt lat="45.55286" lon="4.55038">
        <ele>483</ele>
        <time>2013-09-22T08:54:56Z</time>
      </trkpt>
      <trkpt lat="45.55293" lon="4.55031">
        <ele>483</ele>
        <time>2013-09-22T08:54:59Z</time>
      </trkpt>
      <trkpt lat="45.55299" lon="4.55022">
        <ele>483</ele>
        <time>2013-09-22T08:55:02Z</time>
      </trkpt>
      <trkpt lat="45.55307" lon="4.55014">
        <ele>483</ele>
        <time>2013-09-22T08:55:05Z</time>
      </trkpt>
      <trkpt lat="45.55313" lon="4.55005">
        <ele>483</ele>
        <time>2013-09-22T08:55:08Z</time>
      </trkpt>
      <trkpt lat="45.5532" lon="4.54996">
        <ele>483</ele>
        <time>2013-09-22T08:55:11Z</time>
      </trkpt>
      <trkpt lat="45.55326" lon="4.5499">
        <ele>483</ele>
        <time>2013-09-22T08:55:14Z</time>
      </trkpt>
      <trkpt lat="45.55333" lon="4.54983">
        <ele>483</ele>
        <time>2013-09-22T08:55:17Z</time>
      </trkpt>
      <trkpt lat="45.55341" lon="4.54975">
        <ele>483</ele>
        <time>2013-09-22T08:55:20Z</time>
      </trkpt>
      <trkpt lat="45.55348" lon="4.54971">
        <ele>483</ele>
        <time>2013-09-22T08:55:23Z</time>
      </trkpt>
      <trkpt lat="45.55357" lon="4.54967">
        <ele>482</ele>
        <time>2013-09-22T08:55:26Z</time>
      </trkpt>
      <trkpt lat="45.55366" lon="4.54965">
        <ele>481</ele>
        <time>2013-09-22T08:55:29Z</time>
      </trkpt>
      <trkpt lat="45.55375" lon="4.54961">
        <ele>481</ele>
        <time>2013-09-22T08:55:32Z</time>
      </trkpt>
      <trkpt lat="45.55384" lon="4.54958">
        <ele>480</ele>
        <time>2013-09-22T08:55:35Z</time>
      </trkpt>
      <trkpt lat="45.55393" lon="4.54953">
        <ele>478</ele>
        <time>2013-09-22T08:55:38Z</time>
      </trkpt>
      <trkpt lat="45.55401" lon="4.5495">
        <ele>476</ele>
        <time>2013-09-22T08:55:41Z</time>
      </trkpt>
      <trkpt lat="45.55411" lon="4.54944">
        <ele>474</ele>
        <time>2013-09-22T08:55:44Z</time>
      </trkpt>
      <trkpt lat="45.5542" lon="4.54938">
        <ele>472</ele>
        <time>2013-09-22T08:55:47Z</time>
      </trkpt>
      <trkpt lat="45.5543" lon="4.54932">
        <ele>469</ele>
        <time>2013-09-22T08:55:50Z</time>
      </trkpt>
      <trkpt lat="45.5544" lon="4.54927">
        <ele>466</ele>
        <time>2013-09-22T08:55:53Z</time>
      </trkpt>
      <trkpt lat="45.55449" lon="4.54925">
        <ele>464</ele>
        <time>2013-09-22T08:55:56Z</time>
      </trkpt>
      <trkpt lat="45.55458" lon="4.5492">
        <ele>462</ele>
        <time>2013-09-22T08:55:59Z</time>
      </trkpt>
      <trkpt lat="45.55466" lon="4.54914">
        <ele>462</ele>
        <time>2013-09-22T08:56:02Z</time>
      </trkpt>
      <trkpt lat="45.55472" lon="4.54905">
        <ele>462</ele>
        <time>2013-09-22T08:56:05Z</time>
      </trkpt>
      <trkpt lat="45.55476" lon="4.54894">
        <ele>462</ele>
        <time>2013-09-22T08:56:08Z</time>
      </trkpt>
      <trkpt lat="45.5548" lon="4.54883">
        <ele>461</ele>
        <time>2013-09-22T08:56:11Z</time>
      </trkpt>
      <trkpt lat="45.55485" lon="4.54874">
        <ele>461</ele>
        <time>2013-09-22T08:56:14Z</time>
      </trkpt>
      <trkpt lat="45.55493" lon="4.54863">
        <ele>460</ele>
        <time>2013-09-22T08:56:17Z</time>
      </trkpt>
      <trkpt lat="45.555" lon="4.54854">
        <ele>460</ele>
        <time>2013-09-22T08:56:20Z</time>
      </trkpt>
      <trkpt lat="45.55506" lon="4.54846">
        <ele>460</ele>
        <time>2013-09-22T08:56:23Z</time>
      </trkpt>
      <trkpt lat="45.55512" lon="4.54839">
        <ele>460</ele>
        <time>2013-09-22T08:56:26Z</time>
      </trkpt>
      <trkpt lat="45.55518" lon="4.54833">
        <ele>460</ele>
        <time>2013-09-22T08:56:29Z</time>
      </trkpt>
      <trkpt lat="45.55524" lon="4.54827">
        <ele>460</ele>
        <time>2013-09-22T08:56:32Z</time>
      </trkpt>
      <trkpt lat="45.55532" lon="4.54824">
        <ele>460</ele>
        <time>2013-09-22T08:56:35Z</time>
      </trkpt>
      <trkpt lat="45.55539" lon="4.54821">
        <ele>460</ele>
        <time>2013-09-22T08:56:38Z</time>
      </trkpt>
      <trkpt lat="45.55545" lon="4.54814">
        <ele>460</ele>
        <time>2013-09-22T08:56:41Z</time>
      </trkpt>
      <trkpt lat="45.5555" lon="4.54805">
        <ele>460</ele>
        <time>2013-09-22T08:56:44Z</time>
      </trkpt>
      <trkpt lat="45.55549" lon="4.54796">
        <ele>460</ele>
        <time>2013-09-22T08:56:47Z</time>
      </trkpt>
      <trkpt lat="45.55549" lon="4.54787">
        <ele>460</ele>
        <time>2013-09-22T08:56:50Z</time>
      </trkpt>
      <trkpt lat="45.55552" lon="4.54782">
        <ele>460</ele>
        <time>2013-09-22T08:56:53Z</time>
      </trkpt>
      <trkpt lat="45.55558" lon="4.54778">
        <ele>460</ele>
        <time>2013-09-22T08:56:56Z</time>
      </trkpt>
      <trkpt lat="45.55563" lon="4.54773">
        <ele>460</ele>
        <time>2013-09-22T08:56:59Z</time>
      </trkpt>
      <trkpt lat="45.55568" lon="4.54768">
        <ele>460</ele>
        <time>2013-09-22T08:57:02Z</time>
      </trkpt>
      <trkpt lat="45.55572" lon="4.54762">
        <ele>460</ele>
        <time>2013-09-22T08:57:05Z</time>
      </trkpt>
      <trkpt lat="45.55577" lon="4.54754">
        <ele>460</ele>
        <time>2013-09-22T08:57:08Z</time>
      </trkpt>
      <trkpt lat="45.55582" lon="4.54747">
        <ele>460</ele>
        <time>2013-09-22T08:57:11Z</time>
      </trkpt>
      <trkpt lat="45.55587" lon="4.5474">
        <ele>461</ele>
        <time>2013-09-22T08:57:14Z</time>
      </trkpt>
      <trkpt lat="45.55592" lon="4.54733">
        <ele>462</ele>
        <time>2013-09-22T08:57:17Z</time>
      </trkpt>
      <trkpt lat="45.55597" lon="4.54724">
        <ele>463</ele>
        <time>2013-09-22T08:57:20Z</time>
      </trkpt>
      <trkpt lat="45.55602" lon="4.54714">
        <ele>465</ele>
        <time>2013-09-22T08:57:23Z</time>
      </trkpt>
      <trkpt lat="45.55607" lon="4.54705">
        <ele>466</ele>
        <time>2013-09-22T08:57:26Z</time>
      </trkpt>
      <trkpt lat="45.55608" lon="4.54695">
        <ele>466</ele>
        <time>2013-09-22T08:57:29Z</time>
      </trkpt>
      <trkpt lat="45.55609" lon="4.54685">
        <ele>466</ele>
        <time>2013-09-22T08:57:32Z</time>
      </trkpt>
      <trkpt lat="45.55613" lon="4.54678">
        <ele>466</ele>
        <time>2013-09-22T08:57:35Z</time>
      </trkpt>
      <trkpt lat="45.55619" lon="4.54674">
        <ele>466</ele>
        <time>2013-09-22T08:57:38Z</time>
      </trkpt>
      <trkpt lat="45.55626" lon="4.5467">
        <ele>466</ele>
        <time>2013-09-22T08:57:41Z</time>
      </trkpt>
      <trkpt lat="45.55633" lon="4.54666">
        <ele>465</ele>
        <time>2013-09-22T08:57:44Z</time>
      </trkpt>
      <trkpt lat="45.5564" lon="4.54661">
        <ele>465</ele>
        <time>2013-09-22T08:57:47Z</time>
      </trkpt>
      <trkpt lat="45.55648" lon="4.54657">
        <ele>465</ele>
        <time>2013-09-22T08:57:50Z</time>
      </trkpt>
      <trkpt lat="45.55655" lon="4.54651">
        <ele>465</ele>
        <time>2013-09-22T08:57:53Z</time>
      </trkpt>
      <trkpt lat="45.55661" lon="4.54645">
        <ele>465</ele>
        <time>2013-09-22T08:57:56Z</time>
      </trkpt>
      <trkpt lat="45.55668" lon="4.5464">
        <ele>465</ele>
        <time>2013-09-22T08:57:59Z</time>
      </trkpt>
      <trkpt lat="45.55675" lon="4.54635">
        <ele>465</ele>
        <time>2013-09-22T08:58:02Z</time>
      </trkpt>
      <trkpt lat="45.55679" lon="4.54629">
        <ele>465</ele>
        <time>2013-09-22T08:58:05Z</time>
      </trkpt>
      <trkpt lat="45.55683" lon="4.54621">
        <ele>467</ele>
        <time>2013-09-22T08:58:08Z</time>
      </trkpt>
      <trkpt lat="45.55688" lon="4.54612">
        <ele>468</ele>
        <time>2013-09-22T08:58:11Z</time>
      </trkpt>
      <trkpt lat="45.55693" lon="4.54605">
        <ele>469</ele>
        <time>2013-09-22T08:58:14Z</time>
      </trkpt>
      <trkpt lat="45.55696" lon="4.54599">
        <ele>469</ele>
        <time>2013-09-22T08:58:17Z</time>
      </trkpt>
      <trkpt lat="45.55699" lon="4.54591">
        <ele>470</ele>
        <time>2013-09-22T08:58:20Z</time>
      </trkpt>
      <trkpt lat="45.55703" lon="4.54586">
        <ele>471</ele>
        <time>2013-09-22T08:58:23Z</time>
      </trkpt>
      <trkpt lat="45.55708" lon="4.5458">
        <ele>471</ele>
        <time>2013-09-22T08:58:26Z</time>
      </trkpt>
      <trkpt lat="45.55712" lon="4.54574">
        <ele>471</ele>
        <time>2013-09-22T08:58:29Z</time>
      </trkpt>
      <trkpt lat="45.55717" lon="4.5457">
        <ele>471</ele>
        <time>2013-09-22T08:58:32Z</time>
      </trkpt>
      <trkpt lat="45.55721" lon="4.54565">
        <ele>471</ele>
        <time>2013-09-22T08:58:35Z</time>
      </trkpt>
      <trkpt lat="45.55726" lon="4.54562">
        <ele>472</ele>
        <time>2013-09-22T08:58:38Z</time>
      </trkpt>
      <trkpt lat="45.55731" lon="4.54558">
        <ele>472</ele>
        <time>2013-09-22T08:58:41Z</time>
      </trkpt>
      <trkpt lat="45.55736" lon="4.54557">
        <ele>472</ele>
        <time>2013-09-22T08:58:44Z</time>
      </trkpt>
      <trkpt lat="45.55742" lon="4.54554">
        <ele>472</ele>
        <time>2013-09-22T08:58:47Z</time>
      </trkpt>
      <trkpt lat="45.55746" lon="4.54553">
        <ele>472</ele>
        <time>2013-09-22T08:58:50Z</time>
      </trkpt>
      <trkpt lat="45.55751" lon="4.54553">
        <ele>472</ele>
        <time>2013-09-22T08:58:53Z</time>
      </trkpt>
      <trkpt lat="45.55756" lon="4.54553">
        <ele>472</ele>
        <time>2013-09-22T08:58:56Z</time>
      </trkpt>
      <trkpt lat="45.55761" lon="4.5455">
        <ele>472</ele>
        <time>2013-09-22T08:58:59Z</time>
      </trkpt>
      <trkpt lat="45.55765" lon="4.54544">
        <ele>472</ele>
        <time>2013-09-22T08:59:02Z</time>
      </trkpt>
      <trkpt lat="45.55768" lon="4.54537">
        <ele>472</ele>
        <time>2013-09-22T08:59:05Z</time>
      </trkpt>
      <trkpt lat="45.55772" lon="4.5453">
        <ele>472</ele>
        <time>2013-09-22T08:59:08Z</time>
      </trkpt>
      <trkpt lat="45.55776" lon="4.54523">
        <ele>472</ele>
        <time>2013-09-22T08:59:11Z</time>
      </trkpt>
      <trkpt lat="45.55779" lon="4.54517">
        <ele>474</ele>
        <time>2013-09-22T08:59:14Z</time>
      </trkpt>
      <trkpt lat="45.55782" lon="4.54511">
        <ele>476</ele>
        <time>2013-09-22T08:59:17Z</time>
      </trkpt>
      <trkpt lat="45.55782" lon="4.54503">
        <ele>477</ele>
        <time>2013-09-22T08:59:20Z</time>
      </trkpt>
      <trkpt lat="45.55784" lon="4.54497">
        <ele>478</ele>
        <time>2013-09-22T08:59:23Z</time>
      </trkpt>
      <trkpt lat="45.55788" lon="4.54493">
        <ele>479</ele>
        <time>2013-09-22T08:59:26Z</time>
      </trkpt>
      <trkpt lat="45.55792" lon="4.54489">
        <ele>479</ele>
        <time>2013-09-22T08:59:29Z</time>
      </trkpt>
      <trkpt lat="45.55797" lon="4.54484">
        <ele>479</ele>
        <time>2013-09-22T08:59:32Z</time>
      </trkpt>
      <trkpt lat="45.55802" lon="4.54481">
        <ele>479</ele>
        <time>2013-09-22T08:59:35Z</time>
      </trkpt>
      <trkpt lat="45.55809" lon="4.54476">
        <ele>479</ele>
        <time>2013-09-22T08:59:38Z</time>
      </trkpt>
      <trkpt lat="45.55813" lon="4.54474">
        <ele>479</ele>
        <time>2013-09-22T08:59:41Z</time>
      </trkpt>
      <trkpt lat="45.55817" lon="4.54472">
        <ele>479</ele>
        <time>2013-09-22T08:59:44Z</time>
      </trkpt>
      <trkpt lat="45.5582" lon="4.54467">
        <ele>479</ele>
        <time>2013-09-22T08:59:47Z</time>
      </trkpt>
      <trkpt lat="45.55824" lon="4.54462">
        <ele>479</ele>
        <time>2013-09-22T08:59:50Z</time>
      </trkpt>
      <trkpt lat="45.5583" lon="4.54453">
        <ele>479</ele>
        <time>2013-09-22T08:59:53Z</time>
      </trkpt>
      <trkpt lat="45.55835" lon="4.54446">
        <ele>479</ele>
        <time>2013-09-22T08:59:56Z</time>
      </trkpt>
      <trkpt lat="45.55837" lon="4.5444">
        <ele>479</ele>
        <time>2013-09-22T08:59:59Z</time>
      </trkpt>
      <trkpt lat="45.55836" lon="4.54436">
        <ele>479</ele>
        <time>2013-09-22T09:00:03Z</time>
      </trkpt>
      <trkpt lat="45.55833" lon="4.54434">
        <ele>479</ele>
        <time>2013-09-22T09:00:06Z</time>
      </trkpt>
      <trkpt lat="45.55829" lon="4.5443">
        <ele>480</ele>
        <time>2013-09-22T09:00:10Z</time>
      </trkpt>
      <trkpt lat="45.55827" lon="4.54424">
        <ele>481</ele>
        <time>2013-09-22T09:00:14Z</time>
      </trkpt>
      <trkpt lat="45.55826" lon="4.5442">
        <ele>482</ele>
        <time>2013-09-22T09:00:17Z</time>
      </trkpt>
      <trkpt lat="45.55824" lon="4.54417">
        <ele>482</ele>
        <time>2013-09-22T09:00:21Z</time>
      </trkpt>
      <trkpt lat="45.55822" lon="4.54411">
        <ele>482</ele>
        <time>2013-09-22T09:00:24Z</time>
      </trkpt>
      <trkpt lat="45.55821" lon="4.54405">
        <ele>482</ele>
        <time>2013-09-22T09:00:27Z</time>
      </trkpt>
      <trkpt lat="45.5582" lon="4.544">
        <ele>482</ele>
        <time>2013-09-22T09:00:30Z</time>
      </trkpt>
      <trkpt lat="45.55819" lon="4.54396">
        <ele>483</ele>
        <time>2013-09-22T09:00:33Z</time>
      </trkpt>
      <trkpt lat="45.55816" lon="4.5439">
        <ele>485</ele>
        <time>2013-09-22T09:00:36Z</time>
      </trkpt>
      <trkpt lat="45.55814" lon="4.54384">
        <ele>488</ele>
        <time>2013-09-22T09:00:39Z</time>
      </trkpt>
      <trkpt lat="45.55812" lon="4.54375">
        <ele>491</ele>
        <time>2013-09-22T09:00:42Z</time>
      </trkpt>
      <trkpt lat="45.55806" lon="4.54363">
        <ele>492</ele>
        <time>2013-09-22T09:00:45Z</time>
      </trkpt>
      <trkpt lat="45.55804" lon="4.54354">
        <ele>493</ele>
        <time>2013-09-22T09:00:48Z</time>
      </trkpt>
      <trkpt lat="45.55814" lon="4.54351">
        <ele>493</ele>
        <time>2013-09-22T09:00:51Z</time>
      </trkpt>
      <trkpt lat="45.55827" lon="4.5435">
        <ele>493</ele>
        <time>2013-09-22T09:00:54Z</time>
      </trkpt>
      <trkpt lat="45.55837" lon="4.54346">
        <ele>494</ele>
        <time>2013-09-22T09:00:57Z</time>
      </trkpt>
      <trkpt lat="45.55846" lon="4.5434">
        <ele>494</ele>
        <time>2013-09-22T09:01:00Z</time>
      </trkpt>
      <trkpt lat="45.55854" lon="4.54335">
        <ele>494</ele>
        <time>2013-09-22T09:01:03Z</time>
      </trkpt>
      <trkpt lat="45.55859" lon="4.54329">
        <ele>494</ele>
        <time>2013-09-22T09:01:06Z</time>
      </trkpt>
      <trkpt lat="45.55862" lon="4.54322">
        <ele>495</ele>
        <time>2013-09-22T09:01:09Z</time>
      </trkpt>
      <trkpt lat="45.55864" lon="4.54314">
        <ele>495</ele>
        <time>2013-09-22T09:01:12Z</time>
      </trkpt>
      <trkpt lat="45.55865" lon="4.54305">
        <ele>496</ele>
        <time>2013-09-22T09:01:15Z</time>
      </trkpt>
      <trkpt lat="45.55867" lon="4.54297">
        <ele>497</ele>
        <time>2013-09-22T09:01:18Z</time>
      </trkpt>
      <trkpt lat="45.55868" lon="4.54292">
        <ele>498</ele>
        <time>2013-09-22T09:01:21Z</time>
      </trkpt>
      <trkpt lat="45.55869" lon="4.54286">
        <ele>498</ele>
        <time>2013-09-22T09:01:24Z</time>
      </trkpt>
      <trkpt lat="45.55869" lon="4.54281">
        <ele>499</ele>
        <time>2013-09-22T09:01:27Z</time>
      </trkpt>
      <trkpt lat="45.5587" lon="4.54275">
        <ele>500</ele>
        <time>2013-09-22T09:01:30Z</time>
      </trkpt>
      <trkpt lat="45.55871" lon="4.54268">
        <ele>501</ele>
        <time>2013-09-22T09:01:34Z</time>
      </trkpt>
      <trkpt lat="45.55871" lon="4.54262">
        <ele>501</ele>
        <time>2013-09-22T09:01:37Z</time>
      </trkpt>
      <trkpt lat="45.55872" lon="4.54257">
        <ele>502</ele>
        <time>2013-09-22T09:01:40Z</time>
      </trkpt>
      <trkpt lat="45.55872" lon="4.54251">
        <ele>502</ele>
        <time>2013-09-22T09:01:43Z</time>
      </trkpt>
      <trkpt lat="45.55874" lon="4.54246">
        <ele>503</ele>
        <time>2013-09-22T09:01:46Z</time>
      </trkpt>
      <trkpt lat="45.55874" lon="4.54241">
        <ele>503</ele>
        <time>2013-09-22T09:01:49Z</time>
      </trkpt>
      <trkpt lat="45.55874" lon="4.54236">
        <ele>504</ele>
        <time>2013-09-22T09:01:52Z</time>
      </trkpt>
      <trkpt lat="45.55875" lon="4.54228">
        <ele>505</ele>
        <time>2013-09-22T09:01:55Z</time>
      </trkpt>
      <trkpt lat="45.55876" lon="4.54219">
        <ele>506</ele>
        <time>2013-09-22T09:01:58Z</time>
      </trkpt>
      <trkpt lat="45.55877" lon="4.54209">
        <ele>508</ele>
        <time>2013-09-22T09:02:01Z</time>
      </trkpt>
      <trkpt lat="45.5588" lon="4.54198">
        <ele>508</ele>
        <time>2013-09-22T09:02:04Z</time>
      </trkpt>
      <trkpt lat="45.55881" lon="4.54188">
        <ele>509</ele>
        <time>2013-09-22T09:02:07Z</time>
      </trkpt>
      <trkpt lat="45.55881" lon="4.54182">
        <ele>510</ele>
        <time>2013-09-22T09:02:10Z</time>
      </trkpt>
      <trkpt lat="45.55882" lon="4.54177">
        <ele>511</ele>
        <time>2013-09-22T09:02:13Z</time>
      </trkpt>
      <trkpt lat="45.55883" lon="4.54172">
        <ele>512</ele>
        <time>2013-09-22T09:02:16Z</time>
      </trkpt>
      <trkpt lat="45.55884" lon="4.54166">
        <ele>512</ele>
        <time>2013-09-22T09:02:19Z</time>
      </trkpt>
      <trkpt lat="45.55886" lon="4.54161">
        <ele>513</ele>
        <time>2013-09-22T09:02:22Z</time>
      </trkpt>
      <trkpt lat="45.55887" lon="4.54155">
        <ele>513</ele>
        <time>2013-09-22T09:02:25Z</time>
      </trkpt>
      <trkpt lat="45.55888" lon="4.54149">
        <ele>513</ele>
        <time>2013-09-22T09:02:28Z</time>
      </trkpt>
      <trkpt lat="45.55891" lon="4.5414">
        <ele>514</ele>
        <time>2013-09-22T09:02:31Z</time>
      </trkpt>
      <trkpt lat="45.55894" lon="4.5413">
        <ele>515</ele>
        <time>2013-09-22T09:02:34Z</time>
      </trkpt>
      <trkpt lat="45.55895" lon="4.5412">
        <ele>515</ele>
        <time>2013-09-22T09:02:37Z</time>
      </trkpt>
      <trkpt lat="45.55891" lon="4.5411">
        <ele>516</ele>
        <time>2013-09-22T09:02:40Z</time>
      </trkpt>
      <trkpt lat="45.55886" lon="4.541">
        <ele>516</ele>
        <time>2013-09-22T09:02:43Z</time>
      </trkpt>
      <trkpt lat="45.5588" lon="4.54091">
        <ele>517</ele>
        <time>2013-09-22T09:02:46Z</time>
      </trkpt>
      <trkpt lat="45.55874" lon="4.54082">
        <ele>518</ele>
        <time>2013-09-22T09:02:49Z</time>
      </trkpt>
      <trkpt lat="45.55866" lon="4.54069">
        <ele>518</ele>
        <time>2013-09-22T09:02:53Z</time>
      </trkpt>
      <trkpt lat="45.55861" lon="4.54057">
        <ele>518</ele>
        <time>2013-09-22T09:02:56Z</time>
      </trkpt>
      <trkpt lat="45.55854" lon="4.54048">
        <ele>518</ele>
        <time>2013-09-22T09:02:59Z</time>
      </trkpt>
      <trkpt lat="45.55849" lon="4.54037">
        <ele>518</ele>
        <time>2013-09-22T09:03:02Z</time>
      </trkpt>
      <trkpt lat="45.55843" lon="4.54025">
        <ele>518</ele>
        <time>2013-09-22T09:03:05Z</time>
      </trkpt>
      <trkpt lat="45.55838" lon="4.54012">
        <ele>518</ele>
        <time>2013-09-22T09:03:08Z</time>
      </trkpt>
      <trkpt lat="45.55831" lon="4.54001">
        <ele>518</ele>
        <time>2013-09-22T09:03:11Z</time>
      </trkpt>
      <trkpt lat="45.55826" lon="4.53988">
        <ele>518</ele>
        <time>2013-09-22T09:03:14Z</time>
      </trkpt>
      <trkpt lat="45.55822" lon="4.53975">
        <ele>518</ele>
        <time>2013-09-22T09:03:17Z</time>
      </trkpt>
      <trkpt lat="45.55815" lon="4.53963">
        <ele>517</ele>
        <time>2013-09-22T09:03:20Z</time>
      </trkpt>
      <trkpt lat="45.5581" lon="4.5395">
        <ele>517</ele>
        <time>2013-09-22T09:03:23Z</time>
      </trkpt>
      <trkpt lat="45.55804" lon="4.53938">
        <ele>517</ele>
        <time>2013-09-22T09:03:26Z</time>
      </trkpt>
      <trkpt lat="45.55796" lon="4.53925">
        <ele>517</ele>
        <time>2013-09-22T09:03:29Z</time>
      </trkpt>
      <trkpt lat="45.55789" lon="4.53912">
        <ele>517</ele>
        <time>2013-09-22T09:03:32Z</time>
      </trkpt>
      <trkpt lat="45.55783" lon="4.53899">
        <ele>516</ele>
        <time>2013-09-22T09:03:35Z</time>
      </trkpt>
      <trkpt lat="45.5578" lon="4.53883">
        <ele>516</ele>
        <time>2013-09-22T09:03:38Z</time>
      </trkpt>
      <trkpt lat="45.55779" lon="4.53867">
        <ele>515</ele>
        <time>2013-09-22T09:03:41Z</time>
      </trkpt>
      <trkpt lat="45.55779" lon="4.53852">
        <ele>514</ele>
        <time>2013-09-22T09:03:44Z</time>
      </trkpt>
      <trkpt lat="45.55777" lon="4.53835">
        <ele>513</ele>
        <time>2013-09-22T09:03:47Z</time>
      </trkpt>
      <trkpt lat="45.55773" lon="4.53816">
        <ele>513</ele>
        <time>2013-09-22T09:03:50Z</time>
      </trkpt>
      <trkpt lat="45.5577" lon="4.53801">
        <ele>511</ele>
        <time>2013-09-22T09:03:53Z</time>
      </trkpt>
      <trkpt lat="45.55764" lon="4.5379">
        <ele>510</ele>
        <time>2013-09-22T09:03:56Z</time>
      </trkpt>
      <trkpt lat="45.55757" lon="4.5378">
        <ele>510</ele>
        <time>2013-09-22T09:03:59Z</time>
      </trkpt>
      <trkpt lat="45.55749" lon="4.5377">
        <ele>510</ele>
        <time>2013-09-22T09:04:02Z</time>
      </trkpt>
      <trkpt lat="45.55743" lon="4.53765">
        <ele>510</ele>
        <time>2013-09-22T09:04:05Z</time>
      </trkpt>
    </trkseg>
  </trk>
</gpx>